GEFSSGP_500_meanwind_072.txt.gz
Wind_Speed
7 7 7 6 5 5 6 5 3 3 3 2 2 2 2 2 1 1 1 2 3 4 6 7 8 9 10 11 12 13 13 13 13 13 13 13 13 13 13 14 14 14 15 15 16 17 18 19 19
7 6 6 5 4 4 4 3 3 3 2 1 1 1 2 1 3 3 4 5 5 7 8 9 10 11 12 13 13 13 13 13 13 13 13 13 13 13 13 14 14 14 14 15 16 16 17 18 19
5 4 4 3 2 3 2 1 1 0 1 2 3 4 4 5 6 7 7 8 9 9 11 11 12 13 13 13 13 13 13 13 13 13 13 13 13 13 13 13 14 14 14 15 15 16 17 18 19
4 3 2 1 1 2 1 2 2 3 5 6 7 7 8 9 9 11 11 11 12 12 13 13 13 14 14 14 14 14 13 13 13 13 13 12 12 12 13 13 14 14 15 15 16 17 18 18 19
4 3 3 3 3 3 4 5 6 7 8 9 10 11 11 13 12 14 14 14 14 13 14 14 14 15 15 14 14 14 14 13 13 13 12 12 13 13 14 14 15 16 16 17 18 19 19 20 21
5 5 5 5 6 6 8 8 9 10 12 13 13 14 13 17 15 16 16 15 15 15 15 15 15 15 15 14 14 14 14 13 13 12 12 13 13 14 15 15 16 17 18 19 20 21 21 22 23
7 8 8 8 8 9 10 10 12 13 14 15 16 16 14 18 17 17 17 16 16 16 15 16 15 15 15 14 14 14 14 13 13 13 13 13 14 15 16 17 18 18 19 20 21 22 23 24 25
8 9 9 9 9 10 11 11 13 14 15 16 17 17 15 18 18 17 18 17 17 16 16 16 16 15 15 15 14 14 14 13 13 13 13 13 14 15 17 18 19 20 20 21 22 23 24 25 26
10 10 10 10 10 11 12 12 13 14 15 16 16 15 15 17 18 18 18 17 17 17 16 16 16 16 15 15 15 14 14 13 13 13 13 14 15 16 17 18 19 20 21 22 23 24 25 26 27
11 11 12 12 12 12 13 13 14 14 16 16 15 14 15 16 17 18 18 18 18 18 17 17 16 16 16 16 16 15 14 14 14 14 15 16 16 17 18 19 20 21 22 23 24 25 26 27 29
12 13 13 14 13 13 13 14 15 16 17 16 15 16 17 18 18 18 18 18 18 18 18 18 17 17 17 17 17 16 16 16 16 17 17 18 18 19 20 22 22 24 25 26 27 28 29 30 31
14 15 15 15 15 15 14 15 16 18 18 17 17 18 17 19 19 19 19 19 19 19 20 20 19 19 19 18 18 18 18 19 19 19 20 21 22 23 24 25 26 27 28 29 31 31 32 33 34
15 16 17 17 16 16 16 17 18 20 19 19 19 20 19 19 20 20 20 20 21 21 22 21 21 21 21 21 21 21 21 22 22 23 24 24 25 26 28 29 30 31 32 33 34 35 36 37 38
17 18 18 18 18 17 16 18 21 21 20 20 20 21 21 21 21 22 22 23 23 23 23 23 24 24 24 24 25 25 25 25 26 27 28 28 30 31 32 33 34 35 36 37 38 39 40 41 42
20 20 20 20 20 19 17 18 23 23 21 21 22 22 22 23 23 24 25 25 25 25 26 26 27 27 27 28 28 29 29 29 30 31 32 33 34 35 36 37 38 39 40 41 42 43 44 44 45
22 22 22 22 21 21 20 18 25 25 23 22 23 24 24 24 25 26 27 27 28 28 28 29 29 30 30 31 32 32 32 33 34 35 36 37 38 38 39 40 41 42 43 44 46 47 47 48 49
23 22 23 24 22 21 21 21 25 27 26 26 26 26 26 26 26 27 28 29 29 30 30 31 32 33 34 35 35 36 36 36 37 38 39 40 41 42 43 44 45 46 46 48 49 50 51 51 52
22 22 22 23 24 22 23 23 25 27 27 27 27 27 27 27 27 27 28 29 30 31 32 33 34 36 37 38 38 39 39 40 41 41 42 43 44 46 47 47 48 49 50 51 52 53 54 55 56
21 21 21 22 22 22 23 25 25 26 26 26 26 27 27 27 28 28 28 29 31 32 34 34 36 37 39 40 40 41 42 43 43 44 44 46 47 49 50 50 51 52 53 54 56 57 57 58 59
20 20 20 20 21 21 21 24 25 24 25 26 26 26 27 27 28 28 29 29 31 32 34 35 36 38 40 41 42 43 44 45 45 46 47 48 50 52 53 54 55 56 56 57 58 59 60 60 61
19 20 20 20 20 20 21 22 26 25 25 26 26 26 27 27 28 28 28 29 30 32 33 35 36 37 39 41 43 44 45 45 46 48 50 52 54 55 55 56 58 58 59 59 60 61 62 63 62
19 20 21 22 22 21 22 21 26 28 27 27 27 27 27 28 28 28 29 30 31 32 33 35 36 38 39 41 43 45 46 47 48 51 52 54 55 56 57 58 60 61 61 62 62 63 64 64 64
21 22 23 24 24 23 23 22 24 29 29 30 29 29 29 29 30 30 31 32 32 33 34 36 37 39 41 42 44 46 47 49 51 53 54 55 56 57 59 60 61 63 63 64 64 64 65 65 65
23 24 25 26 26 26 24 24 24 28 30 33 33 32 31 31 31 32 32 32 33 34 35 37 38 40 42 44 46 47 49 51 53 54 55 56 57 58 60 61 63 64 64 65 65 65 66 65 65
24 26 28 29 29 29 28 27 25 29 31 33 35 35 34 32 31 32 33 34 35 36 37 39 40 42 44 45 47 49 51 53 54 56 57 58 60 60 61 63 64 64 65 66 66 66 66 65 64
25 27 28 30 30 30 29 27 27 29 32 35 36 37 35 32 31 33 34 36 37 38 39 41 42 44 46 47 49 51 53 54 55 57 58 60 61 61 63 64 64 65 65 66 66 66 65 65 64
27 28 29 31 32 34 32 30 29 29 31 34 36 36 33 32 33 34 35 37 38 40 41 42 44 46 47 49 51 53 54 55 56 57 59 60 61 63 64 64 64 64 65 66 66 66 64 64 63
28 30 31 32 34 35 34 33 31 31 32 33 34 35 34 34 34 35 36 37 39 40 41 43 45 47 49 50 52 53 55 56 57 58 60 61 62 64 65 65 65 64 64 65 65 64 64 64 64
28 29 31 32 33 35 35 31 30 31 31 32 33 34 35 34 35 36 38 39 41 42 43 45 46 48 49 51 53 54 55 57 58 59 60 61 62 63 63 64 64 64 64 65 64 64 65 65 64
30 29 30 31 32 33 34 31 30 32 34 35 35 35 36 36 37 39 41 43 44 45 46 47 48 49 50 51 52 53 55 56 57 58 58 59 59 60 61 62 62 63 63 63 63 64 64 64 63

GEFSSGP_500_meanwind_078.txt.gz
Wind_Speed
5 5 4 4 3 3 4 4 5 6 6 5 5 5 4 4 3 3 4 4 4 4 5 5 6 6 7 8 9 9 10 11 11 11 12 12 12 12 12 12 13 13 13 13 13 13 13 13 13
5 5 4 3 3 4 3 3 4 5 5 4 4 3 3 3 2 3 3 4 4 5 6 7 8 8 9 9 10 10 11 11 11 11 12 12 12 12 12 12 12 12 12 12 12 13 13 13 14
5 4 4 3 3 2 0 1 2 3 3 2 2 1 2 3 3 4 5 6 7 7 8 9 10 10 10 11 11 11 11 11 12 12 12 12 12 12 12 12 12 12 12 12 13 13 14 14 14
5 4 4 4 4 4 4 4 3 1 1 2 2 3 5 5 5 6 8 9 10 10 10 11 11 12 12 12 12 12 12 12 12 12 12 12 12 12 12 12 12 12 13 13 14 14 14 15 15
5 5 5 5 6 6 5 5 5 4 4 5 5 6 8 9 8 8 10 11 12 12 12 12 13 13 13 13 13 13 12 12 12 13 13 13 12 12 12 13 13 13 13 14 14 14 15 15 16
5 6 6 7 7 7 5 6 6 6 6 7 8 9 11 12 11 10 11 13 14 14 14 13 14 13 13 13 13 13 13 13 13 13 13 13 13 13 12 12 13 13 13 13 14 14 15 16 16
6 6 7 7 8 7 7 7 7 7 8 8 9 10 13 14 13 12 12 14 15 15 15 14 14 14 14 14 14 14 14 14 14 13 13 13 13 12 12 12 12 13 13 14 14 15 15 16 17
7 8 8 7 8 8 8 8 9 9 9 9 8 9 12 14 14 13 12 13 14 15 15 15 14 15 15 15 15 15 14 14 14 14 14 14 13 13 13 13 13 14 14 14 15 16 16 17 18
8 9 9 8 9 9 9 9 10 11 11 9 7 9 11 13 14 13 12 13 14 15 16 16 15 16 16 16 16 15 15 15 15 15 15 15 15 15 15 15 15 16 16 16 17 18 18 19 20
10 10 10 10 10 11 11 11 10 12 13 12 9 10 12 14 14 14 13 13 14 15 16 17 17 17 16 17 17 17 17 17 17 17 17 17 17 17 17 18 18 18 19 19 20 21 21 22 23
12 12 12 12 12 12 12 13 12 12 14 13 12 12 14 15 16 15 15 15 15 16 17 18 18 17 18 18 18 19 19 19 19 19 19 20 20 20 20 21 21 22 22 23 23 24 25 26 27
14 15 14 14 14 14 14 14 15 15 14 14 14 13 14 16 17 17 17 17 17 17 19 19 19 19 20 20 21 21 21 22 22 22 22 23 23 23 24 24 25 25 26 27 27 28 29 30 31
17 17 17 17 17 16 16 16 17 17 16 15 15 14 15 16 18 19 19 19 18 19 19 20 21 21 22 22 23 24 25 25 26 26 26 27 27 28 28 28 29 30 30 31 31 32 33 34 35
19 18 19 18 18 18 18 20 19 18 16 17 17 16 16 16 18 19 20 20 20 20 20 21 22 24 24 25 26 27 28 28 29 30 30 30 31 32 32 33 33 34 35 35 36 36 37 38 39
19 19 20 19 19 19 20 22 22 19 17 17 19 19 18 18 19 20 21 21 22 22 22 22 23 24 26 27 29 30 31 32 32 33 34 34 35 36 36 37 38 39 39 39 40 41 42 43 43
19 19 19 20 19 19 19 21 24 20 18 18 18 18 18 19 19 20 22 22 22 23 24 24 25 25 27 29 30 32 33 34 35 36 37 38 39 40 41 41 42 43 44 44 44 45 46 47 47
18 18 18 19 18 18 19 19 22 20 18 18 18 18 17 17 18 20 21 22 23 23 24 25 26 27 29 30 31 33 34 35 37 39 40 41 43 44 45 45 46 47 47 48 48 49 50 51 51
16 16 17 17 16 16 17 16 17 18 17 17 17 17 17 17 17 18 20 21 22 23 24 26 27 29 30 31 32 33 34 36 38 39 41 43 44 46 47 48 49 50 51 51 52 53 54 54 55
14 14 15 16 15 14 15 15 15 16 16 17 17 17 18 18 18 19 20 21 22 23 24 25 27 29 30 32 33 34 35 36 37 39 41 43 45 47 49 50 51 53 54 54 56 57 57 58 59
13 13 13 14 14 14 15 16 16 16 16 17 17 18 19 19 20 21 21 22 23 24 25 26 28 29 31 32 34 35 36 37 39 40 42 44 46 48 50 52 53 55 56 57 58 59 60 60 61
13 13 12 12 14 16 16 17 17 17 17 17 18 19 20 21 22 23 23 24 25 26 27 28 29 30 31 33 34 35 36 38 39 42 44 46 47 49 51 53 55 56 58 59 60 61 62 62 63
13 14 13 13 14 16 18 20 20 18 18 18 19 19 21 22 23 24 26 27 27 28 28 28 29 30 32 33 34 36 37 38 40 43 44 46 48 50 53 55 57 58 59 60 61 63 64 65 65
15 16 16 16 16 17 18 20 22 21 20 20 20 20 21 22 23 24 26 27 27 28 28 28 29 30 32 33 35 36 38 39 41 43 45 48 50 52 54 56 58 60 61 62 63 65 66 67 67
16 18 18 18 18 18 18 20 22 23 22 22 22 21 21 22 22 23 24 26 27 27 28 29 30 31 32 34 35 37 38 40 42 44 46 48 50 53 55 57 59 61 62 63 65 66 68 68 68
18 19 20 20 19 19 19 20 22 23 24 24 23 22 21 21 21 22 24 26 27 28 29 30 31 32 33 34 36 38 40 41 43 45 47 49 52 54 56 59 60 62 63 64 66 67 68 69 69
20 20 21 22 21 20 20 21 23 24 25 24 23 21 20 20 20 22 24 26 27 28 30 31 33 34 36 37 39 41 42 44 46 48 50 51 53 55 57 60 61 63 64 65 67 67 68 69 69
21 21 22 24 24 22 21 22 24 25 25 23 22 20 20 20 22 24 26 27 29 30 32 34 35 37 39 40 42 44 46 47 49 51 53 54 56 57 59 60 62 64 65 66 67 68 68 68 68
23 23 24 25 26 26 23 22 24 24 23 22 21 21 22 23 25 26 28 30 32 34 36 38 39 41 42 44 46 48 50 52 53 55 57 58 60 61 62 63 64 64 65 66 66 67 67 67 68
24 25 26 27 27 28 26 21 23 23 23 23 23 23 25 26 28 30 32 34 36 37 40 42 44 46 47 49 51 53 55 57 59 61 62 63 65 66 66 66 66 66 66 66 67 66 67 67 67
26 26 27 28 29 28 26 21 23 23 24 24 25 27 29 31 33 34 36 38 40 42 44 46 49 51 53 55 57 59 61 63 65 66 67 68 69 70 69 69 68 68 67 67 67 67 67 67 67

GEFSSGP_500_meanwind_084.txt.gz
Wind_Speed
8 8 8 7 7 5 4 3 1 1 3 4 5 6 6 6 7 7 7 7 7 7 8 8 8 9 9 10 10 11 11 12 12 12 12 12 12 11 11 11 11 11 11 12 12 12 13 14 14
7 7 7 7 6 5 4 3 2 0 2 3 4 5 5 6 6 6 7 7 7 7 8 8 9 10 10 11 11 12 12 12 12 12 12 12 12 12 12 12 11 11 11 11 12 12 12 13 13
6 6 6 5 4 3 3 2 1 1 2 3 4 5 6 6 6 7 7 8 9 9 10 10 11 11 12 12 13 13 13 13 13 13 13 12 12 12 12 12 12 12 12 12 12 12 12 13 13
5 5 5 4 3 2 2 2 2 3 4 5 6 7 7 7 8 9 9 10 11 11 12 12 13 13 14 14 14 14 14 14 14 14 13 13 13 13 13 13 13 12 12 12 13 13 13 13 14
5 5 5 4 3 3 3 3 3 5 6 7 8 9 10 9 10 11 12 13 13 13 14 14 15 15 15 15 16 15 15 15 15 14 14 14 14 14 14 13 13 13 13 13 13 14 14 14 14
5 5 5 5 4 4 4 4 5 6 7 8 9 11 12 11 11 12 13 14 14 15 15 16 16 17 17 17 17 17 16 16 16 15 15 15 15 15 14 14 14 14 14 14 14 14 14 14 14
6 6 6 6 6 5 5 6 6 7 7 8 9 11 12 11 12 13 14 15 16 16 16 17 17 18 18 18 18 18 18 18 17 17 16 16 16 15 15 15 15 15 15 15 15 15 15 15 15
8 8 8 8 8 7 7 7 7 8 9 8 9 10 12 13 13 14 15 16 16 17 17 18 18 19 19 19 19 19 19 19 19 18 18 17 17 17 17 17 17 17 17 17 17 17 17 17 18
11 11 10 10 10 10 9 9 9 10 10 9 8 10 12 14 15 15 15 16 16 17 18 18 19 20 20 20 20 20 20 20 20 20 19 19 19 19 19 19 19 19 19 19 20 20 20 20 21
14 14 13 12 11 12 12 12 12 11 12 10 9 11 13 15 16 16 16 16 17 18 18 19 20 20 21 21 21 21 21 21 21 21 21 21 21 21 21 22 22 22 22 23 23 23 23 24 24
17 17 16 16 14 14 14 14 14 13 13 12 12 13 14 16 17 17 18 18 19 19 20 21 21 21 21 22 22 23 23 23 24 24 24 24 24 24 24 25 25 26 26 26 27 27 27 28 28
19 20 19 19 18 17 17 17 16 15 14 14 14 15 16 17 18 18 18 19 20 21 21 21 22 22 23 23 24 25 25 26 26 26 27 27 27 28 28 28 29 29 30 30 31 31 32 32 32
20 21 21 21 20 20 19 19 19 18 17 17 17 17 18 18 19 19 19 20 20 21 22 22 22 23 24 25 26 27 28 28 29 29 30 30 31 31 32 32 33 34 34 35 35 36 36 37 37
21 22 22 22 21 21 21 22 21 19 18 19 18 19 19 20 20 21 21 21 21 22 23 23 24 24 25 26 27 28 29 30 31 32 32 33 34 35 36 36 37 38 39 40 40 40 41 42 42
21 22 23 22 22 21 22 23 21 19 18 19 20 20 20 20 21 21 21 21 21 22 23 24 25 25 26 27 28 29 30 31 32 33 34 35 36 37 38 39 40 42 43 43 44 44 45 46 47
22 22 23 23 22 21 21 23 21 18 17 18 19 20 20 20 21 21 21 21 22 22 23 24 25 26 27 28 29 29 30 31 32 34 35 36 38 39 40 41 42 44 45 46 47 48 48 49 50
22 22 23 23 21 20 20 21 21 17 16 18 19 19 20 20 20 21 21 21 22 22 23 23 24 25 26 27 28 29 30 32 33 34 36 37 38 40 41 42 43 45 46 47 48 49 50 51 52
22 21 22 22 19 18 18 19 19 17 17 18 19 19 20 21 21 22 22 23 23 24 24 25 25 26 27 28 28 29 30 32 33 34 36 38 39 40 42 43 44 46 47 48 50 51 52 53 54
21 21 20 20 18 17 16 16 17 18 18 18 19 20 21 22 23 23 24 25 25 26 27 27 28 28 28 29 29 30 30 32 33 35 36 38 39 40 42 42 44 46 47 48 50 52 53 54 56
20 19 19 18 17 16 16 16 17 17 18 19 21 22 23 24 25 26 27 27 28 29 29 29 29 29 30 30 30 30 31 32 34 35 36 38 39 40 42 43 45 47 48 50 51 53 54 55 57
19 18 18 18 18 17 16 16 17 18 19 21 23 24 25 26 27 28 29 29 30 30 30 30 30 29 29 29 29 30 30 32 33 35 36 38 39 41 42 44 46 47 49 51 52 54 56 57 59
19 18 18 18 19 18 18 18 18 19 21 23 24 26 27 27 28 29 29 30 30 30 29 29 29 28 28 28 29 30 30 32 33 35 36 38 40 41 43 45 47 49 50 52 54 56 58 60 61
19 19 19 19 20 19 20 21 20 21 22 24 25 27 27 28 28 29 29 30 29 29 28 28 27 27 27 28 29 30 32 33 34 36 38 39 41 43 45 47 49 51 53 54 56 59 61 63 64
21 21 21 21 21 20 21 22 22 21 23 25 26 26 27 28 28 29 29 29 29 28 27 26 26 27 28 29 30 31 33 34 36 38 39 41 43 46 48 50 52 54 56 58 60 62 64 66 67
22 22 23 22 21 21 22 23 23 23 24 25 26 27 28 28 29 29 29 28 27 27 27 26 27 28 29 31 32 34 35 37 39 41 42 45 47 49 52 54 56 58 60 62 64 66 68 70 71
24 24 25 25 23 22 23 24 24 24 25 26 27 28 29 29 29 28 28 28 27 27 28 29 30 31 32 34 36 38 39 41 43 46 48 50 52 54 56 59 61 64 66 68 70 72 74 75 76
25 25 26 27 26 25 25 24 25 25 27 28 29 29 29 29 28 28 28 28 28 29 31 32 33 35 36 38 40 42 44 46 48 50 53 55 58 60 62 65 67 69 72 74 76 78 79 81 81
27 27 27 27 29 29 26 25 26 27 28 29 30 30 29 29 29 29 29 29 31 33 34 36 37 39 40 42 44 47 49 51 54 56 58 61 63 66 68 71 73 75 77 79 81 82 83 84 84
28 28 29 30 31 31 30 27 28 30 31 31 31 31 30 30 31 31 32 33 35 37 38 39 41 43 45 47 49 52 54 57 59 61 64 66 69 71 74 76 79 81 83 84 85 85 85 85 85
31 30 30 31 32 33 33 31 30 32 32 33 33 32 32 32 33 34 35 37 39 40 42 44 45 47 50 52 54 57 59 62 64 66 69 72 74 76 79 81 83 85 86 87 86 86 85 85 84

GEFSSGP_500_meanwind_090.txt.gz
Wind_Speed
8 8 8 7 6 5 4 3 2 2 3 4 5 7 8 9 10 12 12 13 14 14 14 13 13 13 13 13 14 14 14 15 15 15 16 16 16 16 16 17 17 17 17 17 17 17 17 17 18
6 7 6 6 6 4 4 3 3 3 2 2 3 5 7 8 9 10 11 12 12 12 12 12 13 13 13 13 14 14 15 15 15 16 16 16 16 16 17 17 17 17 17 17 17 17 17 17 17
5 5 5 4 4 3 2 2 2 2 2 2 3 4 6 7 9 9 10 11 12 12 12 12 13 13 14 14 14 15 15 15 16 16 16 17 17 17 17 17 17 17 17 17 17 17 17 17 17
3 3 3 3 2 2 1 1 1 1 2 3 4 5 6 8 9 10 11 12 12 13 13 14 14 15 15 15 15 16 16 16 17 17 17 17 17 17 17 18 18 18 17 17 17 17 17 17 17
1 1 1 1 1 1 0 1 1 2 3 4 6 7 7 9 10 12 13 13 14 14 15 15 16 16 16 16 17 17 17 17 18 18 18 18 18 18 18 18 18 19 19 18 18 18 18 18 18
2 2 2 2 2 2 2 2 3 3 4 5 7 8 8 10 12 13 14 15 16 16 16 17 17 18 18 18 18 19 19 19 19 19 19 19 19 19 19 19 19 19 19 19 19 18 18 18 18
4 4 4 4 4 4 4 4 4 4 5 7 8 10 10 11 12 14 15 16 17 18 18 19 19 20 20 20 20 20 20 20 20 20 20 20 20 20 20 20 20 20 20 20 19 19 19 19 19
7 7 7 6 6 6 6 6 6 7 7 8 9 11 12 12 13 14 15 16 17 18 19 20 21 22 22 22 22 22 22 22 22 22 22 22 22 22 22 21 21 21 21 21 21 21 21 20 21
10 10 9 9 9 8 9 9 8 9 10 10 10 11 13 14 15 15 16 17 17 18 20 21 22 22 23 23 23 23 24 24 23 23 23 23 23 24 23 23 23 23 23 23 23 23 23 23 23
12 12 12 12 11 11 11 11 11 11 12 12 12 13 15 16 17 17 17 18 18 19 20 21 22 23 23 24 24 25 25 25 25 25 25 25 25 25 26 25 26 25 26 26 26 26 26 26 26
15 15 14 14 14 14 14 15 14 14 15 14 15 15 16 18 18 18 19 19 19 20 20 21 22 23 24 24 25 25 26 26 27 27 27 27 27 28 28 28 28 28 28 28 29 29 29 29 30
17 17 17 16 16 16 17 17 17 16 16 17 18 18 19 19 19 19 19 19 20 20 20 21 22 23 24 25 26 26 27 27 28 28 29 29 30 30 30 30 31 31 31 32 32 32 33 33 33
18 18 18 17 17 17 18 18 18 18 18 18 20 20 21 21 20 20 20 20 20 20 21 21 22 23 24 25 26 27 27 28 28 29 30 30 31 32 32 33 33 34 34 35 35 36 36 37 38
19 19 19 18 18 18 19 19 19 19 20 20 20 21 21 20 20 20 20 20 20 21 21 21 22 23 24 25 25 26 27 28 28 29 30 31 32 33 33 34 35 36 37 37 38 38 39 40 41
20 20 20 19 19 19 19 20 19 19 20 20 20 20 20 19 19 19 19 20 20 20 21 21 22 22 23 24 25 26 27 27 28 29 30 31 32 33 34 34 35 37 37 38 39 40 41 42 43
20 21 21 20 19 19 20 20 19 19 20 20 20 19 18 18 18 18 18 19 19 20 20 21 22 22 23 24 24 25 26 27 28 29 30 31 32 33 34 34 36 37 37 38 39 40 41 43 44
21 21 21 20 19 20 20 21 20 19 19 19 18 18 17 17 17 18 18 19 19 20 21 22 23 24 24 25 26 27 28 28 29 30 30 31 32 33 33 34 35 36 37 37 39 40 41 42 44
21 21 21 21 19 20 20 20 19 18 18 18 18 17 17 17 18 18 19 20 21 22 23 24 25 26 27 27 28 28 29 30 30 30 31 32 32 33 33 34 35 36 36 37 39 40 41 43 45
21 21 21 21 19 19 19 19 19 18 18 17 17 18 18 18 19 19 20 21 23 24 25 26 27 28 28 28 29 29 30 30 31 31 32 32 32 33 33 34 35 36 37 38 40 41 43 44 46
21 21 21 20 19 18 19 19 19 19 18 18 18 18 19 19 20 22 23 24 25 26 26 27 28 28 28 29 29 29 29 29 30 30 31 31 31 32 33 34 35 37 38 40 41 43 44 45 47
22 22 21 20 19 19 19 19 19 19 19 19 20 20 21 21 22 23 24 25 26 26 27 28 28 28 28 28 27 27 27 27 28 28 29 30 32 33 34 35 37 38 40 41 43 45 47 48 50
23 22 21 21 20 19 19 20 20 20 20 21 21 22 22 23 24 25 25 26 27 28 28 29 29 28 27 26 25 25 25 26 27 29 30 31 32 34 36 37 39 40 42 44 46 48 50 52 54
23 22 22 21 21 20 20 21 20 20 21 22 22 23 24 24 25 26 26 27 28 29 29 29 29 27 26 25 25 26 27 28 29 31 32 33 34 36 38 40 42 44 46 48 50 52 55 57 59
23 23 23 22 22 21 20 22 21 20 22 23 24 24 25 25 26 26 27 28 29 30 30 29 28 27 26 26 27 28 29 30 32 33 35 36 38 40 42 44 46 48 51 53 55 57 60 62 64
23 23 24 23 23 22 22 22 22 21 23 24 25 25 25 26 27 27 28 29 30 30 29 28 28 28 28 29 30 31 32 34 35 36 38 40 42 44 46 49 51 53 56 58 60 62 64 67 69
24 24 24 25 24 23 23 23 22 22 23 25 26 26 26 27 28 29 30 31 31 30 30 29 29 30 31 32 33 34 35 37 38 40 42 43 46 48 50 53 55 58 60 62 65 67 69 71 73
25 24 25 26 26 25 24 23 23 23 24 26 27 27 28 29 30 31 32 32 32 32 31 31 31 32 33 35 36 37 39 40 42 44 46 48 50 52 55 57 59 62 64 67 69 71 73 75 77
25 25 25 27 27 27 25 23 23 24 25 27 28 29 30 30 32 33 33 34 34 33 33 33 34 35 36 37 39 40 42 44 46 48 50 52 55 57 59 61 64 66 68 71 73 75 77 79 81
26 26 26 28 28 28 28 25 24 26 27 29 30 31 31 32 34 35 35 36 35 35 35 36 37 38 39 40 42 44 46 47 50 52 54 56 59 61 64 66 68 70 72 75 77 79 81 83 85
27 27 28 29 30 30 30 28 26 28 29 31 32 33 33 34 35 37 37 37 37 37 37 38 39 40 42 44 45 47 49 51 53 56 58 61 63 66 68 70 72 74 76 78 81 83 85 86 88

GEFSSGP_500_meanwind_096.txt.gz
Wind_Speed
5 5 4 4 4 3 2 1 2 3 4 5 7 8 9 9 9 9 10 11 11 12 13 14 15 15 16 16 16 17 17 17 17 18 18 18 18 18 18 18 18 18 18 19 19 19 19 19 19
4 4 4 3 2 2 3 1 1 2 2 3 5 6 7 7 7 8 9 9 10 11 12 13 14 15 15 16 17 17 17 17 18 18 18 18 18 18 18 18 18 19 19 19 19 19 19 19 19
2 2 2 2 2 2 2 1 1 2 2 3 4 5 6 6 6 7 8 8 9 10 12 13 14 14 15 16 16 17 17 18 18 18 18 18 18 18 18 18 19 18 18 18 18 18 18 19 19
0 0 1 1 1 2 1 1 1 3 3 4 5 5 5 6 6 7 8 9 10 11 12 13 14 15 15 16 17 17 18 18 18 18 18 18 18 18 18 18 18 18 18 18 18 18 19 19 19
2 2 1 1 1 1 1 2 3 4 5 5 6 6 5 7 7 8 10 10 11 12 13 14 15 15 16 17 18 18 18 19 19 20 20 19 19 19 19 18 18 18 18 18 19 19 19 19 19
5 4 4 3 3 3 3 4 4 5 6 7 7 8 6 8 9 10 11 12 12 13 14 16 16 17 18 19 19 20 20 20 20 21 20 20 20 20 20 19 19 19 19 19 19 19 20 19 19
7 7 6 6 5 6 6 6 7 7 8 9 9 10 7 8 11 11 13 14 14 15 16 17 18 19 20 20 21 21 21 22 22 22 22 22 21 21 21 21 21 20 20 20 20 20 20 20 20
10 9 8 8 8 9 9 8 9 10 11 11 11 12 10 11 12 13 14 15 16 17 17 19 19 20 21 22 22 22 23 23 23 23 23 23 23 23 23 23 23 22 22 22 22 21 21 21 21
12 12 12 11 11 11 11 11 12 12 13 13 14 14 14 14 14 15 16 16 17 18 19 19 21 21 22 22 23 23 23 23 24 24 24 25 24 24 25 25 24 24 24 24 24 23 23 23 24
15 15 15 14 14 13 13 14 14 14 15 16 16 16 16 17 17 18 18 18 19 19 20 20 21 22 22 23 23 24 24 24 25 25 26 26 26 26 26 26 26 26 26 26 26 26 26 26 26
17 17 17 16 16 16 16 16 16 16 17 17 18 18 18 19 20 20 20 20 20 21 21 21 21 22 23 23 24 24 25 25 26 26 26 27 27 27 27 28 28 28 28 28 28 28 29 29 29
19 19 18 18 17 17 17 18 18 17 18 19 20 20 20 21 21 21 21 21 21 22 22 22 22 22 22 23 23 24 24 25 25 26 26 27 27 28 28 28 29 30 30 30 30 31 31 32 32
20 20 19 19 18 19 19 19 19 19 19 20 21 21 22 22 21 21 22 22 22 22 22 22 22 22 22 23 23 23 23 24 25 26 26 27 27 28 28 29 29 30 31 31 32 33 33 34 35
22 21 21 20 20 20 20 20 20 20 20 21 21 21 22 22 21 21 21 22 21 21 21 21 22 22 22 22 23 23 24 24 25 26 26 27 27 28 28 29 30 30 31 32 32 34 35 36 37
23 22 22 22 21 21 22 21 20 20 21 21 21 21 21 21 21 21 21 20 20 20 20 21 21 21 22 22 23 24 24 25 26 26 27 28 28 28 29 29 30 31 32 32 33 34 35 36 37
25 24 24 23 23 22 23 22 21 21 22 22 22 21 21 20 20 20 20 20 20 20 20 20 21 21 22 23 24 25 26 27 28 28 29 29 29 30 30 30 31 32 32 33 34 35 36 36 37
26 25 25 25 23 23 23 23 21 21 22 22 21 20 20 20 20 20 19 19 19 19 19 20 21 22 24 25 26 27 28 29 29 30 30 30 31 31 31 31 31 32 32 33 33 34 35 36 37
27 26 25 26 24 23 24 23 22 20 21 21 20 20 19 19 19 19 19 19 19 20 20 21 23 24 25 26 28 29 29 30 30 30 31 31 31 31 31 31 32 32 32 33 34 35 36 36 38
27 26 25 26 25 24 23 23 22 20 20 20 20 19 19 19 19 19 19 19 20 21 22 23 24 25 26 27 28 29 29 30 30 30 30 30 30 30 30 30 31 31 32 33 34 35 35 36 38
27 26 26 27 26 24 24 23 22 20 20 20 20 19 19 19 19 19 19 20 21 22 23 24 25 25 26 27 28 29 30 30 30 29 29 29 29 29 29 30 31 31 32 33 35 36 36 37 39
27 26 26 26 26 25 25 23 22 20 20 20 20 20 20 20 19 20 20 21 22 23 24 25 26 26 27 28 29 29 30 29 29 28 28 28 29 29 30 31 31 32 33 34 36 37 38 40 42
27 26 26 26 27 26 26 25 21 20 21 21 21 21 20 20 21 21 22 23 24 25 25 26 27 27 29 30 30 30 30 29 29 29 29 30 30 31 32 33 34 35 36 38 39 41 42 44 45
27 27 27 27 28 27 25 27 23 20 20 22 22 22 21 22 22 23 23 24 25 26 26 27 28 29 30 31 31 31 30 30 30 31 31 32 33 33 35 36 37 38 40 41 43 45 47 49 50
28 28 28 28 29 27 23 28 25 21 20 22 23 23 23 23 23 24 24 25 26 27 28 29 30 31 32 33 33 33 32 32 32 33 34 35 36 37 38 39 40 42 44 46 47 49 51 53 55
28 28 28 28 28 28 25 27 26 23 22 23 23 23 23 24 24 25 25 27 27 28 29 30 31 33 34 34 35 34 34 34 35 36 36 37 39 40 41 42 44 46 48 50 52 53 55 57 59
29 29 28 29 28 28 26 25 24 23 24 24 24 24 24 25 26 26 27 28 29 30 31 32 33 35 35 36 36 36 36 37 37 38 39 40 41 43 44 46 48 50 52 54 55 57 59 60 62
30 29 28 29 28 28 27 26 24 22 25 25 25 25 26 27 27 28 29 30 31 32 33 34 36 36 37 38 38 38 38 39 39 40 41 43 45 46 48 50 51 53 55 57 58 60 62 64 65
31 29 28 29 28 29 28 26 25 21 23 26 26 27 27 28 28 29 30 31 33 34 36 37 38 38 39 39 39 40 40 41 42 43 44 46 48 49 51 52 54 55 57 59 61 63 65 67 68
30 28 28 29 29 29 29 28 26 23 24 26 28 29 29 29 30 31 32 34 35 37 38 39 40 40 40 40 41 41 42 43 44 45 46 48 50 51 53 55 56 58 60 62 64 66 68 70 71
30 29 29 30 29 30 30 29 26 26 26 28 29 30 30 31 32 33 34 36 37 39 40 41 42 42 42 42 43 43 44 45 46 47 49 51 52 54 55 57 59 61 63 65 67 69 70 72 74

GEFSSGP_500_meanwind_102.txt.gz
Wind_Speed
3 3 3 2 2 2 3 4 5 6 6 6 7 8 9 10 10 10 10 10 10 10 10 10 11 11 11 11 12 12 13 13 14 15 15 16 16 17 17 17 18 18 18 18 18 19 19 19 19
2 2 2 2 2 2 2 3 4 4 4 4 4 5 6 7 9 10 10 10 9 9 10 10 10 11 11 11 12 12 12 13 14 14 15 16 16 17 17 17 18 18 18 19 19 19 19 19 19
1 1 1 1 2 1 2 3 3 3 3 2 3 3 3 5 6 8 9 9 9 9 9 10 10 10 10 11 11 12 12 13 14 14 15 16 16 17 17 17 18 18 18 18 19 19 19 19 19
1 1 1 0 0 1 2 3 3 3 2 2 1 2 2 3 4 6 7 8 8 8 9 9 9 9 10 11 11 12 13 13 14 15 15 16 17 17 18 18 18 18 18 19 19 20 20 19 19
3 3 3 2 2 2 2 3 2 2 2 2 1 2 3 3 4 5 6 7 7 7 8 8 9 10 10 11 12 13 14 14 15 16 16 17 17 18 19 19 19 19 20 20 20 20 20 20 20
6 5 5 5 4 4 4 4 3 3 3 3 3 4 5 5 4 5 6 8 8 8 9 10 11 11 12 13 14 15 15 16 17 17 18 18 19 19 20 20 20 21 21 21 21 21 21 21 21
8 8 8 7 6 6 6 6 6 5 5 6 6 6 7 7 7 6 7 9 10 10 10 11 12 13 14 15 16 16 17 18 18 19 19 20 20 21 21 22 22 22 23 23 23 23 23 23 23
11 11 10 10 9 8 8 8 8 8 8 8 8 8 9 10 10 9 9 10 12 13 13 13 14 15 16 17 17 18 19 19 20 20 21 22 22 23 23 24 24 25 25 25 25 26 26 25 25
14 13 13 12 11 11 11 10 10 11 11 11 11 11 11 12 12 12 12 12 14 15 16 16 17 18 18 19 19 19 20 20 21 22 22 23 24 24 25 25 26 26 27 27 27 28 28 28 28
16 16 15 14 14 13 13 13 13 13 13 13 13 13 13 14 14 14 14 14 15 17 18 18 19 19 20 20 20 21 21 21 22 22 23 24 25 25 26 26 27 28 28 29 29 30 30 30 31
18 18 18 16 16 16 16 15 15 15 16 16 16 16 16 16 16 17 17 17 17 18 19 20 20 20 20 21 21 21 22 22 22 23 23 24 24 25 25 26 27 28 28 29 30 31 31 32 32
21 21 20 19 19 18 18 17 17 17 19 18 18 18 18 19 19 19 19 19 19 19 20 21 22 22 21 21 21 22 22 22 22 23 23 24 24 25 26 27 28 28 29 30 30 31 32 32 33
24 24 23 22 22 21 21 20 18 19 20 20 20 20 20 20 20 20 20 20 20 20 20 21 22 22 22 22 22 22 22 22 23 23 24 24 25 26 27 28 29 29 30 30 31 32 32 33 34
27 27 25 25 24 24 23 22 21 22 22 21 22 21 21 21 21 21 21 21 21 21 20 20 21 22 22 22 22 22 22 23 23 24 25 25 26 27 28 29 30 31 31 32 32 33 33 34 34
30 29 28 28 27 26 25 24 23 23 23 23 23 22 22 22 22 22 21 21 22 21 21 21 21 22 22 22 22 22 23 24 25 26 27 28 28 29 30 30 31 32 32 33 33 34 34 34 35
33 32 31 31 30 29 27 26 26 25 25 24 24 24 24 24 23 23 22 22 22 22 22 21 22 22 22 22 23 23 25 26 27 28 29 30 30 31 32 32 33 33 33 34 34 34 34 35 35
35 35 34 33 31 31 30 28 28 28 27 26 25 25 25 25 24 23 23 22 22 22 22 22 22 22 22 23 24 25 26 27 28 29 30 31 32 32 32 33 33 33 34 34 34 35 35 36 36
38 37 35 34 33 33 31 29 30 29 28 26 25 25 25 25 24 23 23 22 22 22 22 22 22 23 23 24 25 26 27 28 29 30 31 31 32 32 33 33 33 33 34 34 34 34 34 35 36
40 38 35 35 36 35 33 31 31 30 28 27 26 25 25 25 24 24 23 23 23 23 23 23 23 23 24 25 26 27 28 29 29 30 31 32 32 33 33 33 33 33 33 33 34 34 35 36 36
40 38 37 36 37 36 34 32 31 30 29 28 26 25 26 26 25 24 24 24 24 24 24 24 24 24 25 26 27 28 28 29 30 31 32 32 33 33 33 33 33 33 34 35 35 36 36 38 39
39 38 36 36 38 38 36 33 31 30 29 28 26 26 26 26 25 25 24 24 24 25 25 25 25 26 26 27 28 29 29 30 31 32 33 33 34 34 34 34 34 35 36 37 38 38 39 39 40
38 37 37 37 38 37 37 34 28 30 28 28 27 26 26 26 26 25 25 25 25 26 26 26 26 27 28 28 29 30 31 32 33 33 34 35 35 35 35 36 36 37 37 38 39 40 41 41 43
37 37 38 38 39 38 36 36 27 28 27 28 27 26 26 26 26 26 26 26 26 27 27 27 28 28 29 30 31 31 32 33 34 35 36 36 37 37 37 38 39 39 40 41 41 43 44 45 46
38 37 38 39 40 39 32 36 30 26 27 28 27 26 26 27 26 27 27 26 27 27 28 28 29 30 30 31 32 33 34 35 36 36 37 38 38 39 39 40 41 41 42 43 44 46 47 49 50
37 37 38 39 39 37 33 36 31 26 27 28 27 26 26 26 26 26 26 26 27 28 29 29 30 31 32 32 33 34 35 36 37 38 39 39 40 40 41 42 43 44 45 46 47 49 50 51 53
35 37 38 38 39 37 35 35 30 26 26 27 27 26 26 25 26 26 27 27 27 28 29 30 31 32 33 34 35 36 37 38 39 40 40 41 41 42 43 44 45 46 47 49 50 51 52 53 55
37 37 36 38 39 38 37 35 30 26 26 26 26 26 25 25 25 26 26 27 28 29 30 31 32 33 34 35 36 37 39 40 41 42 42 43 43 44 45 46 47 48 49 50 51 52 54 56 57
37 35 36 38 38 37 36 33 29 26 26 26 26 26 26 25 25 26 27 28 29 30 31 32 33 35 36 37 38 39 40 41 42 43 44 45 45 46 47 48 48 49 51 52 53 55 56 57 59
35 35 36 37 38 37 36 31 28 26 25 25 25 25 25 25 25 26 28 29 30 31 32 33 35 36 37 38 40 41 42 43 44 45 46 46 47 48 49 49 50 51 53 54 56 57 58 59 60
36 36 36 37 37 36 35 32 27 27 26 26 26 26 26 26 26 27 29 30 31 32 33 34 36 37 39 40 42 43 44 45 46 47 47 48 49 49 50 51 52 53 55 56 57 58 59 60 62

GEFSSGP_500_meanwind_108.txt.gz
Wind_Speed
1 2 2 3 3 5 6 6 8 8 8 8 9 11 12 13 13 13 13 13 12 13 13 13 13 13 13 14 14 14 14 14 15 15 15 15 15 16 16 16 17 17 18 18 19 20 20 21 22
1 1 2 2 3 3 4 4 5 6 7 8 8 8 9 11 12 13 13 12 12 12 12 13 13 13 13 14 14 15 15 15 15 15 15 16 16 16 17 17 18 18 19 19 20 20 21 22 22
1 1 2 2 2 3 3 3 3 4 5 6 7 7 8 8 9 11 12 12 12 12 12 13 13 13 13 13 14 15 15 15 15 15 15 16 16 17 17 18 18 19 19 19 20 21 21 22 23
2 1 1 1 2 2 2 2 1 3 4 4 5 6 6 6 7 8 9 11 11 12 12 13 13 13 14 14 14 14 15 15 15 16 16 16 17 18 18 19 19 20 20 21 21 22 22 23 24
4 3 2 1 1 1 1 1 1 2 3 4 5 5 6 6 6 6 7 9 10 11 11 12 12 13 13 14 14 14 15 16 16 17 17 18 19 19 20 20 21 21 22 23 23 23 24 24 25
7 6 4 3 3 3 3 3 3 4 5 6 6 6 6 7 7 7 8 9 10 10 11 12 12 13 13 14 14 15 16 17 17 18 19 19 20 21 21 22 22 23 23 24 24 25 25 25 26
9 8 7 6 6 5 4 5 5 6 6 7 8 8 9 9 9 9 10 10 11 11 12 12 13 14 15 15 16 16 17 18 19 19 20 21 22 22 23 23 24 24 25 25 26 26 26 27 27
13 11 10 9 9 8 7 7 7 7 8 9 10 10 11 11 12 12 12 12 12 13 13 14 15 15 16 16 17 17 18 19 20 20 21 22 23 23 24 24 25 25 26 26 27 28 28 29 29
16 14 13 12 11 11 10 10 9 9 9 10 11 11 11 12 13 14 14 15 15 15 16 16 17 17 18 18 19 19 20 20 21 21 22 23 23 24 24 25 25 26 27 27 28 28 29 30 30
19 17 16 15 14 14 13 13 12 12 12 12 12 12 12 13 14 15 16 17 17 18 18 19 19 20 20 20 21 21 21 21 22 22 22 23 23 24 24 25 25 26 27 27 28 29 30 31 31
22 20 20 18 17 17 16 15 15 14 14 15 14 14 14 15 16 17 18 19 20 20 20 20 21 21 21 22 22 22 22 22 23 23 23 23 23 24 24 25 26 27 27 28 29 30 31 31 32
25 24 24 22 21 20 19 18 18 17 17 17 16 16 17 17 18 19 20 21 22 22 22 22 22 22 22 23 23 23 23 23 23 23 23 23 24 24 25 25 26 27 28 29 30 31 31 32 32
28 27 27 26 25 24 23 22 20 20 21 20 19 19 19 20 20 21 22 23 23 24 24 24 23 23 23 23 24 23 23 23 23 23 23 24 24 25 26 27 28 29 30 31 32 32 33 33 34
31 30 30 29 28 27 26 24 23 23 24 22 22 21 21 21 22 22 23 24 25 25 26 26 25 25 24 25 25 24 24 24 24 24 24 25 26 26 28 29 30 31 31 32 33 33 34 35 35
35 34 32 32 32 31 30 26 26 27 26 25 24 24 24 24 24 24 24 25 26 26 27 27 26 26 26 26 25 25 24 24 24 25 25 26 27 28 29 31 32 32 33 34 34 35 35 36 36
38 37 34 34 36 34 33 28 30 29 28 28 27 26 26 26 26 26 27 27 27 28 28 28 28 27 27 26 26 25 25 25 26 26 27 28 29 30 31 32 33 34 34 35 35 35 36 36 36
40 38 37 37 38 37 36 31 32 32 31 30 30 29 29 29 29 29 29 29 29 29 29 29 29 28 28 27 26 26 26 26 27 27 28 29 30 31 32 33 34 34 35 35 35 35 36 36 37
39 40 40 40 40 40 39 35 34 35 33 32 32 32 31 31 31 31 30 30 30 30 30 30 29 29 28 28 27 27 27 28 28 29 30 31 31 32 33 34 34 35 35 36 36 36 37 37 37
44 44 43 40 42 44 43 40 36 37 36 34 34 34 33 33 33 32 32 31 31 31 31 30 30 30 29 29 29 29 29 29 30 31 32 32 33 33 34 35 35 36 36 37 37 37 38 38 38
44 45 44 42 43 46 45 43 38 38 39 37 36 35 35 35 34 33 33 32 32 32 31 31 31 31 30 30 30 30 30 31 32 32 33 34 34 34 35 36 37 37 38 38 38 38 39 39 40
43 42 41 42 44 48 49 45 39 38 39 38 36 36 36 36 36 35 34 33 33 32 32 32 31 31 31 31 31 32 32 32 33 34 34 35 35 36 37 37 38 38 39 39 40 40 40 41 42
41 40 41 42 44 46 48 48 37 36 38 37 36 36 36 36 36 35 34 34 33 33 32 32 32 32 32 32 32 33 33 34 34 35 36 36 37 38 39 39 39 40 40 40 41 42 42 43 44
40 40 42 43 45 46 44 47 39 34 35 36 37 36 36 36 36 35 34 34 33 33 33 33 33 34 34 34 34 34 35 35 36 36 37 37 38 39 40 40 41 41 42 43 43 44 44 45 45
40 41 42 43 44 46 41 44 42 33 33 35 36 37 36 36 35 34 34 33 33 34 34 34 34 35 35 35 35 35 36 36 36 37 38 39 40 41 41 42 43 43 44 44 45 46 46 46 47
40 39 41 42 43 44 40 42 41 34 33 34 35 35 35 34 34 34 34 33 33 34 34 35 35 35 36 36 36 36 36 37 38 39 40 41 41 42 43 43 44 45 45 46 46 47 48 48 49
38 39 40 41 42 41 41 41 37 34 32 32 33 34 34 34 34 34 34 34 34 34 35 35 36 36 36 37 37 37 37 38 39 40 41 42 43 43 44 45 45 46 47 47 48 48 49 50 50
39 40 39 42 43 43 42 39 34 31 30 31 32 33 33 34 34 34 34 34 34 34 34 35 35 36 36 37 37 38 38 39 41 42 43 43 43 44 45 46 47 47 48 48 49 49 50 51 51
41 40 41 43 44 44 41 37 32 28 29 31 31 32 33 33 34 34 33 33 34 34 34 35 35 36 36 37 38 39 40 41 42 43 44 44 45 46 47 48 48 49 49 50 50 51 51 52 53
41 41 42 43 44 43 41 36 31 28 28 28 30 31 32 33 33 33 33 33 33 33 33 34 35 36 36 38 39 40 41 42 43 44 45 46 47 48 48 49 49 50 51 51 52 52 53 54 55
42 42 42 42 42 41 41 37 31 29 29 29 29 31 31 32 32 32 33 32 32 32 33 34 35 36 38 39 40 41 42 43 44 45 46 47 48 49 49 50 50 51 52 53 53 54 55 55 56

GEFSSGP_500_meanwind_114.txt.gz
Wind_Speed
6 8 9 9 10 10 11 11 11 12 11 11 12 12 13 13 14 14 14 14 13 13 13 13 14 14 14 14 14 15 15 15 15 16 16 17 17 17 17 18 18 19 19 19 19 20 20 20 20
6 7 8 9 9 10 10 11 11 11 11 11 11 11 12 12 13 14 14 14 13 13 13 13 13 13 14 14 14 15 15 15 16 16 17 17 17 18 18 18 18 18 19 19 19 19 19 20 20
6 6 7 8 8 9 9 9 9 10 10 10 10 10 11 11 12 13 14 14 14 13 13 13 13 13 14 14 15 15 15 16 16 17 17 17 17 18 18 18 18 18 18 19 19 19 20 20 20
6 7 7 8 8 8 8 8 8 8 8 8 8 9 9 10 10 11 12 13 13 13 13 13 13 14 14 14 15 15 15 16 16 17 17 17 17 17 18 18 18 19 19 19 20 20 21 21 21
8 8 8 8 9 9 8 8 8 8 8 8 8 8 8 8 9 9 10 11 11 12 12 12 13 13 14 14 15 15 15 16 16 17 17 17 18 18 18 19 19 20 20 20 21 21 22 22 22
10 9 9 9 9 9 9 9 8 8 8 8 8 8 8 8 9 9 10 10 10 11 12 12 13 14 14 14 15 15 15 16 17 17 18 18 19 19 20 20 21 21 21 22 22 22 22 23 23
12 12 11 10 10 10 10 10 10 9 9 8 8 8 8 9 9 10 10 11 11 12 13 13 14 14 15 15 15 16 17 17 18 18 19 20 20 21 22 22 22 22 23 23 23 23 24 24 24
16 15 13 12 12 12 11 12 12 11 11 10 10 9 9 9 10 10 11 11 12 13 14 14 15 15 16 16 17 18 18 19 19 20 20 21 21 22 22 22 22 22 23 23 23 24 24 25 25
19 18 16 16 15 14 13 13 13 13 13 13 12 12 11 11 12 12 12 13 13 14 15 15 16 16 17 18 18 19 20 20 21 21 21 22 22 22 22 23 23 23 23 24 24 24 25 25 26
23 21 20 19 18 17 16 15 15 14 15 15 15 14 14 14 14 14 14 15 15 16 16 17 17 18 19 19 20 21 21 21 22 22 23 23 23 23 23 23 23 24 24 24 24 25 25 26 27
26 24 24 22 21 20 19 18 17 16 17 17 17 16 16 16 16 16 17 17 17 17 18 18 19 20 20 21 22 22 22 23 23 24 24 24 24 24 24 24 24 24 24 25 25 25 26 27 28
29 28 27 26 24 23 22 20 19 19 19 20 19 18 18 18 18 18 18 19 19 19 20 20 21 21 22 23 23 23 24 24 25 25 25 25 25 25 25 25 25 25 25 25 26 27 27 28 29
33 32 31 30 28 26 25 24 22 22 23 23 21 21 20 20 20 21 21 21 21 21 22 22 22 23 24 24 25 25 25 26 26 26 26 26 26 25 25 25 26 26 26 27 27 28 29 30 31
36 35 34 33 32 30 29 27 25 25 26 25 24 23 22 22 23 23 23 23 23 23 23 24 24 24 25 25 26 27 27 27 27 27 27 27 27 26 26 26 27 27 27 28 29 30 31 31 32
39 38 37 36 34 33 33 30 28 29 29 27 26 26 25 25 25 25 25 25 25 25 25 25 25 26 26 27 28 28 28 28 29 28 28 28 28 27 28 28 28 28 29 30 30 31 32 32 33
42 41 39 37 37 37 36 32 32 33 32 30 29 28 28 27 27 28 28 27 27 27 27 27 27 27 28 29 29 30 30 29 29 29 29 29 29 29 29 29 29 30 31 31 32 32 33 33 34
44 42 40 40 41 40 40 36 35 36 35 33 32 31 30 30 30 30 30 30 30 29 29 29 29 29 30 30 31 31 31 30 30 30 30 30 30 30 30 30 31 31 32 33 33 33 34 34 35
42 42 42 42 43 44 43 40 38 39 38 36 35 34 33 33 33 33 32 32 32 31 31 31 31 31 31 31 32 32 32 32 31 31 31 31 31 31 31 32 32 33 33 34 34 35 35 35 36
44 45 44 44 45 47 46 43 40 41 41 39 38 37 36 36 36 35 34 34 34 33 33 33 33 33 32 32 32 32 32 32 32 32 32 32 32 32 32 32 33 33 34 35 35 36 36 36 37
45 45 44 44 45 48 49 47 44 43 42 42 40 39 39 39 38 37 36 36 35 35 34 34 34 34 33 33 33 33 33 32 32 32 32 32 33 33 33 33 34 34 35 36 37 37 37 38 38
45 44 43 43 45 48 51 49 45 43 43 43 42 42 42 41 40 39 38 37 36 36 35 35 35 34 34 34 34 34 33 33 33 33 33 33 33 34 34 35 35 36 37 37 38 38 39 39 40
45 42 43 44 46 47 50 51 44 41 40 41 42 43 42 41 40 39 39 38 37 37 36 36 35 34 34 34 34 34 34 34 34 34 34 34 34 35 35 36 36 37 38 39 39 40 40 41 41
43 43 44 45 47 49 48 52 46 39 37 39 41 42 42 41 40 39 38 38 37 37 36 35 35 35 34 34 34 34 34 34 34 34 34 35 35 35 36 36 37 38 39 40 40 41 41 42 43
44 44 45 46 48 50 47 49 48 39 36 37 39 41 41 41 40 40 38 37 36 36 35 35 34 34 34 34 34 34 34 35 35 35 36 36 36 36 37 38 38 39 40 40 41 41 42 43 44
45 44 44 46 47 49 46 46 47 41 37 36 37 39 39 39 39 38 38 37 37 36 35 35 35 35 35 35 35 34 35 35 36 36 36 36 37 37 38 38 39 40 40 41 42 43 44 44 45
43 43 44 45 46 46 46 45 42 40 36 34 35 37 38 38 37 37 37 37 36 36 36 35 34 35 34 34 34 34 35 35 35 36 36 37 38 38 38 39 40 41 42 43 44 45 45 46 46
45 45 43 45 46 47 48 44 39 35 33 33 34 35 36 36 35 35 36 36 35 35 35 34 34 35 34 34 35 35 35 35 36 36 37 37 38 38 39 40 42 43 43 44 45 46 46 47 47
46 45 45 46 47 47 46 42 36 32 32 33 33 33 33 34 34 34 34 34 35 35 35 35 35 35 35 35 35 35 35 35 35 36 37 37 38 39 41 42 43 43 44 45 46 47 47 48 48
46 46 46 47 48 47 45 41 34 31 31 31 31 31 31 32 33 33 33 33 33 34 34 34 34 34 34 34 35 35 34 35 36 36 38 38 39 40 42 43 44 44 45 46 47 47 48 48 48
47 46 45 47 46 45 44 42 35 31 31 31 31 31 31 32 32 33 33 33 33 33 33 33 34 34 33 34 34 34 34 35 36 37 38 39 40 41 43 44 45 45 46 47 48 48 48 49 49

GEFSSGP_500_meanwind_120.txt.gz
Wind_Speed
10 11 12 14 15 15 15 15 15 16 16 16 15 16 17 16 15 15 15 16 15 14 14 14 14 14 13 13 13 12 12 12 12 12 12 12 13 13 14 15 15 16 16 17 17 17 17 17 17
10 11 12 13 14 14 15 15 16 15 16 15 15 16 17 16 14 15 15 16 16 15 15 14 14 13 13 13 12 12 12 12 12 12 13 13 13 14 15 15 16 16 16 17 17 17 17 18 18
11 12 13 13 13 14 15 16 16 16 15 15 15 16 15 14 13 14 14 15 15 14 14 14 13 13 12 12 12 12 12 12 13 13 13 13 14 14 15 15 16 16 16 17 17 17 18 18 19
13 13 13 13 14 15 15 15 15 15 15 15 15 15 14 13 12 13 13 13 14 13 13 13 13 12 12 12 12 12 13 13 13 13 13 13 14 14 15 15 16 16 17 18 18 19 19 20 20
15 14 14 14 14 15 16 15 14 14 15 15 14 13 12 12 12 12 12 12 13 13 13 12 12 12 12 11 12 12 12 13 13 13 13 14 14 15 16 16 17 17 18 19 19 20 21 21 22
16 16 15 15 15 16 16 15 14 14 15 15 14 13 11 11 11 11 11 11 11 11 12 12 12 12 12 12 12 13 13 13 14 14 14 15 15 16 17 17 18 19 19 20 21 21 22 22 23
19 18 17 17 17 17 17 16 15 15 15 15 15 14 12 12 12 11 11 11 11 11 11 11 12 12 12 13 14 14 14 14 15 15 16 16 17 17 18 19 19 20 21 21 22 22 23 23 24
23 21 20 19 18 18 18 17 17 17 16 16 16 15 12 12 13 12 12 12 12 12 12 12 13 13 14 14 15 15 15 15 16 17 17 18 18 19 20 20 21 21 22 23 23 23 24 25 25
26 24 22 21 21 20 19 19 19 18 18 17 17 15 14 14 14 14 13 13 13 13 13 14 14 14 15 15 16 16 16 16 17 18 18 19 20 20 21 21 22 22 23 24 24 25 25 26 26
29 26 25 26 25 23 22 20 20 21 20 20 19 17 16 16 15 15 15 14 14 15 15 15 15 15 16 16 16 17 17 18 18 19 20 20 21 22 22 22 23 24 24 25 25 25 26 26 27
32 29 29 29 27 26 24 23 23 22 22 22 21 20 19 18 17 17 17 16 16 16 17 17 17 17 17 18 18 18 19 19 20 21 21 22 22 23 23 24 24 25 25 26 26 27 27 28 28
36 34 33 33 31 29 28 27 26 25 24 25 24 22 21 20 20 19 19 19 19 19 19 19 19 19 19 20 20 20 21 21 22 22 23 24 24 25 25 26 26 26 27 27 28 28 28 29 29
40 37 37 36 35 33 31 30 29 27 27 26 25 24 23 23 22 22 22 22 21 21 21 21 21 21 21 22 22 22 23 23 24 24 25 26 26 27 27 27 27 28 28 28 29 29 29 30 31
42 41 40 39 38 36 35 33 32 30 30 29 28 26 25 25 25 24 24 24 24 23 24 24 23 23 23 24 24 24 25 25 26 26 27 27 28 28 28 28 28 29 29 29 30 30 31 31 32
45 44 43 42 40 39 39 37 34 33 33 32 31 30 28 27 27 26 26 26 26 26 26 25 25 25 26 26 26 26 27 27 28 28 29 29 30 30 30 30 30 30 31 31 31 32 32 33 33
47 47 46 43 43 42 43 39 36 37 37 35 34 33 32 31 30 29 29 29 29 28 28 28 28 28 28 28 29 29 29 29 30 30 31 31 31 31 31 31 31 31 32 32 33 33 34 34 34
49 48 47 45 45 44 45 42 39 40 40 38 37 36 35 34 33 32 32 32 31 31 30 30 30 31 31 31 31 31 31 31 32 32 32 32 32 32 32 32 32 33 33 34 34 34 35 35 35
47 47 46 46 46 47 48 45 43 43 43 41 40 39 38 36 35 35 35 34 34 34 33 33 33 33 34 34 34 34 34 34 34 33 33 33 33 33 33 33 34 34 34 34 35 35 35 36 36
46 47 47 47 48 50 50 48 46 46 46 44 42 41 40 38 38 38 38 37 36 36 36 35 35 35 36 36 36 36 36 36 35 35 35 34 34 33 34 34 34 34 35 35 35 36 36 37 37
48 48 47 47 48 50 50 50 48 47 47 46 44 43 42 41 41 41 40 39 38 38 38 38 38 38 38 38 38 38 38 37 36 36 35 35 34 34 35 35 35 35 35 35 36 37 37 37 37
48 48 47 46 47 50 52 52 50 49 48 47 46 45 44 43 43 43 42 41 41 40 41 41 41 40 40 40 40 39 38 38 37 36 36 35 35 35 35 35 35 35 36 36 37 37 37 38 38
49 46 46 46 48 49 51 55 51 50 48 48 47 45 45 45 45 44 44 43 42 42 43 43 42 42 41 41 40 39 39 38 37 37 36 35 35 35 35 35 35 35 36 37 37 38 38 39 39
47 45 46 46 48 50 50 55 53 50 48 47 46 45 45 45 45 44 44 43 42 42 43 43 43 42 41 41 40 40 39 38 38 37 36 36 35 35 36 36 36 36 37 37 38 39 39 40 40
46 46 47 48 50 54 50 52 55 48 46 43 43 43 44 45 44 44 44 43 43 42 42 43 42 42 41 41 40 40 39 39 38 37 36 36 36 36 36 36 36 37 37 38 39 40 40 41 41
49 48 48 50 52 54 49 51 54 48 44 42 42 43 43 44 44 44 44 43 43 42 42 42 42 42 41 41 40 40 39 39 38 37 37 37 36 36 37 37 37 37 38 39 39 40 41 42 42
49 50 50 51 51 50 48 51 49 47 44 42 41 42 42 43 44 43 43 43 42 42 42 42 42 41 41 41 40 40 39 39 38 37 37 37 37 37 37 37 37 38 38 39 40 41 42 43 43
50 50 47 48 49 50 51 50 47 44 42 40 39 39 40 41 42 42 42 42 41 41 41 40 40 40 40 40 40 39 39 39 38 38 38 37 37 37 37 38 38 38 39 40 41 42 43 44 44
50 48 48 49 50 51 51 49 47 43 41 39 37 37 38 39 40 40 41 41 41 40 40 40 39 39 38 39 39 39 39 38 38 38 37 37 37 37 38 38 38 39 40 40 41 42 44 44 44
51 52 51 51 51 50 50 48 44 42 40 38 36 36 36 36 37 38 38 38 39 39 39 39 38 38 38 38 38 38 38 38 38 38 37 37 37 37 37 38 39 40 40 41 42 43 44 44 45
48 49 50 51 51 50 49 47 42 42 40 37 35 34 34 34 35 35 36 36 37 37 37 37 37 37 37 37 37 37 37 37 37 37 37 37 37 37 38 39 39 40 41 42 43 44 44 45 46

GEFSSGP_500_meanwind_126.txt.gz
Wind_Speed
13 14 16 18 20 21 21 21 21 21 20 19 20 20 19 18 17 18 18 18 17 16 16 15 14 14 13 12 12 11 11 10 10 10 10 11 11 12 12 13 14 14 14 15 15 15 16 16 16
14 15 16 18 18 19 20 21 21 21 20 20 20 19 19 18 18 18 18 18 18 18 17 16 15 14 13 13 12 12 11 11 11 11 11 12 13 13 13 14 14 14 15 15 16 16 16 16 16
16 16 17 17 18 18 20 21 21 21 20 20 20 19 19 18 18 18 18 18 18 18 18 17 16 15 13 13 12 12 11 11 11 12 12 13 13 13 13 13 14 14 15 15 16 16 16 17 17
18 18 18 18 17 19 21 22 21 21 21 21 20 19 19 18 18 18 18 17 17 18 18 17 15 14 13 13 12 12 12 12 12 12 12 13 13 13 13 13 14 15 15 16 16 17 17 18 18
21 20 19 18 19 21 22 22 22 22 21 21 21 20 20 19 18 18 18 17 17 17 17 16 15 14 13 13 12 12 12 12 12 12 12 12 12 13 14 14 15 16 16 17 17 18 18 19 20
24 22 20 19 20 21 22 22 22 22 21 21 21 20 19 18 18 18 17 17 16 16 16 15 15 14 13 12 12 11 11 11 11 12 12 13 14 14 15 16 16 17 17 18 19 19 20 20 21
26 25 22 22 22 21 21 22 22 22 21 21 21 20 19 18 17 17 17 16 16 15 15 14 14 13 12 12 12 12 12 12 12 13 14 15 15 16 16 17 18 18 19 19 20 21 21 22 22
30 28 25 24 24 22 22 22 22 22 21 21 20 19 19 18 17 16 16 15 15 15 14 14 13 13 13 12 12 12 13 13 14 15 15 16 16 17 17 18 19 19 20 20 21 22 22 23 23
33 30 27 26 26 25 25 23 22 22 22 21 19 19 19 18 17 16 15 15 15 15 14 14 14 13 13 13 13 13 14 14 15 15 15 16 16 17 18 19 20 20 21 21 22 23 24 24 24
36 32 28 29 29 28 27 25 23 23 22 21 20 19 19 19 18 17 16 15 15 15 15 14 14 14 13 13 13 14 14 15 15 16 16 17 18 18 19 20 21 22 22 23 24 24 25 25 25
39 34 33 33 32 31 29 27 25 24 23 22 21 21 21 20 19 17 17 16 16 16 15 15 14 14 14 14 14 15 15 15 16 17 18 19 19 20 21 22 23 24 24 25 25 26 26 26 27
42 38 37 36 36 34 32 29 28 26 24 24 23 23 22 21 20 19 19 18 17 17 16 15 15 15 15 15 15 15 16 16 17 18 19 20 21 22 23 24 25 25 26 26 27 27 28 28 28
45 41 41 39 39 37 35 33 30 28 28 27 25 24 24 23 22 21 20 19 19 18 17 17 16 16 16 16 16 17 17 18 19 19 21 22 23 24 25 26 26 27 28 28 29 29 29 29 30
47 45 44 43 42 41 39 36 34 31 31 30 28 26 26 25 24 23 22 21 20 20 19 18 18 18 18 18 18 19 19 20 21 21 22 24 25 26 27 28 28 29 30 30 30 30 31 31 31
49 49 48 47 46 43 42 41 37 33 34 33 31 29 28 27 26 25 25 23 23 22 21 21 20 20 20 21 21 21 22 22 23 23 24 26 27 28 29 30 30 31 31 31 32 32 32 32 33
52 52 51 49 48 46 46 42 38 37 38 36 34 32 31 29 28 27 27 26 25 25 24 23 23 23 23 23 23 24 24 25 25 26 27 28 29 30 31 31 32 32 32 33 33 33 33 34 34
55 54 52 50 50 49 50 45 40 41 41 39 37 36 34 32 31 29 29 28 28 27 26 26 25 25 25 26 26 26 26 27 28 29 29 30 31 32 32 33 33 34 34 34 34 34 34 34 34
55 54 52 50 48 50 51 48 44 45 44 42 41 39 37 35 33 33 32 31 30 30 29 28 28 28 28 28 28 28 29 29 30 31 31 32 33 33 34 34 34 35 35 34 34 34 35 35 35
52 52 52 49 48 51 53 52 49 49 49 46 44 42 40 38 37 37 35 34 33 32 31 30 30 30 30 30 30 30 31 32 32 33 33 34 35 35 35 35 35 35 35 35 35 35 35 35 36
52 53 52 51 50 53 54 53 52 51 51 48 47 45 43 41 40 39 38 37 36 35 34 33 33 32 32 32 33 33 33 33 34 34 35 36 36 36 36 36 36 36 36 36 36 36 36 36 36
54 53 51 50 50 52 54 55 53 52 52 50 48 47 45 44 42 42 41 40 39 38 37 36 36 35 35 35 35 35 35 35 35 35 36 36 36 36 37 37 37 37 36 36 36 36 36 36 37
54 49 49 50 51 52 54 57 54 52 52 51 49 48 46 45 44 44 43 42 41 40 39 39 38 38 37 37 37 37 36 36 36 37 38 38 37 37 37 38 38 38 37 37 36 36 37 37 37
51 47 48 49 51 53 54 58 57 52 52 50 49 48 47 46 45 45 44 44 43 42 41 40 40 39 38 38 38 38 38 38 39 39 39 38 38 38 38 38 38 38 37 37 37 38 38 38 38
49 48 49 50 52 56 54 57 60 53 50 47 46 46 46 46 46 46 45 45 44 43 43 42 41 40 39 39 39 39 39 38 39 39 39 39 39 39 38 39 39 38 38 38 38 38 38 39 39
53 52 52 53 55 57 52 56 60 52 47 45 44 44 45 45 45 45 45 44 43 43 42 42 42 41 41 40 40 39 39 40 39 39 39 39 39 38 39 39 39 38 38 39 39 39 38 39 39
55 55 56 55 55 54 53 55 55 49 45 44 43 43 43 43 43 43 43 43 43 43 42 42 41 41 41 40 40 40 40 40 40 40 39 39 39 39 40 39 39 39 39 39 39 38 39 40 40
56 55 52 53 54 54 54 52 49 47 44 42 41 41 42 42 42 42 42 42 42 42 42 42 41 41 41 40 40 40 40 40 40 40 40 40 40 40 40 40 39 39 39 39 39 39 40 40 41
56 53 53 54 54 54 53 51 47 43 40 39 38 38 39 40 41 41 41 41 41 41 41 41 41 41 41 40 40 40 40 40 40 40 39 39 40 40 40 40 39 39 39 39 39 40 40 40 41
56 56 55 54 54 53 52 49 42 39 38 37 36 36 36 37 37 38 39 40 40 40 40 40 40 40 40 40 40 40 39 39 40 39 39 40 40 40 40 39 39 39 39 39 40 40 40 41 42
55 56 56 55 54 53 51 47 41 39 38 36 35 35 35 35 35 36 37 37 38 39 39 39 39 39 39 39 39 39 39 39 39 39 39 39 39 39 39 39 39 39 39 40 40 41 41 42 42

GEFSSGP_500_meanwind_132.txt.gz
Wind_Speed
20 20 22 25 26 26 25 24 24 25 25 25 25 25 24 24 24 24 23 22 20 19 18 17 17 16 15 14 13 13 12 11 10 10 9 9 8 9 9 10 10 11 12 12 13 13 14 14 15
22 22 23 24 25 23 23 24 25 26 27 26 26 25 25 25 24 24 24 23 22 20 19 18 17 17 16 15 14 13 12 12 11 10 10 9 9 10 11 11 11 11 12 12 13 13 14 14 15
24 24 24 24 23 20 21 25 27 28 28 27 26 25 25 25 24 24 24 24 22 21 21 20 19 18 17 16 15 14 13 12 12 11 11 11 11 11 11 11 11 11 12 12 13 14 14 15 15
27 27 26 24 20 20 23 26 28 28 27 27 26 26 25 25 24 24 24 24 23 22 21 21 20 19 17 16 16 15 14 13 13 12 11 11 11 10 10 10 11 11 12 13 14 14 15 16 16
30 30 28 24 21 22 24 27 28 28 27 27 26 26 25 25 24 23 24 23 23 22 21 21 20 19 18 17 16 15 15 14 13 12 11 11 10 10 10 11 11 12 13 14 15 15 16 17 18
34 32 30 25 23 24 26 27 28 28 27 27 27 26 25 24 24 23 23 23 22 21 21 20 20 19 18 17 16 16 15 14 13 12 11 11 11 11 11 12 13 14 14 15 16 16 17 18 19
36 35 32 28 27 26 26 27 27 27 28 28 27 27 26 25 24 23 23 22 22 22 21 21 20 19 19 18 17 16 15 14 13 12 12 12 12 12 13 13 14 15 15 16 16 17 18 19 20
40 38 35 30 28 28 29 28 27 28 28 28 29 28 27 26 25 24 23 22 22 22 22 21 20 20 19 19 17 16 15 14 13 13 13 13 13 13 14 14 15 15 16 16 17 18 19 20 21
43 42 37 31 30 30 31 30 29 28 28 28 28 28 27 27 26 25 24 23 22 22 22 22 21 20 19 18 17 16 15 14 14 13 13 13 14 14 14 15 15 16 16 17 18 19 21 22 22
47 45 37 33 33 33 34 33 31 29 28 27 27 27 27 27 26 25 24 23 22 22 22 22 21 20 19 18 17 16 15 14 14 14 14 14 14 15 15 15 16 17 18 19 20 21 23 24 24
49 45 39 37 36 37 37 36 33 31 29 27 27 27 27 27 26 25 24 23 22 22 21 21 20 20 19 18 17 16 16 15 15 15 15 15 15 15 15 16 17 18 19 21 22 23 24 25 26
50 46 42 40 40 40 39 38 36 33 30 29 29 28 27 26 26 25 24 24 23 22 22 21 20 20 19 18 18 17 17 16 16 16 15 15 16 16 17 18 18 20 21 23 24 25 26 27 27
53 48 46 44 45 44 43 41 38 36 33 31 30 28 27 27 27 26 25 25 23 23 22 21 21 20 20 19 19 18 17 17 17 16 16 16 17 18 19 20 21 22 23 25 26 26 27 28 29
54 51 50 49 48 48 46 44 42 37 35 33 31 30 28 28 28 27 27 26 25 24 24 23 22 21 21 20 20 19 18 18 18 18 18 18 19 20 21 22 23 24 25 26 27 28 29 29 30
56 55 54 52 51 50 50 48 44 39 38 36 33 32 30 30 29 29 28 28 27 26 25 24 23 22 22 21 21 20 20 20 19 19 20 20 21 22 23 24 25 26 27 28 29 29 30 30 31
58 58 57 54 53 52 53 50 44 42 40 38 36 34 32 31 31 31 30 30 29 28 27 26 25 24 24 23 22 22 21 21 21 21 22 22 23 24 25 26 27 28 29 29 30 31 31 32 32
62 60 58 55 55 54 56 51 45 44 43 40 38 37 35 34 33 32 32 32 31 30 29 28 27 26 26 25 24 24 23 23 23 23 24 25 25 26 27 28 29 29 30 31 31 32 33 33 33
61 60 57 56 55 55 57 54 48 46 46 43 42 40 38 37 35 34 34 33 33 33 32 30 29 28 28 27 26 26 26 25 25 25 26 27 27 28 29 30 30 30 31 32 32 33 34 34 34
58 59 58 56 55 57 57 56 52 49 49 47 45 43 42 40 38 38 36 35 35 34 33 32 31 30 30 29 29 29 29 29 28 28 28 29 30 31 31 31 31 32 32 33 33 34 35 35 35
60 60 59 56 56 58 58 57 54 53 53 50 48 46 44 42 41 40 39 37 36 35 34 34 33 33 32 32 32 32 32 31 30 30 31 31 32 32 32 33 33 34 34 34 35 35 35 36 36
63 61 57 56 56 58 60 61 58 55 55 54 52 49 47 45 43 42 41 40 39 37 36 35 35 35 34 35 35 35 34 33 32 33 33 34 34 34 34 35 35 35 35 36 36 36 36 36 37
62 58 56 56 57 58 60 63 60 57 56 55 53 51 49 47 45 44 43 42 40 39 39 38 37 37 37 37 37 36 35 35 35 36 36 36 35 35 36 36 36 37 37 36 36 37 37 37 38
58 56 56 56 57 59 60 64 63 59 58 56 54 52 50 48 47 46 45 44 43 42 41 40 40 40 39 39 38 38 37 37 37 38 38 38 37 37 37 38 38 38 38 37 37 37 37 38 38
57 56 56 57 58 62 60 63 65 60 57 54 53 51 50 49 48 47 46 46 45 44 43 43 42 41 40 40 39 39 39 39 39 39 39 39 39 39 39 39 39 39 39 38 38 38 38 38 39
60 58 57 57 59 62 59 63 66 58 54 53 52 51 50 49 49 49 48 47 46 46 45 44 43 42 42 42 41 41 40 41 41 40 41 41 40 40 40 40 40 39 39 39 38 38 38 39 39
61 60 61 59 60 59 60 64 63 56 52 51 50 50 49 49 49 49 49 48 47 47 46 45 44 43 43 42 42 41 41 42 42 42 42 42 41 41 42 41 40 40 40 40 39 39 40 40 41
61 61 59 59 59 60 61 60 60 56 52 49 48 47 48 48 48 48 47 47 47 47 47 46 45 44 43 43 43 43 42 43 43 43 43 43 42 42 42 41 41 41 41 40 39 40 41 41 41
60 59 59 60 60 60 61 59 56 53 49 46 45 45 45 47 47 47 46 46 46 46 46 47 46 45 45 44 44 44 44 44 44 44 43 43 43 43 42 42 42 41 40 40 40 40 41 41 42
60 61 61 60 61 61 61 59 51 48 45 43 43 43 44 45 45 46 46 46 46 46 45 46 46 46 46 45 45 45 44 44 44 44 43 43 43 43 42 42 41 41 40 40 40 40 41 42 42
60 59 60 61 61 61 59 56 50 46 44 42 41 41 42 42 43 44 45 46 46 46 45 45 45 45 45 45 45 45 44 44 43 43 43 43 43 43 42 42 41 40 40 40 40 41 41 42 42

GEFSSGP_500_meanwind_138.txt.gz
Wind_Speed
27 27 28 30 31 31 28 26 25 27 28 28 29 29 28 28 27 28 26 24 23 22 22 21 20 19 18 17 16 16 15 14 13 12 11 10 9 9 8 8 7 7 7 7 7 7 7 8 9
30 30 31 32 32 29 27 26 28 29 30 30 30 29 29 29 29 28 27 26 25 23 22 21 21 20 19 18 17 16 15 14 13 12 11 11 10 10 9 9 8 8 7 7 7 8 8 9 10
33 33 33 33 31 27 25 27 30 31 32 31 30 30 30 30 29 29 28 27 26 25 24 22 21 20 20 19 18 17 16 15 14 13 12 11 11 10 10 9 9 8 8 7 8 8 9 10 10
36 36 36 35 30 27 27 29 31 32 32 32 31 31 30 29 30 29 29 28 27 26 25 23 22 21 21 20 19 18 17 16 15 14 13 12 12 11 10 9 9 8 8 8 9 9 10 11 12
40 40 38 35 30 28 29 30 32 33 33 33 33 32 31 30 30 30 29 29 28 27 26 25 24 23 22 21 20 19 18 17 15 14 14 13 12 11 10 10 9 8 9 9 10 10 11 12 13
43 43 41 36 31 30 30 32 33 33 33 34 34 33 32 31 31 30 30 29 29 28 27 26 25 24 23 22 21 20 19 18 17 16 15 14 13 12 11 10 10 10 10 10 11 11 12 12 13
45 45 43 38 35 33 32 33 34 33 33 34 34 34 32 32 32 31 30 30 29 28 28 27 26 24 23 23 22 21 20 19 18 17 16 15 13 12 12 11 11 10 10 11 11 12 12 13 14
47 47 45 41 37 34 34 35 35 34 34 34 35 34 33 33 32 31 31 30 30 29 28 27 26 25 24 24 23 22 20 19 18 17 16 15 14 13 12 12 11 11 11 12 12 13 14 15 16
50 51 47 42 38 36 36 37 37 36 35 35 35 34 34 34 33 32 31 31 30 30 29 28 27 26 25 25 23 22 21 20 19 18 16 16 14 13 13 12 12 12 13 13 13 14 15 16 17
52 52 47 42 40 39 40 40 39 38 37 35 34 34 34 34 34 33 32 31 31 30 30 29 28 27 26 25 24 23 22 21 20 18 17 16 16 15 14 14 13 13 14 14 14 15 16 18 19
54 52 47 44 43 43 43 43 42 40 38 36 34 34 35 35 35 34 33 33 32 31 30 29 28 28 27 26 25 24 23 21 20 19 18 17 17 16 15 15 15 14 15 15 16 17 18 19 21
56 53 49 47 46 45 45 46 46 43 40 38 38 37 36 36 35 35 35 34 33 32 31 30 29 29 28 27 26 25 23 22 21 20 19 18 18 17 16 16 16 16 16 17 17 18 19 21 22
58 54 52 49 48 48 48 48 48 46 43 42 40 39 37 36 36 36 36 36 34 33 31 30 30 30 29 28 26 25 24 23 22 21 20 19 19 18 17 17 17 17 18 18 19 20 21 22 23
59 57 55 53 52 51 52 51 51 48 45 44 42 40 39 37 37 37 37 36 35 33 32 31 31 30 29 28 27 26 25 24 23 22 21 20 20 19 18 18 18 18 19 20 21 22 23 24 25
61 61 59 57 54 53 55 55 53 48 47 45 44 42 41 39 38 37 37 36 36 35 33 32 31 31 30 29 28 27 26 25 24 23 22 22 21 20 20 19 19 20 21 22 23 24 25 25 26
63 64 63 59 57 56 58 57 53 50 50 47 45 44 42 40 39 38 38 37 37 36 34 33 32 32 31 30 29 28 27 26 25 24 23 23 22 21 21 21 21 22 23 24 25 25 26 27 28
65 65 64 60 58 58 59 57 53 53 52 50 47 45 44 42 40 39 39 38 38 37 36 34 34 33 32 31 30 29 28 27 26 26 25 24 23 23 23 23 23 23 24 25 26 27 28 28 29
65 65 64 62 60 60 61 59 55 54 54 52 50 48 46 44 42 41 40 39 39 39 37 36 35 35 34 33 31 30 29 28 27 27 26 25 25 25 25 25 25 25 26 27 27 28 29 30 31
63 64 64 62 61 61 62 61 57 56 56 55 53 51 48 45 44 44 43 42 41 40 39 38 37 36 35 33 32 31 30 30 29 28 27 27 27 27 27 27 27 27 28 28 29 30 30 31 32
64 65 64 63 62 63 63 63 61 59 58 56 55 53 51 48 47 46 45 45 44 42 41 40 39 38 36 35 34 34 33 32 31 29 29 29 29 29 29 28 28 29 30 31 31 32 32 33 33
64 63 63 62 61 62 64 65 64 61 60 59 57 55 53 51 50 49 47 46 46 44 43 41 40 39 38 37 37 36 34 33 31 31 31 31 31 30 30 30 31 32 32 33 33 33 33 34 34
62 60 60 61 61 62 64 66 65 63 62 60 59 57 55 53 52 51 50 48 47 45 44 43 42 41 40 39 38 37 35 33 33 34 34 33 33 33 33 33 33 33 34 34 34 35 35 35 35
59 58 58 59 61 63 64 66 66 64 64 61 59 58 56 54 53 52 51 49 48 47 46 45 44 43 42 41 39 38 37 36 36 36 35 35 35 36 36 35 35 35 36 36 36 36 36 36 37
56 57 58 58 59 64 65 65 67 65 62 60 59 57 56 55 54 53 52 51 49 49 48 47 45 44 43 42 41 40 38 38 38 38 38 38 38 37 37 37 37 37 37 38 38 38 38 38 38
57 55 56 57 59 63 63 65 68 63 60 59 58 57 56 55 55 54 52 52 51 50 49 48 47 46 45 44 42 41 40 40 40 40 39 39 39 38 38 39 39 39 39 39 39 39 39 39 38
57 58 57 56 57 58 61 65 66 62 58 57 57 57 56 56 56 55 53 52 51 51 50 49 48 47 46 45 43 42 41 41 41 40 40 40 40 40 40 40 40 40 40 40 40 39 39 39 39
53 58 56 54 54 54 58 62 63 62 58 56 56 56 56 56 56 55 55 54 52 51 51 50 49 48 47 46 45 44 43 42 41 41 41 41 40 40 41 41 41 41 42 41 41 40 40 39 39
50 53 57 57 55 53 53 58 62 60 57 56 55 55 55 55 55 55 55 55 54 53 52 51 50 49 48 47 46 45 44 43 43 43 42 41 41 42 42 42 42 42 42 42 41 40 40 40 39
49 52 56 57 59 56 53 54 56 55 55 54 52 53 53 54 55 55 55 54 54 53 52 51 50 49 49 48 48 46 45 44 43 43 42 42 42 43 43 43 43 42 42 41 40 40 40 40 40
49 49 53 56 58 58 55 52 52 50 50 51 51 50 51 52 53 54 54 54 53 52 51 50 49 49 48 48 47 46 45 45 44 44 43 43 43 43 43 43 43 43 42 41 41 40 40 40 40

GEFSSGP_500_meanwind_144.txt.gz
Wind_Speed
35 35 35 36 36 36 32 29 28 29 29 30 32 33 32 32 33 34 30 26 25 25 24 23 22 21 20 19 18 18 17 16 15 14 13 12 11 10 9 9 9 9 8 8 8 8 8 8 8
37 38 38 39 39 36 31 28 30 31 31 33 32 32 32 33 35 34 30 28 27 26 26 25 24 23 21 20 19 19 18 17 16 14 14 13 12 11 10 10 9 9 9 9 8 8 8 8 9
40 40 41 42 41 36 30 30 32 33 34 34 33 33 33 35 36 33 31 30 28 28 27 26 25 24 23 21 20 19 18 18 17 16 15 14 13 12 11 11 10 10 9 9 9 8 8 9 10
44 44 45 44 41 35 32 33 35 35 35 35 35 35 36 35 35 32 31 31 30 29 29 28 26 25 24 23 21 20 19 19 18 16 15 15 14 13 12 11 11 10 10 9 9 9 9 9 10
47 47 48 46 41 36 35 35 36 36 36 36 36 37 37 36 35 33 33 33 32 31 30 29 28 27 25 24 22 21 20 20 19 17 16 15 15 14 13 12 11 11 10 10 9 9 9 10 11
49 50 50 47 41 38 37 37 38 38 37 37 37 38 38 37 36 35 35 34 34 33 32 31 29 28 26 25 24 23 22 21 20 18 17 16 15 15 14 13 12 11 11 10 10 10 10 11 12
52 52 51 48 44 41 39 39 40 40 39 38 38 39 39 38 37 36 36 35 34 33 33 33 31 30 28 26 25 24 23 22 21 19 18 17 16 16 15 14 13 12 12 11 11 11 11 12 13
54 55 54 51 47 43 41 41 42 42 40 39 40 40 40 38 38 38 37 36 35 34 34 33 33 31 30 28 26 25 24 23 22 20 19 18 17 17 16 15 14 13 12 12 12 12 12 13 14
57 59 57 51 48 45 44 44 44 43 42 41 42 42 41 39 38 38 38 37 36 35 34 34 34 33 31 29 28 27 25 24 23 21 20 19 18 18 17 16 14 14 13 13 13 13 13 14 14
60 61 56 50 49 48 47 46 46 45 43 43 43 42 41 38 38 38 38 37 36 35 35 35 34 34 32 30 29 28 26 25 24 23 21 20 19 18 17 16 15 15 14 14 14 14 14 15 15
62 60 55 53 52 51 51 50 48 48 46 44 43 42 41 39 39 39 39 38 37 37 36 35 35 34 32 31 30 29 27 26 25 24 23 21 20 19 18 17 16 16 15 15 15 15 15 16 16
62 60 58 56 55 54 53 52 51 50 46 45 45 44 43 42 40 39 39 39 38 38 37 37 36 34 33 32 31 30 29 27 26 25 23 22 21 20 19 18 17 17 16 16 16 16 17 17 18
62 61 60 59 58 57 56 55 53 51 48 48 48 47 44 43 41 40 40 40 40 40 39 38 37 35 34 33 32 31 30 28 27 25 24 23 21 21 20 19 18 18 17 17 17 18 18 19 20
61 61 62 61 60 59 58 57 57 53 50 50 50 48 45 43 42 41 41 40 41 41 40 39 38 36 35 34 33 32 31 29 28 26 25 23 22 22 21 20 20 19 19 18 18 19 20 20 21
61 62 63 63 62 60 61 61 58 53 53 52 51 50 47 45 44 42 41 41 41 41 41 40 39 38 36 35 34 33 32 31 29 28 26 25 24 23 22 22 21 20 20 20 20 20 21 21 23
62 63 64 63 62 61 63 63 57 55 55 54 53 52 49 47 46 44 42 42 42 42 42 41 40 39 37 36 35 34 32 31 30 29 27 26 25 24 24 23 22 21 21 21 21 21 22 23 24
62 63 64 62 62 61 64 63 58 57 57 56 54 53 51 49 47 46 44 43 43 43 42 42 40 39 38 37 36 34 33 32 31 30 28 27 27 26 25 24 23 23 22 22 22 22 23 24 25
60 61 62 62 60 61 63 63 60 59 59 57 56 55 53 51 49 47 45 44 43 43 43 42 41 40 39 37 36 35 34 32 32 31 30 29 28 27 26 25 24 24 24 24 24 24 25 26 27
58 59 61 60 58 59 62 63 62 61 61 60 58 57 55 53 50 49 47 45 44 44 44 43 42 41 39 37 35 34 34 33 33 32 31 30 28 28 27 27 26 25 25 25 25 26 26 28 28
58 59 59 58 56 57 60 64 64 63 62 61 60 58 57 54 52 51 49 48 46 45 44 43 43 42 40 38 37 36 35 34 34 33 32 31 30 29 29 28 27 27 26 26 27 27 28 29 30
56 57 58 58 57 57 59 64 65 64 63 62 61 60 58 56 54 52 51 50 48 46 45 44 43 42 41 40 39 38 37 36 34 33 33 32 31 31 30 29 29 29 28 28 29 29 30 31 32
54 54 54 55 55 56 58 62 64 64 63 63 63 61 59 58 56 54 53 51 49 47 45 45 44 43 42 41 40 39 37 36 35 35 34 34 33 32 31 31 30 30 30 30 31 31 31 32 33
51 51 52 53 54 55 57 61 63 61 63 62 62 61 59 58 57 56 54 52 50 49 47 46 45 44 44 43 41 41 39 38 38 37 36 35 34 33 32 32 32 31 31 32 32 33 33 34 35
48 49 49 50 52 56 57 58 63 61 60 60 60 60 59 58 57 56 55 53 52 51 49 48 47 46 45 44 43 42 41 40 39 38 37 36 35 34 34 33 33 33 33 34 34 34 35 35 36
46 47 47 48 51 56 55 58 61 58 58 58 59 59 59 59 58 57 57 55 53 52 51 49 48 47 46 46 44 43 42 42 41 40 39 37 36 36 36 35 35 35 35 36 36 36 36 36 37
45 47 47 48 49 52 52 57 57 54 54 55 56 57 58 59 58 58 56 56 54 53 52 51 49 48 48 47 46 44 44 43 42 41 40 39 38 38 38 37 37 37 37 37 37 37 37 37 38
43 46 47 45 44 47 50 52 53 51 51 52 54 55 57 57 57 58 57 56 56 54 52 52 51 50 48 47 46 46 45 44 43 43 42 41 40 39 39 39 39 39 39 38 38 37 38 38 39
42 43 46 46 43 43 46 48 52 51 50 51 53 54 55 56 56 57 57 56 56 54 53 53 52 51 49 48 47 46 46 46 45 44 43 42 41 41 41 41 40 40 40 39 39 38 39 39 39
40 44 47 47 44 40 41 45 47 46 47 49 52 53 53 54 55 56 56 57 56 55 54 54 53 52 51 49 48 47 47 47 46 45 45 44 42 42 41 41 41 41 41 40 39 39 39 39 39
37 40 45 47 46 42 38 39 40 41 42 44 47 50 52 54 53 53 54 55 56 56 55 54 53 52 51 51 49 47 46 46 47 46 45 44 43 43 42 41 42 41 41 40 40 39 39 39 39

GEFSSGP_500_meanwind_150.txt.gz
Wind_Speed
42 42 42 42 43 43 39 32 29 30 31 32 33 35 36 36 35 35 32 30 28 26 26 25 24 23 22 21 20 19 18 17 16 15 14 13 12 11 10 10 9 9 9 9 9 8 8 7 7
45 45 45 45 46 44 38 32 30 31 33 35 36 37 37 37 36 34 32 31 29 27 27 26 25 24 23 23 22 21 20 18 17 16 15 14 13 12 11 11 10 10 9 9 9 9 8 8 8
48 48 48 49 48 43 36 31 32 34 37 38 38 39 38 37 36 35 33 31 30 29 28 28 27 26 25 24 23 22 21 20 19 17 16 15 14 13 13 12 11 11 10 10 10 9 9 9 9
51 52 52 52 49 41 37 34 36 38 39 40 40 40 39 37 37 36 35 32 31 30 29 29 29 28 27 26 25 23 22 21 20 18 17 16 15 14 14 13 12 12 11 11 10 10 9 9 9
55 56 56 55 49 42 39 37 39 41 41 41 42 42 40 38 38 37 36 35 33 31 31 30 30 30 29 27 26 25 23 22 21 20 19 18 16 15 15 14 13 13 12 12 11 11 10 10 9
58 59 59 57 50 44 41 40 42 43 42 42 43 43 42 41 39 38 37 36 35 33 32 32 32 31 30 29 27 26 25 23 22 21 20 19 18 17 16 16 15 14 13 13 12 12 11 10 10
60 61 61 57 53 48 43 43 45 45 45 44 44 44 44 43 41 40 39 38 37 35 34 33 33 32 31 30 29 28 26 24 23 22 21 20 19 18 17 17 16 15 14 14 13 12 11 11 11
61 63 63 60 55 50 46 46 47 48 47 45 46 46 44 43 43 42 41 40 38 37 36 34 34 33 33 32 31 29 28 26 24 23 22 21 20 19 18 18 17 16 15 14 14 13 12 11 12
62 65 65 60 56 52 49 49 49 50 49 48 48 47 45 45 45 44 43 41 40 38 37 36 35 35 35 34 32 31 29 27 26 24 24 23 22 20 19 19 18 17 16 15 15 14 13 12 13
65 67 63 58 56 54 52 52 51 52 52 51 50 48 47 46 45 44 43 42 40 39 38 37 37 36 36 35 34 32 31 29 28 26 25 24 23 22 21 20 19 18 17 16 16 15 14 13 13
65 66 61 59 58 57 56 55 55 55 55 53 51 50 48 47 45 44 43 42 41 41 40 39 38 38 37 37 35 34 32 31 29 27 26 25 24 23 22 21 20 19 18 17 17 16 15 15 15
64 63 62 60 59 59 58 57 57 58 55 54 54 52 51 49 46 44 43 43 41 41 41 40 39 39 38 38 37 35 33 31 30 29 28 27 25 24 23 22 21 21 20 19 18 17 17 16 16
62 61 61 61 60 60 60 59 59 59 56 56 56 54 53 50 48 46 45 44 43 42 42 41 40 39 39 39 38 37 35 33 31 30 29 28 27 26 24 23 23 22 21 20 19 19 18 17 17
57 59 61 62 61 61 61 61 62 60 57 58 57 56 54 52 50 48 46 45 44 43 42 42 40 40 40 39 39 37 36 34 33 31 30 29 28 27 26 25 24 23 22 21 21 20 19 19 18
54 56 60 61 61 61 62 64 63 59 58 59 58 57 55 53 52 50 47 45 44 43 42 42 41 41 41 40 39 38 37 35 34 33 32 31 30 29 28 26 25 24 24 23 22 21 20 20 20
51 55 58 59 60 60 62 65 62 60 60 60 59 58 57 55 53 51 49 46 45 44 43 42 42 42 41 41 40 39 38 36 35 34 33 32 31 30 29 28 27 26 25 24 24 23 22 22 21
51 53 55 56 58 60 61 63 62 62 62 61 60 59 58 57 54 52 50 48 46 45 43 43 42 42 42 42 41 40 39 37 36 35 34 33 33 32 30 29 28 27 26 26 25 24 23 23 23
48 50 52 53 55 58 60 61 61 62 62 63 61 60 60 58 55 52 51 49 47 46 45 44 43 43 43 42 42 41 40 38 37 36 35 34 34 33 32 30 29 29 28 27 26 25 25 24 24
46 49 51 52 52 57 60 61 61 61 63 64 63 62 60 59 56 54 52 50 49 48 46 45 44 43 43 42 42 41 40 39 38 37 36 35 35 34 33 32 31 30 29 28 27 27 26 26 25
46 48 48 50 51 55 59 62 61 60 62 64 63 63 61 59 58 56 54 52 51 49 47 46 44 43 42 41 41 41 41 41 40 39 38 36 35 34 34 33 32 31 30 30 29 28 28 27 27
42 46 46 47 50 52 55 61 63 61 61 63 64 64 63 60 58 57 56 54 52 50 48 46 45 43 43 42 42 42 42 41 40 38 37 36 36 35 34 33 33 32 31 31 30 30 29 28 28
38 42 43 44 47 50 52 57 61 60 61 63 63 64 64 61 59 58 57 55 53 51 48 46 45 44 43 43 43 42 41 39 38 38 38 37 36 36 35 34 33 33 32 32 31 31 30 30 30
36 40 42 43 45 48 50 54 57 59 60 61 62 62 62 62 60 58 57 55 53 52 50 48 46 45 44 44 43 42 41 40 40 40 38 37 37 36 35 35 35 34 33 33 32 32 31 31 31
32 37 42 44 45 49 48 51 55 54 56 57 60 60 61 61 61 59 57 57 55 53 52 50 48 46 45 44 44 43 41 41 40 39 38 38 37 36 36 36 35 35 34 34 33 33 33 32 32
31 33 37 41 45 46 45 49 52 48 50 53 56 58 59 59 60 59 59 58 56 55 53 51 49 47 45 44 44 43 42 42 40 40 39 38 37 36 36 36 36 35 35 34 34 34 33 33 33
30 32 35 37 41 42 43 47 47 44 46 51 54 56 57 58 59 58 58 58 57 55 53 52 50 48 46 45 43 43 43 42 41 41 40 39 38 37 37 37 37 36 36 35 34 34 34 34 34
29 31 33 33 35 39 42 45 45 43 44 46 51 54 56 57 58 58 57 57 57 55 54 52 50 49 47 45 44 43 43 42 42 41 40 40 39 39 39 38 38 37 37 36 36 35 35 35 35
27 29 32 33 32 33 39 43 43 41 41 44 47 51 53 54 56 57 57 57 57 56 54 53 51 50 48 47 45 44 43 43 42 42 41 40 40 40 39 39 39 38 38 37 37 36 36 36 36
25 29 32 33 33 32 35 39 41 40 41 42 44 46 48 51 54 56 56 57 57 56 55 54 52 50 50 48 47 45 45 44 43 42 41 40 40 40 40 40 39 39 39 38 38 37 37 37 37
26 29 32 33 33 33 35 35 37 40 40 40 42 45 46 48 51 54 55 55 56 56 56 55 53 52 50 49 48 47 46 45 45 43 42 41 41 41 40 40 40 39 39 39 38 38 38 38 38

GEFSSGP_500_meanwind_156.txt.gz
Wind_Speed
44 44 45 46 47 47 44 39 34 32 32 33 35 38 39 39 38 37 34 32 32 32 31 29 28 27 26 24 23 21 19 18 17 16 14 13 12 11 9 8 7 6 6 5 5 6 6 6 6
47 47 49 50 51 50 44 38 35 32 34 37 39 40 40 40 39 37 35 34 34 34 32 31 30 29 27 26 24 23 21 20 19 17 16 15 13 12 11 9 9 8 7 6 6 6 7 7 7
50 51 53 54 55 51 45 39 37 36 38 40 41 42 42 41 40 38 37 36 35 35 34 33 32 31 29 28 26 25 23 21 20 19 18 16 14 13 12 11 10 9 8 8 7 7 7 7 7
54 54 57 59 57 50 46 43 41 40 41 43 44 44 43 41 40 39 39 38 37 36 36 35 33 33 31 29 28 26 25 23 22 20 19 17 16 15 14 12 11 11 10 9 8 8 8 8 8
56 58 60 62 58 52 48 46 45 44 44 45 46 46 44 42 41 41 41 40 39 38 37 36 36 34 33 31 29 28 27 25 24 22 21 19 18 17 15 14 13 12 11 10 9 9 9 9 9
59 61 64 64 60 55 51 49 49 48 47 48 49 48 46 44 43 43 42 42 41 40 39 38 37 36 35 33 31 30 28 27 25 24 22 21 20 19 17 16 15 14 13 11 11 11 10 10 9
61 63 65 64 61 58 54 52 52 50 50 50 51 50 47 46 45 45 44 44 43 42 41 39 38 37 36 34 33 31 30 28 27 26 24 23 21 20 19 18 17 15 14 13 12 12 12 11 11
61 64 66 65 63 59 56 55 55 54 52 52 54 53 49 48 47 47 46 46 45 44 43 41 40 39 37 36 34 33 32 30 29 27 26 24 23 22 21 19 18 17 16 15 14 13 13 12 12
61 65 66 64 62 60 58 58 58 57 56 55 55 55 52 51 50 49 48 48 46 45 44 43 41 40 39 37 36 35 33 32 30 29 27 26 25 24 22 21 20 19 18 17 16 15 14 14 13
61 64 64 61 61 60 59 59 59 60 59 57 56 56 55 53 52 51 50 49 47 46 45 44 43 41 40 39 38 36 34 33 32 31 29 27 26 25 24 23 21 20 19 18 17 17 16 15 15
59 61 59 60 61 61 60 60 60 61 60 59 58 57 57 55 53 52 50 49 48 47 47 45 44 43 42 40 39 37 36 35 34 32 30 29 27 27 26 24 23 22 20 20 19 18 17 17 16
57 57 58 58 60 62 62 62 62 62 60 60 60 60 58 57 55 53 52 50 49 49 48 47 46 45 43 42 40 39 38 36 35 34 32 31 29 28 27 26 24 23 22 21 20 20 19 18 17
55 55 56 57 60 62 62 63 63 63 61 62 62 62 60 59 58 56 54 52 50 49 49 48 47 46 45 43 42 40 39 38 37 35 34 32 31 30 28 27 26 25 23 23 22 21 21 20 19
50 53 53 54 56 59 62 63 64 62 62 63 63 63 62 60 60 58 57 54 52 50 49 49 48 47 46 45 43 42 41 40 39 37 35 34 33 31 30 29 27 26 25 24 23 23 22 22 21
47 50 51 51 53 56 59 63 63 60 62 64 64 64 64 62 61 59 57 56 54 51 50 49 49 48 47 46 45 44 42 41 40 39 37 36 34 33 31 30 29 27 26 26 25 24 23 23 22
43 47 49 48 51 53 57 61 60 60 61 63 63 64 65 63 62 60 58 57 56 53 51 50 49 49 48 47 46 45 43 42 42 41 39 37 36 34 33 31 30 29 28 27 27 26 25 24 24
40 43 44 45 48 51 55 57 57 59 60 61 62 62 64 64 63 61 59 59 57 55 53 51 50 49 48 47 46 45 44 43 43 42 40 38 37 36 34 33 32 30 29 29 28 27 27 26 26
37 39 41 42 45 49 53 54 55 56 59 60 61 62 63 64 63 62 60 60 59 57 55 53 51 51 50 49 47 46 45 44 44 43 42 40 39 37 35 34 33 31 30 30 30 29 28 28 27
34 35 37 39 43 46 49 52 53 54 57 60 60 61 62 63 63 63 62 60 59 58 56 55 52 50 50 49 47 46 45 44 43 43 43 42 40 38 37 35 34 33 32 31 31 30 29 29 29
32 33 34 36 40 45 46 49 49 52 55 58 59 59 61 62 63 63 63 62 60 59 57 55 54 51 49 48 48 47 46 45 44 44 43 43 41 40 38 36 35 34 33 32 32 31 31 31 30
30 32 32 34 36 41 44 46 46 49 53 56 59 59 59 62 63 64 64 62 61 59 57 55 53 52 50 48 49 48 46 46 45 44 43 43 42 41 39 38 37 35 34 33 33 32 31 31 31
29 29 31 33 35 38 41 44 43 46 50 54 57 59 59 60 62 63 64 64 62 59 57 56 54 52 51 50 49 47 46 45 43 43 43 43 43 42 41 39 38 36 35 34 34 33 33 33 32
27 28 30 31 34 37 38 42 41 43 47 51 54 57 59 60 61 63 63 64 62 60 58 56 55 53 52 51 49 47 46 45 45 44 44 44 43 43 42 40 39 37 36 35 35 34 34 33 33
26 26 27 29 31 34 34 39 41 40 42 47 50 53 57 59 61 63 63 64 63 61 60 58 56 54 53 51 49 47 46 45 45 44 44 44 43 42 41 40 39 38 36 36 35 35 34 34 34
23 23 24 25 28 29 30 36 38 37 39 44 48 51 55 59 60 62 63 63 64 62 60 58 57 55 54 52 49 46 46 45 45 44 44 43 42 41 40 40 39 38 37 36 36 35 35 35 35
20 20 22 23 26 27 28 32 36 35 36 41 45 48 53 58 60 61 63 62 62 62 60 58 57 55 54 53 50 47 46 45 45 45 44 43 42 41 41 41 40 39 38 37 36 36 36 35 35
19 20 21 23 23 25 26 31 33 34 35 39 43 46 50 56 59 61 63 63 62 61 60 59 58 56 54 53 51 49 47 45 45 45 45 43 42 41 41 41 41 40 39 38 37 36 36 36 36
19 19 20 21 20 21 23 27 30 33 34 38 41 44 48 52 56 59 62 62 63 62 61 59 58 57 55 54 53 51 48 47 45 45 45 44 42 42 41 41 41 40 39 38 37 37 36 37 36
20 19 19 21 21 20 21 24 27 29 32 36 40 43 45 48 52 56 59 61 61 62 61 60 59 58 57 55 54 53 50 48 47 46 45 45 44 42 42 42 42 41 40 39 38 38 37 37 37
21 21 20 22 23 23 23 22 25 26 29 33 38 41 44 46 49 53 55 58 61 61 61 60 57 57 57 55 54 53 52 50 49 47 46 46 45 44 43 43 42 42 41 40 39 39 38 38 38

GEFSSGP_500_meanwind_162.txt.gz
Wind_Speed
37 37 38 39 42 42 40 37 36 34 34 34 35 37 37 36 35 36 35 33 33 32 31 30 30 30 30 29 28 27 26 25 23 22 21 20 18 16 15 14 12 11 10 8 7 6 5 4 4
39 40 41 43 45 45 42 40 39 37 37 37 39 40 40 40 38 37 36 35 35 35 33 33 32 32 32 31 30 29 28 26 25 24 23 22 20 18 17 15 14 13 11 10 8 7 6 5 5
42 43 45 47 48 47 45 44 42 41 41 41 42 43 43 42 40 39 38 37 37 37 36 35 35 34 34 33 32 31 30 28 27 26 25 23 22 20 18 17 16 14 13 11 10 8 8 7 6
45 46 49 51 51 48 48 48 46 46 46 45 46 47 46 44 43 41 41 40 40 40 39 38 37 36 36 35 35 33 32 31 29 28 27 25 24 22 20 19 17 16 15 13 11 10 9 8 7
47 49 52 54 53 51 51 51 50 49 49 49 49 50 49 47 46 44 44 44 43 42 42 41 39 38 38 37 37 36 34 33 31 30 28 27 25 23 22 20 19 18 16 15 13 12 11 10 9
50 53 56 56 55 53 53 53 54 54 53 53 54 53 52 50 49 48 47 47 46 45 44 44 42 41 40 39 39 38 37 35 34 32 30 28 27 25 23 22 21 20 18 17 15 14 12 11 10
52 56 57 58 57 56 55 56 56 57 57 56 57 57 55 54 53 51 50 49 49 48 47 46 45 43 42 42 41 40 38 37 36 34 32 30 28 27 25 24 23 21 20 18 17 16 14 13 12
53 57 59 58 58 57 56 57 58 59 59 59 60 59 57 57 56 55 53 52 52 51 50 49 48 46 45 44 43 42 40 39 38 36 34 32 30 29 27 26 25 23 22 20 19 17 16 14 14
53 57 59 57 58 57 56 58 59 60 61 61 62 62 60 59 59 57 56 55 55 54 53 51 50 49 47 46 45 44 43 41 40 38 36 34 32 31 29 28 26 25 23 22 20 19 18 16 15
53 56 56 55 57 57 56 57 58 60 62 62 63 63 62 62 61 60 58 58 57 56 55 53 52 51 50 48 47 46 45 43 41 39 37 36 34 33 31 30 28 27 25 23 22 21 20 18 17
51 53 53 53 55 56 56 56 56 59 60 61 62 63 64 63 62 62 61 60 59 58 57 55 54 53 52 50 48 47 46 45 43 41 39 37 36 34 33 31 30 29 27 25 24 22 21 20 19
49 50 50 50 51 53 55 56 56 56 57 59 62 63 65 64 63 63 63 62 61 60 59 58 57 55 54 52 50 49 48 46 45 43 41 39 37 35 34 33 31 30 29 27 26 24 23 22 21
48 48 48 48 49 50 52 54 56 55 55 58 62 63 65 65 63 64 65 64 63 62 61 60 59 57 56 54 52 50 49 47 46 45 43 41 39 37 35 34 33 31 30 29 27 26 25 24 23
45 46 46 46 47 47 49 51 54 52 52 55 59 62 64 64 64 64 66 66 65 63 62 61 60 59 58 56 54 52 51 49 48 46 44 43 41 39 37 36 34 33 32 30 29 27 26 25 25
44 44 44 43 44 45 48 49 49 49 52 54 56 60 62 63 63 63 65 66 66 65 64 63 62 61 59 58 56 53 52 51 49 48 46 44 42 40 39 37 35 34 32 31 30 29 28 27 26
43 43 42 40 40 41 45 46 43 45 49 52 54 57 60 62 61 62 64 66 66 66 65 64 63 62 61 59 58 56 54 53 51 49 47 45 44 42 40 38 37 35 33 32 31 30 29 28 27
41 41 40 38 36 38 41 41 38 41 44 48 51 55 59 60 61 62 63 65 66 66 66 65 64 62 61 60 58 57 56 54 53 51 49 47 45 43 42 40 38 36 34 33 32 31 30 29 28
40 39 39 36 34 36 39 38 35 37 40 42 48 53 56 59 61 62 63 64 66 67 67 66 65 63 62 61 59 58 56 55 54 52 50 49 47 45 43 41 39 37 36 34 33 32 31 30 30
39 38 37 34 33 35 36 35 32 33 37 40 45 50 53 57 60 62 63 63 65 67 67 67 66 64 62 61 59 58 56 55 54 53 51 50 48 46 44 42 40 38 37 35 34 33 32 31 31
36 36 35 33 31 33 33 32 30 31 34 36 42 47 50 54 59 61 63 63 64 66 67 67 67 65 63 61 59 59 56 54 54 53 52 50 49 48 46 44 42 40 38 36 36 35 33 33 32
34 33 34 33 30 29 31 30 30 29 30 32 38 43 47 52 57 59 62 64 64 66 67 67 66 65 63 61 59 59 58 55 54 52 52 51 49 48 47 46 44 42 40 38 37 36 35 34 34
32 31 31 29 28 27 26 28 26 26 27 30 35 40 44 50 55 57 60 63 64 65 66 66 66 66 64 62 60 59 57 55 52 52 52 51 50 49 48 46 45 43 42 40 39 38 37 36 35
31 29 27 25 24 23 21 24 22 23 25 27 32 38 42 47 53 56 59 62 64 64 65 66 66 66 65 63 60 58 56 54 53 52 52 51 50 49 48 47 45 44 43 42 41 40 39 38 37
30 27 24 21 21 19 18 21 21 21 24 26 30 36 40 44 51 54 58 61 63 65 65 65 66 65 65 63 62 59 56 56 54 52 52 51 50 49 48 47 46 44 44 43 42 41 40 39 38
27 25 22 19 18 18 17 18 18 20 22 24 27 33 38 43 49 53 56 60 62 63 65 66 66 65 65 64 63 60 56 55 54 51 51 51 50 48 48 47 46 45 44 44 43 42 41 39 38
25 22 20 20 19 18 17 17 16 17 20 23 25 30 36 43 46 51 55 59 61 63 65 65 66 65 64 64 63 61 59 56 54 52 50 50 49 48 49 48 47 46 45 44 43 42 41 40 39
23 21 20 20 20 19 17 16 15 14 17 21 24 29 35 41 44 49 54 58 60 62 64 66 65 65 64 62 63 61 59 57 55 54 51 50 49 49 48 48 48 46 45 44 43 42 41 40 40
23 21 20 20 21 20 18 18 17 15 17 21 24 28 34 39 43 47 52 57 59 61 62 63 65 65 64 61 61 61 59 57 55 53 51 49 48 48 48 48 47 46 45 43 42 42 41 40 39
22 21 20 21 21 22 22 20 18 17 17 20 24 28 33 38 42 45 50 55 58 59 61 62 63 64 64 61 60 61 59 57 56 54 52 49 48 48 48 47 46 45 44 43 42 41 40 39 39
22 21 21 21 22 22 23 20 19 19 19 20 23 27 31 36 41 44 47 52 57 59 59 60 63 63 62 61 60 59 59 57 56 54 52 50 48 47 47 47 46 45 44 43 41 40 39 39 39

GEFSSGP_500_meanwind_168.txt.gz
Wind_Speed
32 32 33 34 36 37 35 33 33 32 32 31 32 32 33 33 33 36 36 34 31 29 30 31 31 30 30 30 29 29 28 27 26 25 24 23 22 21 19 18 16 15 14 13 12 11 10 9 8
34 35 36 37 39 39 38 37 37 36 36 35 35 36 36 35 36 38 38 36 34 32 32 33 33 32 32 32 31 31 31 30 29 27 26 25 24 23 22 20 18 17 16 14 13 12 11 10 9
37 38 39 40 41 40 40 40 40 40 40 40 40 40 40 39 39 41 41 39 37 35 35 35 35 35 34 34 33 33 33 32 31 30 28 27 26 25 24 22 21 19 18 16 15 14 13 12 11
39 40 42 43 43 42 43 43 43 44 44 44 44 44 44 43 42 43 44 43 40 38 38 38 38 37 37 36 35 35 35 34 33 32 31 30 29 27 26 24 23 21 20 18 17 16 15 14 13
42 43 45 45 45 45 46 46 46 47 47 48 48 48 47 46 46 47 47 46 43 42 41 41 40 40 39 39 38 37 37 36 35 34 33 32 31 29 28 26 25 23 22 20 19 17 16 15 14
43 45 46 46 46 46 48 48 49 50 50 51 52 52 50 49 49 49 49 48 47 46 44 44 44 43 42 42 41 40 39 39 38 37 35 34 33 32 30 28 27 25 23 22 21 19 18 17 16
44 45 46 47 48 48 49 50 51 52 52 53 55 56 54 53 52 53 53 52 50 49 48 47 47 46 45 44 43 43 42 41 40 39 38 37 35 34 32 30 29 27 25 24 22 21 20 19 18
45 47 47 48 50 50 50 51 52 54 55 55 57 58 58 57 57 56 56 55 54 53 51 50 49 49 48 47 46 45 45 44 43 41 40 39 37 36 34 32 31 29 27 25 24 23 22 21 19
46 48 49 49 52 52 51 53 54 56 58 58 59 60 60 59 60 59 58 58 57 56 54 53 52 52 51 50 49 48 48 47 46 44 43 41 40 38 36 34 33 31 29 27 26 25 23 22 21
46 49 50 50 52 53 52 53 55 58 59 60 60 62 62 62 62 62 61 60 59 58 58 56 55 54 54 53 52 51 50 49 48 46 45 44 42 40 38 36 34 33 31 29 28 27 25 24 23
47 49 50 50 51 53 54 54 56 58 59 59 60 62 63 64 64 64 64 63 62 61 60 59 58 57 57 56 55 54 53 52 50 48 47 45 44 42 40 38 36 35 33 31 29 29 27 26 25
47 48 49 49 51 52 54 54 55 57 58 58 61 62 63 64 65 65 64 65 64 63 62 62 60 60 59 59 58 56 55 54 52 51 49 47 46 44 42 40 38 36 34 33 31 30 29 28 27
47 48 48 48 49 49 50 51 52 53 55 57 60 62 62 64 65 64 64 66 65 65 64 63 63 62 62 61 60 59 58 56 54 52 51 49 47 45 43 42 39 38 36 35 33 32 30 29 28
46 47 47 47 48 48 49 50 50 50 52 54 56 59 60 62 63 65 64 65 66 66 65 64 64 64 64 63 62 61 60 58 56 54 52 51 49 47 45 43 41 39 38 37 35 34 32 31 30
46 46 46 45 46 47 49 48 48 48 49 50 52 55 57 58 60 62 61 61 63 64 64 65 65 66 66 64 64 64 62 60 58 55 54 52 50 49 47 45 43 41 39 38 37 35 33 32 31
44 44 45 43 44 45 47 47 45 46 47 47 48 50 52 53 54 56 57 58 60 61 62 63 65 66 67 65 65 65 64 63 60 58 55 53 52 49 47 46 44 43 41 40 38 36 35 34 32
41 42 43 42 41 43 45 45 42 42 44 44 44 44 45 46 48 52 54 56 57 58 60 62 65 66 67 66 66 65 66 65 62 61 58 55 54 51 48 47 45 44 42 41 39 37 36 35 33
42 42 42 41 40 42 42 41 40 39 41 40 40 40 40 43 43 47 51 53 54 56 58 60 64 66 67 66 65 66 67 66 65 62 59 57 55 52 50 48 47 45 43 42 40 38 37 36 34
42 42 41 40 40 41 39 38 37 35 36 36 35 36 37 39 40 43 47 50 52 54 55 58 62 65 66 66 66 67 67 66 65 63 60 58 57 54 51 49 48 46 45 43 41 39 38 36 35
41 40 40 39 39 39 37 34 33 32 32 32 32 33 34 36 37 38 42 46 50 53 54 57 61 64 65 66 67 68 69 67 65 63 62 60 58 55 52 51 50 48 46 44 42 40 39 37 36
38 39 40 40 38 35 36 33 29 30 30 30 31 31 32 34 35 37 40 43 48 51 54 56 59 62 65 66 66 67 69 67 65 64 63 60 58 56 53 51 50 49 47 45 43 42 40 38 37
39 38 39 38 38 35 33 34 28 28 27 28 28 28 29 30 34 36 38 41 45 49 52 57 59 61 64 65 66 66 66 66 65 63 62 60 58 57 55 53 51 49 48 46 44 42 41 40 38
39 38 37 36 35 33 30 34 31 28 27 26 26 26 27 28 31 34 37 40 43 47 50 56 58 61 63 64 64 65 66 66 65 63 63 60 58 56 55 53 51 50 48 46 45 43 42 40 39
38 38 37 35 34 32 29 32 31 27 28 26 26 26 26 27 28 30 33 37 41 45 49 53 57 60 61 63 63 63 66 67 65 64 60 59 58 56 55 53 51 49 48 47 45 44 43 42 41
37 38 38 37 35 32 29 30 29 27 27 27 26 26 26 26 27 28 30 34 39 44 48 52 56 59 61 62 61 62 64 64 63 62 59 57 57 56 53 52 51 49 48 47 46 44 43 42 41
36 36 36 36 35 32 29 28 27 26 26 27 26 25 25 26 27 26 27 32 38 43 47 51 54 58 60 61 61 60 63 63 63 61 58 57 56 54 51 49 50 50 49 47 45 44 43 42 41
36 34 34 35 35 34 31 29 27 25 26 26 25 25 24 25 26 25 27 31 36 41 46 50 53 58 60 60 58 59 60 62 63 60 57 55 53 53 52 50 49 48 48 46 45 43 43 42 42
35 34 33 33 34 35 32 30 27 26 26 26 26 24 25 25 26 25 26 30 33 38 44 50 54 56 59 59 58 59 60 61 62 62 58 55 52 50 50 49 48 48 47 47 45 44 42 42 41
35 34 33 34 33 34 34 31 28 27 26 26 26 25 24 24 26 26 28 30 32 36 42 48 54 55 58 58 57 58 59 60 61 60 58 54 52 51 51 50 48 46 45 45 44 43 42 41 40
36 34 34 34 34 33 34 31 27 27 27 26 25 25 24 24 25 26 28 29 32 36 41 47 51 54 55 57 56 57 59 58 59 60 57 54 51 50 49 49 47 45 44 43 43 42 42 41 40

GEFSSGP_500_meanwind_174.txt.gz
Wind_Speed
25 26 26 27 29 29 28 27 27 27 27 27 28 28 28 28 28 29 27 26 26 26 25 26 26 26 26 27 27 27 27 26 25 24 24 23 23 22 21 20 19 18 16 15 13 12 12 11 10
27 28 29 30 31 31 30 29 30 30 30 30 30 30 31 32 32 32 30 29 28 28 28 28 28 28 28 28 29 29 29 29 28 27 26 26 25 25 24 23 21 20 18 17 15 14 13 13 12
29 30 31 32 32 32 32 32 32 32 33 33 33 33 33 34 35 35 34 32 31 31 30 30 31 31 31 31 31 31 31 31 30 29 29 28 27 27 26 25 23 22 20 19 18 16 15 15 14
31 32 33 34 33 33 34 35 35 35 36 36 36 36 36 36 37 37 37 36 35 34 34 33 33 34 34 33 33 33 33 33 32 31 31 30 29 29 28 27 26 24 23 21 20 18 18 17 15
33 34 35 35 35 35 37 37 38 38 38 38 39 39 39 39 39 40 40 40 39 38 37 36 36 37 37 36 36 36 36 35 35 34 33 32 32 31 30 29 28 27 25 24 22 21 20 18 17
35 36 37 36 37 38 39 40 40 40 40 41 42 43 42 42 42 43 43 43 43 42 40 40 39 39 39 39 39 39 38 38 37 37 36 35 34 33 33 31 30 29 28 26 25 23 21 20 19
35 36 37 38 39 40 41 42 43 43 43 44 45 46 45 45 46 46 47 46 46 45 44 43 43 42 42 42 42 42 42 41 40 39 39 38 36 36 35 34 32 31 30 28 27 25 23 22 21
36 38 39 40 41 41 42 44 45 46 46 47 48 49 48 48 49 49 50 50 50 49 48 47 46 46 46 45 45 45 44 44 43 42 41 40 39 38 37 35 34 33 32 30 29 27 26 24 23
37 39 40 41 42 43 44 46 47 49 49 49 51 52 51 50 52 53 52 53 54 53 52 51 50 49 49 49 48 48 47 47 46 45 44 43 42 40 39 37 36 35 34 32 31 30 28 26 25
37 39 40 42 43 44 45 47 48 49 50 51 52 53 53 52 53 55 56 56 56 56 56 55 53 53 52 52 51 51 50 50 49 48 47 46 45 43 41 40 38 37 36 35 33 32 30 28 27
37 39 40 42 43 45 46 46 48 50 50 51 52 53 55 55 56 57 58 59 58 58 59 58 57 56 56 56 55 54 54 53 52 51 50 49 47 46 44 42 41 39 38 36 35 34 32 30 29
37 38 40 41 42 44 44 45 46 48 49 50 52 53 54 56 57 58 59 61 61 61 62 62 61 59 59 59 59 57 57 56 54 54 52 51 50 48 46 45 43 41 40 38 37 36 34 32 31
36 37 39 40 41 42 43 44 45 46 48 50 52 53 54 56 57 59 60 61 62 63 63 63 63 62 62 62 62 61 59 58 57 56 55 54 53 51 49 47 46 44 42 40 39 38 36 35 33
36 37 38 39 40 41 43 43 45 45 48 50 52 53 54 55 55 58 59 59 61 62 63 65 65 63 62 63 64 64 62 61 60 59 58 56 55 54 52 50 48 46 44 42 41 39 38 36 35
37 37 37 38 39 41 43 43 44 45 47 49 50 51 53 53 53 54 56 57 58 60 62 64 65 64 62 63 65 65 65 64 63 61 60 59 57 55 54 53 51 49 46 44 43 41 40 39 37
37 37 37 37 40 41 43 43 43 44 45 47 47 48 49 50 50 52 54 55 56 58 59 62 64 64 64 63 63 65 66 66 65 64 62 61 60 58 56 55 53 51 48 46 45 44 42 40 38
36 37 37 38 39 41 43 43 41 42 43 43 44 45 45 45 46 48 49 52 54 55 57 58 61 63 64 63 64 64 65 66 66 66 64 63 62 60 58 56 55 53 51 49 47 46 44 42 40
38 38 37 39 39 40 41 40 38 39 39 39 40 41 41 42 42 42 44 46 50 52 54 55 58 61 62 62 63 65 66 66 66 67 67 65 64 63 61 59 57 55 53 51 49 48 46 44 42
39 39 39 39 39 39 39 38 36 36 37 37 38 39 39 38 39 39 40 42 45 48 51 54 56 59 60 61 61 62 64 66 65 66 67 67 66 64 63 60 59 57 55 52 50 50 47 45 44
39 39 39 37 38 38 38 36 34 34 36 38 37 37 37 36 37 37 38 39 41 43 47 50 52 56 58 60 61 61 62 65 65 66 68 69 67 66 65 63 60 58 56 54 51 51 49 46 44
39 39 39 39 37 36 37 35 33 33 36 37 36 36 36 35 35 34 35 37 38 40 43 46 47 52 55 57 59 60 62 64 66 66 67 69 68 68 67 65 61 59 57 56 53 52 50 48 46
38 38 39 39 39 37 37 38 34 35 36 36 35 34 33 33 32 31 31 32 35 38 41 43 46 48 51 53 57 58 60 62 64 64 65 67 69 69 68 66 64 60 58 56 53 52 50 49 46
39 39 39 40 39 38 37 39 36 36 36 34 34 32 31 31 30 29 31 32 33 35 39 41 43 45 47 50 52 54 58 60 61 61 65 67 68 68 68 66 65 62 60 57 54 53 52 50 47
39 40 40 40 39 39 37 38 36 36 37 35 34 32 31 31 30 30 31 33 34 36 36 39 42 43 45 47 49 53 57 58 58 58 60 64 66 67 67 66 64 63 61 58 55 53 52 50 47
39 40 40 41 40 39 37 37 36 36 36 36 35 34 32 30 30 30 31 32 34 35 35 36 39 41 42 45 47 52 55 56 56 56 57 62 63 63 64 65 64 62 60 58 55 52 51 50 47
39 39 39 41 41 40 38 36 35 35 35 35 34 33 32 31 30 29 30 31 31 32 33 35 38 40 41 45 48 50 54 52 51 54 56 59 59 61 63 62 63 60 58 57 54 52 51 49 47
39 39 39 40 41 41 40 38 34 34 34 34 34 32 32 31 29 28 28 29 30 31 31 32 35 39 40 43 48 49 50 50 49 52 53 54 55 58 60 60 60 61 59 57 53 50 49 49 47
39 39 39 39 42 43 43 40 36 35 34 34 33 32 31 31 28 27 27 28 27 28 29 30 32 35 40 43 45 49 48 47 48 50 49 50 52 56 59 59 58 59 58 56 52 50 49 48 46
40 39 39 40 41 43 45 40 38 37 36 34 32 32 31 31 29 27 27 27 26 26 28 30 32 34 37 41 44 45 46 46 47 49 50 51 50 53 56 57 56 56 55 52 50 50 48 47 45
41 40 39 40 41 42 44 42 38 38 37 35 33 32 32 31 29 27 28 27 26 26 28 30 32 34 36 39 42 44 44 45 46 46 48 48 48 51 53 55 57 56 54 51 48 49 48 46 44

GEFSSGP_500_meanwind_180.txt.gz
Wind_Speed
23 23 24 24 25 25 24 23 23 23 24 25 25 26 26 26 26 26 25 24 24 24 23 23 23 24 24 24 24 24 24 23 23 23 22 21 21 20 19 19 18 17 15 14 13 12 11 10 10
24 25 26 26 27 26 25 25 26 26 26 27 28 29 29 29 29 29 28 27 27 27 26 26 26 26 26 26 26 26 26 25 25 25 24 24 23 22 22 21 20 19 18 16 15 14 13 13 12
25 26 27 28 28 28 28 28 28 28 29 29 30 31 31 31 31 31 30 30 30 30 29 29 29 29 28 28 28 28 28 28 28 27 27 26 25 24 24 23 22 21 20 19 18 16 15 14 14
26 27 28 29 29 29 30 30 30 31 31 31 32 33 33 33 34 34 33 33 33 33 32 32 32 32 31 31 31 31 31 31 30 30 29 29 28 27 26 25 24 23 22 21 21 19 18 16 16
28 29 29 29 30 30 31 32 32 33 33 33 34 35 35 36 36 36 36 36 35 36 36 35 35 35 35 34 34 33 33 33 33 32 31 31 31 29 28 27 26 25 24 24 23 22 20 19 18
28 29 30 31 31 32 33 34 34 35 35 36 37 37 37 38 39 39 39 39 38 38 38 38 38 38 38 37 36 36 36 35 36 35 35 34 33 32 31 29 28 27 26 26 25 24 23 22 20
29 30 30 31 32 33 34 35 36 37 37 38 39 40 40 41 42 42 42 42 42 41 41 41 41 41 41 40 39 39 39 38 38 38 37 37 36 35 34 32 31 30 28 27 26 26 25 24 22
29 30 31 31 32 34 35 36 37 38 39 41 42 43 43 43 44 45 46 46 45 45 45 45 44 44 44 44 43 42 42 41 41 40 40 40 39 39 37 36 34 33 31 30 28 28 27 26 25
28 30 30 32 33 35 37 38 39 40 42 43 44 45 46 46 47 47 48 48 48 48 48 48 48 48 48 47 47 46 45 45 44 44 43 43 42 41 40 39 37 36 34 32 31 30 29 28 27
27 29 31 32 34 36 37 39 40 41 43 43 44 45 46 47 48 49 50 51 51 51 51 52 51 51 51 51 50 49 49 48 48 47 46 46 45 44 43 42 41 39 37 36 34 33 32 31 30
27 29 30 32 34 36 37 38 40 42 42 43 43 45 46 48 49 50 52 52 53 53 54 54 55 55 54 54 54 53 52 51 51 51 50 49 48 47 46 45 44 42 40 38 37 36 34 33 32
27 29 30 32 34 36 37 38 40 41 42 43 44 46 47 49 50 52 52 52 53 54 55 57 57 58 58 58 57 57 56 55 54 54 53 52 51 50 49 48 47 45 43 42 40 39 37 36 35
28 29 31 33 35 36 37 38 40 41 43 44 45 46 47 48 50 52 53 54 54 55 56 58 59 60 61 61 61 60 59 58 58 57 56 55 55 54 52 51 50 48 46 45 43 41 40 39 38
28 30 32 34 36 37 38 38 41 42 43 43 44 45 47 48 49 50 52 54 54 56 57 58 60 61 63 63 63 63 62 61 61 60 59 59 57 57 56 54 53 51 50 47 46 44 42 41 40
30 31 33 35 37 37 38 38 41 41 42 43 44 45 46 48 49 50 52 53 54 56 57 58 60 61 63 64 65 65 65 64 64 63 62 60 59 59 57 57 55 53 52 51 49 47 45 44 43
31 32 34 36 37 38 38 37 40 41 42 43 44 45 46 48 49 50 51 52 54 56 57 58 59 61 63 64 65 66 66 65 65 65 64 62 61 60 60 59 58 56 55 54 52 50 47 46 45
31 33 34 36 38 38 38 37 39 41 42 42 43 44 45 46 48 50 51 51 52 54 56 57 57 59 61 62 64 65 65 65 65 65 65 64 63 62 61 61 60 59 58 56 55 53 50 48 46
33 34 35 36 38 39 38 37 38 40 42 43 44 44 44 44 46 47 49 49 50 51 52 53 54 56 57 59 62 65 64 63 63 64 65 66 66 65 63 63 63 62 60 59 57 55 53 51 49
34 35 36 37 40 40 39 38 38 39 41 42 43 43 42 42 44 45 45 45 47 47 48 50 51 53 54 56 58 61 63 62 62 62 63 66 67 66 65 64 64 64 63 61 60 58 56 53 51
36 36 37 38 40 41 40 39 38 39 40 42 42 42 42 42 42 43 43 43 43 44 45 48 48 49 51 52 54 57 61 62 61 62 62 64 67 67 66 65 66 65 64 63 61 61 58 55 54
37 38 39 40 40 41 41 39 38 39 40 42 42 42 42 43 42 41 41 41 41 42 44 46 47 47 47 49 52 55 58 60 61 61 61 62 65 65 66 66 65 65 64 64 63 62 61 57 56
37 38 40 40 41 41 41 41 38 39 40 41 43 42 42 42 42 40 40 39 40 42 43 43 45 45 45 48 49 52 54 57 58 58 60 60 62 63 64 67 66 65 64 65 65 63 62 59 57
38 39 40 40 41 41 41 42 40 40 40 41 42 41 41 42 41 40 40 40 40 41 42 42 42 44 44 46 47 50 53 55 56 57 59 60 60 61 63 65 65 64 64 65 66 64 63 61 58
38 39 41 41 42 42 42 43 41 41 41 41 42 41 41 40 41 39 39 40 40 41 41 40 41 43 44 45 45 47 48 51 53 55 57 59 60 60 61 63 65 64 63 65 66 65 62 60 59
39 40 42 44 43 43 43 43 42 42 41 41 41 42 41 40 40 40 40 41 42 42 41 40 40 41 42 44 44 45 46 47 49 51 55 58 59 61 61 61 62 62 61 62 64 63 61 61 59
39 40 41 44 45 45 44 44 43 42 41 42 42 42 42 42 42 42 42 42 42 42 40 39 38 39 41 41 43 43 43 44 46 50 51 54 57 59 60 60 59 61 61 59 61 61 60 61 59
39 40 41 43 46 46 46 46 43 42 42 42 42 42 43 43 43 43 43 42 41 41 40 39 37 38 40 40 42 43 43 43 45 49 51 52 55 57 58 59 56 59 58 57 59 60 59 60 58
40 41 42 43 46 48 48 47 45 44 43 42 42 42 43 43 43 42 42 41 41 40 38 37 37 37 38 39 41 43 42 41 43 46 49 51 52 55 57 57 57 58 59 57 58 57 58 60 58
40 41 42 44 45 48 50 48 45 44 44 44 43 42 43 43 43 42 42 42 41 39 37 36 36 36 36 37 38 40 41 41 42 43 45 47 49 52 55 55 56 56 55 54 57 57 57 58 55
42 42 42 44 46 48 50 49 45 45 44 44 44 43 43 43 42 41 41 40 40 38 37 36 34 34 34 34 36 37 38 39 39 40 42 43 45 49 52 53 55 55 53 52 54 54 54 55 52

GEFSSGP_500_meanwind_186.txt.gz
Wind_Speed
22 23 23 23 23 22 21 20 20 21 21 22 22 22 23 23 23 24 22 22 22 22 22 22 22 23 23 23 24 24 24 24 24 24 23 23 23 22 21 21 20 20 19 17 16 15 14 13 12
23 23 24 24 24 23 22 22 22 23 23 23 24 24 25 25 25 25 25 25 25 25 25 25 25 25 25 25 25 25 26 26 26 26 26 25 25 24 23 22 22 22 21 20 19 17 16 15 14
23 24 24 24 24 23 23 23 24 24 25 25 26 27 27 27 27 28 27 28 28 28 28 28 28 28 27 27 27 27 27 27 27 27 27 27 27 26 26 25 24 24 23 22 21 20 19 18 16
24 24 25 25 24 24 24 25 26 26 26 27 27 28 29 29 29 30 30 31 31 31 31 31 31 31 31 30 30 30 30 29 30 29 29 29 29 29 28 27 27 26 25 23 22 22 21 20 19
24 25 25 25 25 25 25 26 26 27 28 28 29 30 30 31 32 32 32 33 33 34 34 34 34 34 34 33 33 33 33 33 33 33 32 32 31 31 31 30 29 28 27 26 25 24 23 22 21
24 25 25 25 26 26 27 27 28 28 29 30 31 32 32 33 33 34 34 35 35 36 36 36 37 37 37 37 37 36 36 36 36 36 35 35 34 33 33 33 32 31 30 28 27 26 25 24 23
23 24 25 25 26 27 27 28 29 29 30 31 32 33 33 34 35 36 37 37 38 39 39 39 39 39 39 39 40 39 39 39 39 39 38 38 37 36 36 35 34 34 33 32 30 29 28 26 25
22 23 24 25 26 27 28 29 30 31 31 32 33 33 33 35 36 37 38 39 40 41 41 41 42 42 42 42 42 42 42 42 42 42 41 41 40 39 39 38 38 37 36 35 33 32 30 29 28
22 23 23 24 25 26 27 29 30 31 32 33 33 34 35 36 37 38 39 40 41 42 43 44 44 44 45 45 44 44 45 45 45 45 44 44 44 43 42 41 41 40 39 38 36 35 34 32 31
21 22 23 24 24 25 26 27 28 29 31 32 33 34 36 36 38 39 40 41 42 43 44 45 46 47 47 48 47 47 48 48 48 48 47 47 47 46 45 44 44 43 42 41 40 38 37 35 34
21 22 22 23 24 24 25 26 27 29 30 32 33 35 36 38 40 41 42 43 43 45 46 47 48 49 49 50 50 50 51 51 51 51 50 50 50 49 48 47 47 46 46 44 43 41 40 38 37
20 21 22 23 24 24 26 27 28 30 31 33 35 36 38 40 41 42 44 44 45 46 48 49 50 51 51 52 53 53 54 54 54 54 54 54 54 53 52 51 50 49 48 47 45 44 43 41 40
19 21 22 22 23 24 26 27 28 30 32 33 35 37 39 40 42 43 44 45 46 47 49 50 51 52 53 54 55 55 57 57 57 57 57 57 57 56 55 54 53 52 51 50 49 47 46 45 43
19 20 22 23 24 25 27 28 29 30 33 34 36 38 39 41 42 43 44 45 46 47 49 50 52 53 55 56 57 57 58 59 59 60 60 60 59 59 58 57 56 56 54 53 52 50 49 47 46
19 20 21 23 24 25 27 28 30 31 33 35 37 39 41 42 42 43 43 44 46 48 49 51 53 55 56 57 59 60 60 61 61 62 62 62 62 61 61 61 60 58 57 56 55 53 51 50 48
20 21 23 24 25 26 28 28 31 33 34 36 38 39 40 41 42 43 43 44 46 48 50 52 54 55 57 58 60 61 61 61 62 63 63 63 64 64 63 63 63 62 60 59 58 56 54 53 51
21 22 24 25 26 27 28 29 32 34 35 36 37 38 39 41 42 43 44 46 47 48 50 51 53 55 57 58 60 61 61 61 62 63 63 64 65 65 65 65 65 64 62 61 60 59 57 55 54
22 23 25 27 27 28 29 30 33 35 36 36 36 37 39 40 42 42 45 46 47 48 49 51 52 53 55 57 58 60 60 60 61 62 63 64 64 65 65 66 66 66 65 63 62 62 60 59 58
24 25 26 28 29 30 30 31 33 35 36 35 35 37 39 40 42 43 45 46 46 47 48 49 50 51 53 54 55 57 58 59 59 60 62 63 63 64 65 66 66 66 66 65 64 64 63 62 61
26 27 28 29 31 32 31 31 33 34 35 35 36 37 39 40 42 42 43 44 44 45 46 47 48 49 50 52 53 54 56 57 58 59 61 62 63 64 65 65 65 65 66 66 65 65 65 64 63
28 29 30 31 32 33 34 33 33 33 34 35 36 38 40 41 42 41 43 43 43 44 45 46 47 48 48 49 50 52 53 55 56 57 59 61 62 63 64 65 65 65 66 66 67 66 66 65 65
30 30 31 32 33 34 34 35 33 34 34 36 37 39 41 41 42 42 42 42 42 44 45 45 46 46 46 46 47 50 50 52 54 55 56 58 60 62 63 64 65 65 65 66 66 65 66 66 65
32 33 33 34 35 35 35 37 35 35 36 37 39 40 41 42 42 42 42 42 42 44 44 44 44 44 44 45 47 48 49 50 52 54 55 56 58 60 61 62 63 64 64 64 65 65 66 66 66
34 35 35 36 36 36 35 37 37 37 37 38 40 41 42 42 42 42 43 43 43 43 43 43 41 42 43 44 46 47 47 49 50 52 53 54 56 57 58 61 63 62 63 63 64 65 65 66 66
35 36 37 38 38 38 37 38 37 38 39 40 41 42 43 43 43 43 43 44 44 44 43 41 41 41 43 44 45 45 47 48 48 49 52 53 55 57 58 60 62 61 62 63 62 64 63 65 66
35 36 37 39 40 40 39 39 39 39 40 42 43 43 44 43 43 44 44 44 44 43 42 41 41 41 43 44 44 45 46 46 47 49 51 53 53 53 56 58 61 60 59 60 60 61 61 63 64
36 36 37 39 41 41 41 41 40 41 42 43 44 44 44 44 44 45 45 44 44 43 42 41 42 43 43 43 44 45 46 46 46 47 49 51 52 52 55 57 59 58 57 56 58 58 58 60 62
38 38 38 38 41 43 44 42 42 42 43 44 45 45 45 46 46 46 45 44 44 43 43 43 44 45 44 43 43 44 44 44 44 45 46 49 50 51 53 54 55 57 57 55 55 57 57 59 60
38 38 39 40 41 43 45 43 43 44 45 45 46 46 46 47 47 46 45 45 44 43 43 43 44 44 44 43 42 41 42 43 42 42 43 45 47 48 51 51 52 54 55 55 55 55 56 57 58
39 39 40 41 42 43 46 45 43 44 45 46 46 47 47 47 48 47 45 44 44 42 42 42 42 43 42 40 40 40 39 39 40 40 40 41 43 45 47 48 49 51 52 51 52 54 54 55 56

GEFSSGP_500_meanwind_192.txt.gz
Wind_Speed
23 23 23 23 23 23 22 22 22 20 20 20 21 22 23 23 23 24 22 21 21 22 22 22 22 23 23 23 23 23 23 23 23 23 23 23 22 22 23 22 22 22 21 20 19 18 18 18 17
24 24 24 25 25 23 24 25 23 22 21 22 23 24 25 25 24 24 24 23 24 24 24 25 25 25 25 25 25 25 25 25 25 25 25 25 24 24 24 24 24 24 23 22 22 21 20 19 19
25 25 25 25 25 25 26 25 23 23 24 25 25 26 26 25 25 26 26 26 27 27 27 27 27 28 28 28 28 28 28 28 28 28 28 27 27 27 26 26 26 25 25 25 25 24 22 22 21
26 27 27 26 26 26 27 26 24 25 26 26 27 27 27 27 27 28 28 29 29 29 29 30 30 30 30 30 30 31 30 30 30 30 29 30 29 29 29 28 28 28 27 27 26 26 25 24 24
26 27 28 27 27 28 27 26 26 27 27 27 28 28 28 28 29 30 31 31 32 32 32 33 33 33 34 34 34 34 33 33 33 32 32 32 32 31 31 31 30 30 30 29 29 27 27 26 25
26 27 27 27 27 28 27 27 27 28 28 28 29 30 29 29 30 31 32 33 34 34 35 35 36 36 36 36 37 37 36 36 36 36 35 35 35 35 34 34 34 33 33 32 31 30 28 27 27
24 25 26 26 27 27 26 27 28 28 29 28 30 31 30 30 31 32 33 34 35 35 36 36 37 37 38 39 39 39 40 39 39 39 38 38 37 37 37 37 37 36 36 35 35 33 32 30 29
23 24 24 25 26 27 25 27 27 29 29 29 30 31 30 30 32 33 34 35 35 36 37 37 38 38 39 40 40 41 41 41 41 41 41 41 40 40 40 40 40 39 39 38 37 37 35 34 33
23 23 23 24 25 25 25 26 27 28 29 29 30 31 30 31 32 33 34 34 35 36 37 37 38 39 40 40 41 42 43 43 44 44 44 43 43 43 43 42 42 42 41 41 41 40 39 38 36
22 23 23 23 24 25 25 25 26 27 27 28 29 30 31 32 32 33 34 35 36 37 38 39 40 41 41 42 42 43 44 44 45 46 46 46 46 46 45 45 45 45 44 44 44 43 43 41 40
21 21 21 23 24 24 25 25 25 26 27 27 28 29 30 31 32 33 35 36 37 38 39 40 41 42 43 44 45 45 46 46 47 47 47 47 48 48 48 48 48 48 47 47 46 46 45 44 43
20 20 21 21 22 23 24 24 25 25 26 27 28 29 30 31 32 34 35 37 38 39 41 42 43 45 46 46 47 47 48 48 49 49 49 50 51 51 51 51 51 51 50 50 49 49 48 47 46
20 20 21 21 22 23 24 24 24 25 26 27 28 29 30 32 33 34 36 37 39 40 42 43 45 46 47 48 49 50 50 51 51 51 52 52 53 53 53 54 54 54 53 53 52 52 51 51 50
20 20 21 21 22 23 24 24 24 24 27 28 29 30 31 33 34 35 37 38 40 41 43 44 45 46 47 49 50 52 53 53 54 54 54 55 55 55 55 55 56 56 56 55 55 55 54 54 52
20 21 21 22 23 23 24 25 25 25 27 29 30 31 32 33 35 36 37 39 40 41 42 43 45 46 47 49 51 53 54 55 56 57 58 58 58 58 58 58 58 58 58 58 57 57 57 56 55
21 21 22 22 23 24 25 25 26 26 28 29 30 32 33 34 36 37 38 39 40 42 43 44 46 47 48 50 52 54 55 56 57 59 60 60 61 60 60 61 60 60 60 60 60 59 59 58 57
21 22 22 23 23 24 25 25 26 27 28 30 31 32 34 35 36 37 39 40 42 43 45 47 48 49 50 52 53 55 56 58 59 61 62 63 63 63 63 63 63 63 63 62 61 61 61 61 60
22 23 23 24 24 24 26 26 27 28 29 30 32 33 35 36 37 38 40 41 43 44 46 48 49 51 52 53 55 56 57 59 60 62 62 63 65 66 66 65 65 64 64 63 63 63 63 63 62
24 25 24 25 26 26 27 27 27 29 31 32 33 34 35 37 38 39 41 42 44 46 47 49 50 51 53 54 55 56 57 58 59 60 62 63 64 66 66 66 66 65 64 63 63 63 63 63 63
26 27 27 27 28 29 29 29 29 30 32 33 34 36 37 38 39 40 42 44 46 47 48 49 50 51 52 53 54 54 54 56 57 58 59 60 62 63 64 64 64 63 64 63 63 63 64 63 63
28 29 29 30 30 31 32 31 30 31 33 34 35 36 38 39 40 41 43 45 46 47 48 49 50 51 51 52 52 51 52 54 55 56 56 57 59 59 60 62 63 63 63 62 62 63 64 62 62
30 30 31 31 32 32 33 35 31 32 33 35 36 37 38 39 41 43 44 45 47 48 49 50 51 51 51 50 50 51 51 52 53 54 53 55 56 56 57 59 61 61 62 62 62 62 63 63 62
32 32 32 33 34 34 34 37 35 35 35 36 37 38 39 40 42 43 45 46 47 48 49 50 50 50 49 49 50 50 49 50 50 52 52 53 53 54 54 56 59 60 61 60 60 61 61 62 62
34 34 35 36 36 37 35 37 38 37 37 38 39 39 41 42 43 44 46 47 47 48 49 49 48 49 49 49 49 48 48 48 49 50 50 51 51 52 53 54 56 58 59 59 59 60 61 60 61
36 36 37 39 39 39 38 39 39 39 39 39 40 41 42 43 44 45 46 47 48 49 49 49 48 48 48 48 46 46 47 48 48 48 48 49 49 50 51 52 54 56 58 59 59 60 61 60 60
38 38 39 41 42 42 41 41 40 40 40 41 42 43 44 45 46 47 47 48 49 50 49 48 49 48 48 47 46 47 47 48 48 47 47 47 48 49 50 52 54 55 57 58 59 60 61 60 60
40 39 39 41 43 44 43 43 42 42 42 42 44 45 46 47 48 48 49 49 50 50 49 49 48 47 47 46 46 47 47 47 47 47 47 47 48 48 51 51 52 54 55 56 57 58 59 60 60
42 41 41 42 44 45 45 44 43 44 43 44 45 46 47 48 49 50 50 50 50 49 48 48 47 47 46 45 46 47 47 46 46 45 44 46 47 49 50 51 51 53 54 53 54 57 59 60 59
42 42 43 44 44 46 47 45 44 45 45 46 46 47 48 49 50 50 50 51 51 51 49 47 47 47 47 48 47 47 46 44 45 45 46 46 46 48 49 50 51 51 51 52 52 53 55 58 58
44 43 43 44 45 46 47 45 44 45 46 46 47 48 49 50 51 51 51 51 52 51 50 49 48 48 48 48 48 47 47 47 47 47 48 48 47 46 47 49 50 51 51 51 49 49 52 54 54

GEFSSGP_500_meanwind_198.txt.gz
Wind_Speed
23 23 23 23 24 23 23 22 22 21 21 21 21 21 20 20 20 19 18 18 18 19 19 20 20 20 21 21 22 22 22 22 22 22 23 23 23 23 23 23 22 22 22 22 21 20 20 19 19
24 24 25 25 25 24 23 22 22 22 23 23 22 22 22 21 21 20 19 19 20 20 21 22 22 22 22 22 23 24 24 25 25 25 25 25 25 25 25 25 25 24 24 23 23 23 22 21 21
26 26 26 26 26 25 23 23 23 23 24 24 23 23 23 23 22 22 21 22 22 22 23 24 24 24 24 25 25 26 26 26 27 27 28 28 28 28 27 27 27 27 26 26 25 25 24 24 22
26 27 27 27 27 25 25 25 25 25 25 25 25 24 24 24 24 24 24 24 24 25 25 25 26 26 27 27 27 28 28 28 29 29 30 30 30 30 30 30 30 29 29 29 28 27 27 26 25
27 27 28 28 28 27 27 27 27 26 26 26 26 26 25 25 25 25 25 26 26 27 27 27 28 28 29 29 29 30 30 31 31 32 32 32 32 32 32 32 32 32 31 31 30 30 30 29 28
26 27 28 28 28 28 28 28 28 28 27 27 27 27 26 27 27 27 27 27 28 28 29 29 30 30 31 31 32 33 33 34 34 34 34 35 35 35 35 35 35 34 34 34 33 33 32 31 30
24 25 26 27 27 27 28 29 29 29 29 29 28 28 28 28 28 28 29 29 29 30 30 31 31 32 32 32 33 34 35 36 36 37 37 37 37 37 37 37 37 37 36 36 36 35 35 34 33
25 25 25 25 25 26 27 28 29 29 29 29 28 28 28 29 29 29 29 29 30 30 31 32 32 32 33 34 34 35 36 36 37 38 38 39 39 39 39 39 39 39 39 39 39 38 37 37 36
24 24 24 24 24 24 26 27 28 28 28 28 28 28 28 29 29 30 30 30 30 31 32 32 33 33 34 35 35 36 37 37 38 39 39 40 40 41 41 41 41 41 41 41 41 41 40 39 39
23 23 23 24 24 24 25 26 27 27 27 27 27 27 28 29 29 29 29 30 30 31 32 32 33 34 35 35 36 37 38 39 39 40 41 41 42 42 42 43 43 43 44 44 44 43 43 42 41
21 22 23 24 24 24 24 25 26 26 25 26 26 26 26 27 27 27 28 29 30 31 31 32 34 34 36 37 38 39 40 40 41 42 42 43 44 44 45 45 45 45 46 46 46 46 46 45 44
20 21 22 22 22 23 23 24 24 24 24 25 25 25 25 25 26 26 27 28 29 31 32 33 34 35 36 37 39 40 41 42 43 44 45 45 46 46 47 47 47 47 48 49 49 49 48 48 48
20 20 21 22 22 22 22 22 23 23 24 25 25 25 25 25 26 27 28 29 29 30 31 33 34 36 37 38 39 40 42 43 44 45 46 47 48 49 49 50 49 50 51 51 51 52 52 51 51
20 20 21 21 22 22 22 22 22 22 24 24 25 25 26 26 27 28 28 29 30 31 32 34 35 36 37 38 40 41 43 44 46 47 48 49 50 51 51 51 52 52 53 53 53 53 54 54 54
20 20 21 21 22 22 23 23 23 23 24 24 25 25 26 27 27 28 29 30 31 32 33 34 35 37 38 39 41 42 43 45 46 48 49 50 52 53 53 53 53 54 55 55 55 55 55 56 56
21 21 21 21 22 22 23 22 23 23 23 24 24 25 26 27 28 28 29 30 32 33 34 35 37 38 39 41 42 43 44 46 47 49 50 51 53 54 55 56 56 56 57 58 58 58 58 58 57
22 22 22 22 23 23 23 23 23 23 23 24 24 25 26 27 28 29 30 31 32 34 35 36 38 39 41 42 43 45 46 48 49 50 51 52 54 55 56 58 59 59 60 60 61 61 61 61 60
23 24 24 23 24 24 24 24 24 25 25 25 26 26 27 28 29 30 31 32 34 35 36 37 39 41 42 43 45 46 48 49 51 52 53 54 55 56 57 59 60 61 63 63 63 64 64 63 63
26 26 26 25 26 26 25 25 25 26 26 26 26 27 28 29 30 31 32 33 34 36 37 38 40 41 43 44 46 47 48 50 51 53 54 55 56 57 58 60 61 63 64 65 66 66 66 65 65
28 28 27 27 28 27 27 27 26 27 27 27 28 28 29 29 30 32 33 33 35 36 38 39 40 42 43 45 46 47 48 49 50 51 53 55 57 58 59 60 61 62 63 64 65 66 66 66 66
29 29 29 29 29 30 29 28 27 27 28 29 29 30 30 31 32 33 34 35 36 38 39 40 41 43 44 45 46 47 49 50 51 52 54 55 57 58 58 59 59 60 61 62 62 64 65 65 65
31 31 31 31 31 31 31 31 28 28 29 30 30 31 32 33 33 34 35 37 38 39 40 41 43 44 45 46 48 49 50 51 53 54 54 55 56 56 57 57 57 57 58 59 59 60 61 63 63
33 33 33 33 33 34 33 34 31 29 30 30 31 32 33 34 35 35 37 38 39 40 42 43 45 46 47 48 50 51 52 53 54 55 55 55 55 55 55 56 56 55 55 55 56 57 57 59 59
36 36 36 36 36 36 35 36 35 32 32 32 33 34 35 35 36 37 38 39 40 42 43 45 46 47 49 50 51 53 54 55 56 55 55 54 54 54 55 55 55 55 54 54 53 53 54 55 56
37 37 37 38 38 38 37 37 37 35 34 34 35 35 36 36 37 38 39 40 41 43 45 46 47 49 50 51 52 54 55 56 56 56 54 53 53 53 54 54 53 53 53 53 53 53 53 54 55
37 37 38 39 40 40 39 39 38 38 37 36 37 37 37 37 38 39 40 41 43 44 46 47 48 50 51 52 53 55 56 56 54 53 52 51 51 52 52 52 51 51 52 52 53 53 53 54 55
39 39 39 40 42 42 41 41 39 39 39 38 38 38 39 39 40 41 42 43 44 45 47 48 49 51 52 53 54 55 55 53 52 51 51 50 50 50 49 50 49 49 51 52 53 53 53 54 55
39 39 39 39 42 43 43 41 40 40 40 40 40 40 40 41 42 43 44 44 45 46 47 49 50 51 52 53 54 54 53 52 51 51 51 50 50 48 48 48 49 50 50 52 53 53 53 54 54
40 40 41 42 43 44 44 42 41 41 41 41 41 41 42 43 44 44 45 45 46 47 48 49 50 51 52 53 53 53 52 51 50 50 50 49 49 48 48 49 49 50 51 51 52 52 53 54 55
42 41 41 42 42 44 45 43 41 42 42 42 42 43 43 44 44 45 45 46 47 48 49 50 51 51 52 53 52 51 50 49 49 49 50 50 49 49 48 48 48 49 49 49 50 50 51 52 53

GEFSSGP_500_meanwind_204.txt.gz
Wind_Speed
25 25 26 26 26 25 23 22 22 22 22 23 22 22 21 21 21 21 20 20 20 20 19 19 19 19 18 18 18 18 18 18 19 19 19 19 19 19 19 19 19 19 19 19 19 19 18 18 18
27 27 27 27 27 25 23 22 23 23 24 24 23 23 23 22 22 21 21 21 21 21 20 20 20 20 20 20 20 20 20 20 20 21 21 21 21 21 21 21 21 21 21 21 21 21 21 20 20
28 28 28 28 27 25 24 24 24 25 25 25 25 25 24 23 23 23 22 22 22 22 22 22 22 22 21 21 21 22 22 22 23 23 23 23 24 24 24 24 24 24 24 24 24 23 23 23 22
29 29 30 29 27 26 26 26 26 25 25 25 26 26 25 25 25 24 24 24 23 23 23 23 23 23 23 23 23 23 24 24 25 25 25 26 26 26 26 26 26 26 26 26 26 26 26 25 25
29 30 30 29 28 27 27 28 27 27 26 26 27 27 26 26 26 26 26 26 25 25 25 24 25 25 25 25 25 25 25 26 26 27 27 27 28 28 28 28 28 28 29 29 28 28 28 28 27
29 30 30 29 28 28 28 29 29 29 29 28 28 28 27 27 27 27 27 27 27 26 26 26 26 26 26 26 27 27 27 28 29 29 30 30 30 30 31 31 31 31 31 31 31 31 30 30 30
27 29 29 28 28 29 29 30 30 31 31 31 30 30 29 29 29 29 29 28 28 28 28 27 27 28 28 28 29 29 30 30 30 31 31 31 32 32 32 32 33 33 33 33 33 33 33 33 32
28 28 28 27 28 28 29 30 31 31 31 31 31 31 30 30 30 30 30 30 29 29 29 29 29 29 29 30 30 31 31 31 32 32 32 32 32 33 33 34 34 35 35 35 35 35 36 36 35
27 27 26 26 28 29 30 31 31 31 31 31 31 31 31 31 31 31 31 30 30 30 30 30 30 31 31 31 31 31 32 32 32 32 32 33 33 34 34 35 35 36 37 37 37 38 38 38 38
26 25 25 27 28 29 30 30 30 30 30 30 31 31 32 32 31 31 31 31 31 31 31 31 31 31 31 32 32 32 32 33 33 33 34 34 35 35 36 36 37 37 38 39 39 39 40 40 41
24 24 25 26 27 28 28 29 29 29 29 29 30 31 31 31 31 31 31 31 31 31 31 31 31 31 31 32 32 32 33 33 34 35 35 36 37 37 38 38 39 39 40 41 41 41 42 43 43
24 24 25 25 26 26 26 27 27 27 27 28 29 29 29 29 30 30 30 30 30 30 30 30 30 30 31 31 32 32 33 34 35 36 37 38 38 39 40 40 41 41 42 43 43 44 44 45 45
25 25 25 25 25 25 26 26 26 25 26 27 27 27 28 28 29 29 29 29 29 29 29 29 30 30 31 32 33 33 34 35 35 36 37 38 40 41 42 43 43 44 44 45 46 46 47 47 48
26 26 25 25 25 26 26 26 26 24 26 26 26 26 27 27 28 28 28 28 28 29 29 29 30 30 31 32 33 34 35 35 36 38 39 40 41 42 43 44 45 46 47 48 48 49 50 51 51
28 27 26 26 26 26 26 26 25 26 27 26 26 26 27 27 27 27 28 28 28 29 29 29 30 31 32 33 34 35 36 37 38 39 40 42 43 43 45 46 46 48 49 50 50 51 52 53 54
29 28 27 26 26 26 27 25 26 26 27 26 26 27 27 27 27 27 28 28 29 29 30 30 31 32 33 34 35 36 37 39 40 41 42 44 45 45 46 47 48 49 50 52 52 53 54 55 55
29 28 27 27 27 27 27 26 26 26 27 27 27 27 27 27 27 28 28 28 29 29 30 31 32 33 34 35 36 37 39 40 41 43 44 45 45 46 48 48 49 50 52 53 54 55 56 56 57
29 29 28 28 28 28 28 27 27 27 27 28 28 28 27 27 28 28 29 29 29 30 31 32 33 34 35 36 37 39 40 42 43 44 46 47 48 49 50 51 52 54 55 56 57 57 58 59 60
31 31 30 29 30 30 29 28 28 28 28 28 29 29 28 28 29 30 30 30 30 30 31 32 33 34 35 36 38 39 41 42 44 45 47 48 49 50 52 53 54 56 57 58 58 58 59 61 62
33 32 31 31 31 31 30 30 29 29 28 29 29 29 29 30 31 30 31 31 31 32 33 34 35 36 37 38 40 41 42 44 45 47 48 50 51 53 54 56 56 57 58 59 60 60 60 60 63
35 34 33 33 33 33 32 31 30 30 30 30 30 30 30 31 31 32 32 32 33 33 34 35 36 37 38 40 41 43 44 45 47 49 50 51 53 54 55 56 57 58 59 59 60 60 60 60 61
36 35 35 35 35 35 35 35 31 32 32 31 31 31 31 31 32 33 33 33 34 35 35 36 37 38 40 41 43 44 46 47 48 50 51 52 53 54 55 56 57 58 59 59 59 59 60 60 61
38 37 37 37 38 38 37 38 33 32 32 32 32 32 32 33 33 34 34 35 35 36 37 38 39 40 41 43 45 46 48 49 50 50 51 53 54 55 56 57 58 58 58 59 59 59 59 59 59
40 39 39 40 40 41 38 39 37 34 33 33 33 34 34 35 35 35 36 37 37 38 38 39 40 42 43 45 47 48 49 50 50 51 52 53 54 55 56 57 57 57 57 58 57 57 57 57 57
41 41 41 42 42 42 39 40 39 36 35 34 34 35 36 36 36 37 37 38 38 39 40 41 42 44 45 47 48 49 50 51 52 53 54 54 55 55 55 56 56 56 57 57 57 56 56 56 56
41 41 41 42 42 42 41 40 39 38 37 36 36 36 37 37 37 38 38 39 40 41 41 43 44 45 47 48 49 50 52 53 54 54 54 55 54 54 54 55 55 55 56 56 56 56 55 55 55
43 43 42 43 43 43 43 41 39 38 38 38 38 38 38 38 38 39 39 40 41 42 43 44 45 47 48 49 51 52 53 54 54 54 54 54 54 54 54 54 55 55 55 54 54 55 55 54 54
45 43 43 44 45 45 44 42 40 39 38 38 38 39 39 39 39 40 40 41 42 43 44 45 46 48 49 50 51 52 53 54 54 54 54 54 54 55 55 56 56 55 54 54 55 55 54 54 53
43 44 45 45 46 46 45 43 41 40 40 40 39 39 40 40 40 41 41 42 43 44 45 46 47 49 50 51 52 52 53 54 54 53 53 54 55 56 57 57 56 54 54 54 55 55 55 54 54
42 42 42 44 46 47 46 45 42 41 41 41 40 40 40 41 42 42 43 43 44 44 45 46 48 49 50 51 51 52 53 54 53 53 53 54 55 56 57 56 55 54 54 54 54 54 54 53 53

GEFSSGP_500_meanwind_210.txt.gz
Wind_Speed
26 26 27 27 28 28 26 24 24 24 24 24 24 24 23 23 23 23 22 22 22 21 21 21 20 19 19 18 18 17 17 17 16 16 16 16 16 16 16 16 16 16 16 16 17 17 17 17 17
27 27 28 28 28 27 26 24 24 25 25 25 25 24 24 24 23 23 22 22 21 21 21 21 21 20 20 20 19 19 19 18 18 18 18 18 18 18 18 17 17 18 18 18 18 19 19 19 19
28 28 29 29 28 26 25 25 25 25 25 25 25 25 24 23 23 23 23 22 22 22 22 22 21 21 21 21 21 20 20 20 20 20 20 20 20 20 20 20 19 20 20 20 20 21 21 21 21
28 29 29 29 27 26 26 26 26 26 26 25 25 25 24 24 24 24 24 24 23 23 22 22 22 22 22 22 22 22 22 22 22 22 22 22 22 22 22 22 22 22 22 23 23 23 23 24 24
29 30 29 28 27 27 27 28 28 28 28 27 27 26 25 25 25 25 25 25 24 24 24 23 23 23 23 23 23 23 23 23 23 23 23 23 23 24 24 24 24 25 25 25 26 26 25 26 26
29 29 30 28 27 28 29 29 29 29 29 29 28 27 27 26 26 26 26 26 26 25 25 25 24 24 24 24 24 24 24 24 24 24 24 25 25 26 26 26 27 27 27 28 28 28 28 28 28
29 29 29 28 28 29 29 30 30 31 31 30 30 29 28 28 27 27 27 27 27 27 27 26 26 26 26 26 26 26 25 25 25 26 26 26 27 27 27 28 28 29 29 29 29 30 29 30 30
29 29 29 28 28 29 30 31 31 31 31 31 31 31 30 30 29 29 29 28 28 28 28 28 27 27 27 27 27 27 26 26 27 27 27 28 28 29 29 29 30 30 30 31 31 31 31 32 32
30 29 28 27 29 30 31 31 31 31 32 32 32 31 31 31 31 31 31 30 30 30 29 29 29 28 28 28 28 28 28 28 28 28 29 29 29 30 30 31 31 32 32 32 33 33 34 34 34
30 29 27 28 29 30 31 31 31 31 31 32 32 32 32 32 32 32 32 32 32 31 31 30 30 30 29 29 29 29 29 29 29 30 30 30 30 31 31 32 32 33 33 34 34 35 35 36 37
30 29 28 29 29 30 30 31 31 31 31 31 32 32 32 32 32 33 33 33 33 32 32 31 31 30 30 30 30 30 30 30 30 30 30 31 31 31 32 32 33 34 34 35 35 36 37 37 38
30 29 29 29 30 30 31 31 31 30 30 31 31 32 32 32 32 32 32 32 32 32 32 32 31 31 31 31 31 31 31 30 30 30 30 31 31 32 33 34 34 35 36 36 37 37 38 39 39
31 30 30 30 30 30 30 31 31 30 30 31 31 31 31 31 31 31 31 31 31 31 31 31 32 32 32 31 31 31 30 30 30 31 32 33 33 34 35 36 36 37 38 38 39 40 41 41 42
31 30 30 30 30 30 30 30 30 29 30 30 30 30 30 30 30 30 30 30 30 31 31 31 31 31 31 31 31 30 30 31 31 32 33 34 34 35 36 37 37 38 39 40 41 41 42 43 44
33 32 31 31 31 30 30 30 29 30 30 30 29 29 29 30 30 30 30 30 30 30 30 30 31 31 31 31 31 31 31 32 32 33 34 35 35 36 37 38 39 40 41 42 43 43 44 45 46
34 34 33 31 32 31 31 29 29 30 31 30 30 30 30 30 30 30 30 30 29 30 30 30 31 31 31 31 31 32 32 33 33 34 35 36 37 38 39 40 41 42 43 44 44 45 46 47 47
36 35 33 33 33 33 32 30 30 31 31 31 31 31 30 30 30 30 30 30 29 29 30 30 30 31 31 31 32 32 33 34 34 35 36 37 38 39 40 41 42 43 44 45 46 47 48 49 50
36 35 34 34 34 34 33 31 31 32 32 32 32 31 31 31 31 30 30 30 30 29 29 29 30 30 31 31 32 33 33 34 35 36 37 38 40 41 41 42 43 44 45 46 47 48 50 52 53
37 37 36 35 35 35 34 33 32 33 33 32 32 32 32 31 31 31 30 30 30 30 29 30 30 31 31 32 33 34 34 35 36 37 38 39 41 42 43 44 45 46 47 48 50 51 52 53 54
38 38 37 37 37 37 36 34 33 33 33 32 32 32 32 32 31 31 31 30 30 30 30 30 31 31 32 33 33 34 35 36 37 38 40 41 42 43 45 45 46 47 49 50 51 52 53 54 56
39 38 37 37 37 37 37 36 34 34 34 33 33 32 32 32 32 31 31 31 31 30 30 31 32 33 33 34 35 35 36 37 39 40 41 43 43 45 46 47 48 48 50 51 52 53 54 55 56
40 39 38 38 38 38 38 37 35 34 34 33 33 33 33 32 32 32 32 32 32 32 32 33 34 34 35 35 36 37 38 39 40 41 42 43 45 46 47 48 49 50 51 52 53 54 55 56 57
41 39 39 39 39 40 38 39 35 34 34 33 33 33 33 33 33 33 33 33 33 33 34 35 35 35 36 37 38 39 40 41 41 42 43 45 46 47 48 49 50 51 52 52 53 54 55 56 57
41 40 40 40 41 41 39 39 37 34 33 33 33 34 34 34 34 34 34 35 35 35 36 36 35 36 37 38 39 40 41 42 43 44 45 46 47 48 49 50 51 51 52 53 53 54 55 56 56
41 40 40 41 42 42 39 39 38 35 33 33 33 34 34 35 35 35 35 36 36 36 37 37 37 37 39 39 40 41 42 43 44 45 46 47 48 49 49 50 51 52 53 53 53 54 54 54 55
41 41 40 41 41 41 40 40 39 36 34 34 33 34 35 35 35 36 36 36 37 37 37 38 38 39 40 41 42 42 43 44 45 46 47 48 49 49 49 50 51 52 53 53 54 54 54 55 55
42 42 41 42 42 42 43 41 40 37 35 35 34 34 34 35 36 36 36 37 37 38 38 38 39 40 41 42 43 44 45 46 47 47 48 49 50 50 50 51 52 53 54 55 55 55 56 56 56
43 42 42 42 43 43 44 42 40 38 36 36 36 35 35 36 36 36 37 37 37 38 38 39 40 41 42 43 44 45 46 46 47 49 50 50 50 50 51 52 53 54 55 56 57 57 57 57 57
43 43 44 44 45 44 45 44 41 39 38 37 36 36 37 37 37 37 37 38 38 38 39 40 41 42 43 44 45 46 46 47 49 50 50 50 50 51 52 53 54 55 56 57 58 58 57 57 56
44 43 43 44 45 45 45 45 42 40 39 38 38 37 38 38 38 38 38 38 39 39 40 41 42 43 44 45 46 47 47 48 49 50 50 51 51 52 52 53 54 55 56 57 58 57 56 56 56

GEFSSGP_500_meanwind_216.txt.gz
Wind_Speed
29 29 29 29 29 29 26 26 26 26 26 24 24 24 24 25 24 24 21 21 21 21 21 20 20 20 19 19 18 18 18 17 17 16 16 16 16 16 15 15 15 15 15 15 15 15 15 15 15
29 29 30 30 30 28 26 26 27 27 26 25 26 26 26 26 25 25 23 22 21 21 21 21 20 20 20 20 19 19 19 19 18 18 18 17 17 17 17 17 17 16 16 17 17 17 17 18 18
30 30 30 30 29 28 27 28 29 28 26 27 27 27 27 26 25 25 24 24 22 22 22 21 21 21 21 20 20 20 20 20 20 19 19 19 19 19 18 18 18 18 18 19 19 19 19 20 20
31 31 31 31 28 28 29 29 28 27 27 28 28 28 27 26 26 26 25 24 23 23 22 22 22 21 21 21 21 21 21 21 21 21 21 21 20 20 20 20 20 20 20 21 21 21 22 22 23
32 32 32 31 28 28 29 30 28 28 29 29 29 29 28 27 27 27 26 25 24 24 24 23 23 23 23 22 22 22 23 22 22 22 22 22 22 22 22 22 22 22 23 23 24 24 24 25 25
33 33 33 31 29 30 30 30 30 30 30 31 31 29 28 28 27 27 27 26 25 25 25 25 24 24 24 23 23 23 23 23 23 23 23 23 23 23 24 24 24 25 25 25 25 25 26 26 26
34 34 34 32 32 32 31 31 32 31 32 32 31 30 29 29 28 28 28 27 26 26 26 26 25 25 25 25 25 24 24 24 24 24 24 24 25 25 25 25 26 26 26 26 26 26 27 28 28
35 35 34 33 33 32 32 33 33 32 32 32 32 31 29 29 30 30 29 28 28 28 27 27 27 27 26 26 26 26 26 26 25 25 25 25 26 26 26 26 27 27 27 27 28 28 29 29 30
36 36 34 33 34 34 33 33 33 33 33 32 33 31 30 31 31 31 30 30 29 29 29 28 28 28 28 28 27 27 27 27 27 26 26 26 27 27 27 27 28 28 28 29 29 30 30 31 31
37 36 34 34 34 34 34 34 33 33 33 33 33 32 31 32 31 32 31 31 31 30 30 30 29 29 29 29 29 28 28 28 28 28 28 28 28 28 28 29 29 29 30 30 30 31 31 31 32
37 36 34 35 34 35 35 34 34 34 34 33 33 33 32 32 32 33 32 32 32 32 32 31 31 31 31 30 30 30 30 30 29 29 29 29 29 29 29 29 29 30 30 30 31 32 32 33 33
38 37 36 35 35 36 35 35 35 34 34 34 33 33 33 33 33 33 33 33 33 33 33 33 33 32 32 32 31 31 31 31 31 31 30 30 30 30 30 30 30 31 31 32 33 33 34 35 35
39 38 37 37 37 37 36 36 36 35 34 34 34 34 34 34 34 34 34 33 33 33 33 33 32 32 32 32 32 31 31 31 31 31 31 31 31 31 31 31 31 32 33 33 34 34 35 36 36
40 39 38 38 37 37 37 37 36 34 35 34 35 34 34 34 33 34 33 33 32 32 32 32 32 32 32 32 31 32 32 32 32 32 32 32 31 31 32 32 33 33 34 34 35 35 36 37 38
41 40 39 38 37 37 38 38 36 35 36 35 35 34 34 34 33 33 33 32 32 32 32 32 32 32 32 32 32 32 32 32 32 32 32 32 33 33 33 34 34 35 36 36 37 38 38 39 40
42 42 41 38 38 38 39 37 36 36 36 35 35 34 34 34 34 33 33 32 32 32 31 32 32 32 33 33 33 33 32 32 32 33 33 33 34 34 35 35 36 36 37 37 38 39 40 41 42
43 42 41 40 39 40 40 38 36 36 36 36 35 35 35 34 34 34 33 33 32 32 32 32 32 33 32 32 33 32 32 32 32 33 33 34 34 35 36 36 37 37 38 39 40 41 42 42 43
41 41 41 41 40 41 41 39 37 37 37 36 36 35 35 35 35 35 34 34 33 33 32 33 33 33 32 32 32 32 33 33 33 33 34 35 35 36 37 38 38 39 40 41 42 43 44 44 45
43 43 42 42 41 42 42 40 39 38 38 37 37 36 36 35 36 35 35 34 34 33 33 33 33 33 33 32 32 32 32 33 33 33 34 35 36 37 38 39 40 40 42 43 44 44 45 46 47
45 44 44 43 43 43 43 42 40 40 39 38 38 38 37 37 37 36 36 35 35 34 34 33 33 33 33 32 33 33 33 33 34 35 35 36 37 38 39 40 41 42 43 44 45 45 46 47 48
46 45 44 44 44 45 44 43 41 40 40 39 38 38 38 37 37 37 36 36 35 35 34 34 33 33 33 33 33 34 34 34 35 36 36 37 38 39 40 41 42 43 44 45 45 46 47 47 48
46 45 45 44 45 45 45 44 41 40 40 39 38 38 37 37 37 37 36 35 35 35 34 34 34 34 34 34 34 34 35 35 35 36 37 38 39 40 41 42 43 44 45 45 46 47 48 49 50
45 44 44 44 46 46 45 45 42 40 40 39 38 37 37 36 37 37 36 35 35 35 35 35 35 35 35 35 35 35 35 36 37 37 38 39 40 41 42 43 44 45 46 46 47 48 50 51 52
45 45 45 45 46 48 44 45 44 40 39 38 38 37 36 36 36 36 36 36 36 36 36 36 36 36 36 36 36 36 37 37 38 39 39 40 42 43 44 45 46 46 47 47 49 50 51 52 52
46 45 45 46 48 48 44 45 45 40 38 38 37 36 36 36 36 36 36 36 36 36 36 37 37 37 37 37 37 37 38 38 39 40 41 42 43 44 45 46 47 47 48 49 50 50 51 52 53
46 45 46 46 47 46 46 46 44 41 39 38 37 36 36 36 37 37 36 36 36 36 37 37 37 37 38 38 38 39 39 40 41 42 43 44 45 46 47 47 47 48 49 49 50 51 52 53 54
48 47 45 45 46 46 46 46 44 42 40 38 37 36 36 36 37 37 37 37 37 37 37 37 37 38 38 39 39 40 41 42 43 44 44 45 46 47 47 47 48 49 50 51 51 52 54 55 55
47 46 45 45 45 45 45 45 44 42 41 40 38 37 36 36 37 37 38 37 37 37 37 38 38 38 39 40 41 41 42 43 44 44 45 46 47 48 48 48 49 50 51 52 53 54 55 56 56
45 46 46 46 45 45 44 44 42 42 41 40 39 38 37 37 37 37 37 37 37 37 38 38 39 39 40 41 41 42 43 44 44 45 46 47 48 48 48 49 50 51 52 53 54 55 56 57 57
44 45 45 45 45 45 45 44 41 41 41 40 39 39 38 38 38 38 38 38 38 38 38 39 39 40 40 41 42 43 44 44 45 46 47 48 48 48 49 50 51 52 53 55 56 56 57 57 57

GEFSSGP_500_meanwind_222.txt.gz
Wind_Speed
33 32 32 32 32 32 30 27 27 27 27 26 25 25 24 23 21 19 17 17 17 17 17 18 17 17 17 17 17 16 16 16 16 16 16 16 16 16 16 15 15 15 15 15 15 15 15 15 15
34 34 33 33 33 32 29 28 28 28 28 28 27 26 26 25 22 20 18 18 18 18 18 18 18 18 18 18 18 18 18 18 18 18 18 18 18 17 17 17 17 17 17 17 17 17 17 17 18
36 35 35 34 34 32 30 29 29 29 29 29 28 28 27 26 24 22 21 20 20 20 19 19 19 19 19 19 19 19 19 19 19 19 19 19 19 19 19 19 18 19 19 19 19 20 20 20 20
36 36 36 35 33 31 30 30 31 30 30 30 29 28 28 27 25 24 23 22 22 21 21 21 20 20 20 20 20 20 20 20 20 20 20 20 20 20 20 20 20 20 20 21 21 21 21 22 22
38 37 37 35 33 32 31 32 32 31 31 31 30 29 28 28 26 25 24 24 23 23 23 22 22 22 22 21 21 21 21 21 21 21 21 21 21 22 22 22 22 22 22 22 22 22 23 23 23
39 38 37 34 33 33 33 33 33 32 32 31 31 30 29 28 27 26 26 25 25 25 24 24 23 23 23 23 23 23 23 23 23 23 22 22 22 23 23 23 23 23 23 24 24 24 25 25 25
40 39 37 35 34 34 33 34 33 32 32 32 31 30 29 29 28 27 27 26 26 25 25 24 24 24 24 24 24 24 24 24 24 23 23 24 24 24 24 25 25 25 25 25 25 26 26 26 27
41 40 39 37 35 34 34 34 33 33 33 32 31 30 29 30 29 29 28 27 27 26 26 25 25 25 25 24 24 25 25 25 25 25 25 25 25 26 26 26 26 26 27 27 26 27 27 27 28
42 42 40 37 37 35 35 35 34 34 34 32 31 30 30 30 30 29 29 28 28 27 27 26 26 26 25 25 25 25 25 25 26 26 26 26 26 27 27 27 27 28 28 28 27 27 27 28 28
43 42 39 38 38 37 37 37 36 35 34 33 32 31 31 31 30 30 29 29 29 29 28 27 27 27 27 26 26 26 26 26 26 26 27 27 27 28 28 28 28 28 28 28 28 28 28 29 29
43 41 40 40 39 39 38 38 37 37 36 34 33 32 32 31 31 30 30 30 30 30 29 29 28 28 28 28 28 28 28 28 27 27 27 27 27 27 28 28 29 29 29 29 29 29 30 30 30
43 41 41 40 40 40 40 40 39 37 36 36 35 33 33 32 31 31 30 30 30 30 30 30 29 29 29 29 29 29 29 29 28 28 27 27 28 28 28 29 29 29 29 30 30 30 30 31 31
44 42 42 41 41 41 41 41 40 37 37 37 36 35 34 33 32 32 31 30 30 30 30 30 30 30 30 30 30 29 29 29 28 28 28 28 28 29 29 29 30 30 30 31 31 31 32 32 32
43 43 43 42 42 42 42 42 40 37 38 38 37 35 34 33 33 32 32 31 31 31 31 31 31 31 30 30 30 29 29 29 29 29 30 29 30 30 31 31 31 31 31 32 33 33 33 33 34
45 44 44 43 42 42 43 43 40 38 39 38 37 36 35 34 34 33 32 32 32 32 32 31 31 31 30 30 30 30 30 30 31 31 31 31 31 32 32 32 32 33 33 34 34 34 34 35 35
47 47 45 43 43 42 44 42 40 40 40 39 38 37 35 35 34 34 33 33 33 33 32 32 32 31 31 31 30 31 31 31 31 31 32 32 32 33 33 33 33 34 35 35 35 35 35 36 37
48 48 46 44 44 43 44 42 40 41 41 40 39 38 36 35 35 34 34 34 34 33 33 33 32 32 32 31 31 31 32 32 32 32 33 33 33 33 34 34 34 35 36 36 37 37 37 38 39
46 46 45 44 44 44 45 43 42 42 42 41 40 39 38 36 35 35 35 34 34 34 33 33 33 32 32 32 32 32 32 32 33 33 34 34 34 34 34 35 35 36 37 37 38 38 39 40 40
45 45 45 44 45 46 46 45 44 43 43 42 41 40 39 37 37 37 36 35 35 34 34 34 33 33 33 32 32 32 33 33 33 34 34 34 34 35 35 35 36 37 37 38 39 39 40 41 42
47 46 46 46 46 47 47 47 45 44 43 42 41 41 40 39 38 38 37 36 35 35 35 35 34 34 33 32 33 33 33 33 33 34 34 35 35 35 35 36 37 38 38 39 40 41 41 42 43
48 46 45 45 46 47 48 48 46 45 44 44 42 41 41 39 38 38 38 37 36 36 35 35 35 34 34 34 33 34 34 34 34 34 34 35 35 36 36 37 37 38 39 40 41 42 43 43 44
47 45 45 45 46 47 48 48 45 43 44 43 42 41 40 39 38 38 37 37 36 36 36 36 36 35 35 35 35 34 34 34 34 34 34 35 36 36 37 37 38 39 40 41 42 43 44 45 45
47 45 45 45 46 48 48 49 47 44 43 42 41 41 40 39 38 38 37 37 37 36 36 36 36 36 36 36 36 35 35 35 35 35 35 36 36 37 38 38 39 41 42 43 44 45 46 46 47
46 46 45 46 46 49 47 49 48 44 41 40 40 40 40 39 38 38 38 37 37 36 36 36 36 36 36 36 37 36 36 36 36 36 36 36 37 38 39 40 41 42 43 44 45 46 47 48 49
47 46 46 47 48 49 46 48 48 43 41 40 39 39 39 39 39 38 38 37 37 36 36 37 37 37 37 37 37 37 37 37 37 37 38 38 39 40 41 42 43 44 45 45 46 47 48 49 50
47 46 46 47 48 47 46 47 46 43 41 39 39 39 39 39 39 38 37 37 37 37 37 37 37 37 38 38 38 38 39 39 39 39 39 40 41 42 43 44 45 45 46 46 47 48 48 50 51
46 46 45 45 47 47 47 47 45 43 41 40 39 39 39 39 38 38 37 37 37 37 37 37 37 38 38 39 39 40 40 40 40 40 41 42 42 43 44 45 46 46 47 47 48 48 49 50 51
44 45 44 45 46 47 47 46 44 41 40 40 39 38 38 39 38 38 38 37 37 37 37 37 37 38 38 39 40 40 41 41 41 41 42 42 43 44 45 46 46 47 47 48 48 49 50 51 52
42 44 45 45 46 46 46 45 42 40 39 38 38 37 37 38 38 38 38 37 37 37 37 37 37 38 38 38 39 39 40 41 42 41 41 42 43 44 44 45 46 47 47 48 49 50 51 51 52
41 41 42 44 45 45 45 43 40 39 38 37 37 37 37 37 37 37 36 36 37 37 36 36 37 37 38 38 39 39 40 40 41 41 42 42 43 43 44 45 46 47 48 49 50 50 51 51 52

GEFSSGP_500_meanwind_228.txt.gz
Wind_Speed
35 35 36 36 36 36 32 28 27 26 27 26 26 25 23 22 21 21 20 19 19 19 18 18 17 17 16 16 15 15 15 14 14 14 14 14 13 13 13 13 13 13 13 13 14 14 14 15 15
37 37 38 38 38 36 31 29 28 28 28 28 27 26 25 24 23 22 22 21 20 20 19 19 18 18 17 17 16 16 16 16 16 16 16 16 15 15 15 15 15 15 15 15 15 15 16 17 18
39 39 39 40 39 35 31 29 29 30 30 29 29 28 27 25 24 23 23 22 22 21 21 20 19 19 18 17 17 17 17 17 17 17 17 17 17 17 16 16 16 16 16 17 17 17 18 18 19
41 41 42 41 38 34 32 32 32 32 32 31 30 29 28 27 26 25 24 24 23 23 22 21 21 20 19 19 19 19 18 18 18 18 18 18 18 18 18 18 18 18 18 18 19 19 20 20 20
43 44 44 42 38 35 34 34 33 33 33 32 31 30 29 29 28 27 26 25 24 24 23 23 22 21 21 20 20 20 20 20 19 19 20 20 20 20 20 19 19 20 20 20 20 21 21 21 21
44 44 44 41 37 35 35 35 35 35 34 33 32 31 30 30 29 29 28 27 26 25 24 24 23 23 22 22 22 21 21 21 21 21 21 21 21 21 21 21 21 21 21 22 22 22 23 23 23
44 44 44 41 39 37 36 36 36 36 35 34 33 32 31 31 30 30 30 29 27 26 26 25 25 24 24 23 23 22 22 22 21 21 22 22 22 23 23 23 23 23 23 24 24 24 24 25 25
45 45 44 42 39 37 37 37 37 37 36 35 35 33 32 31 31 31 31 30 29 28 28 27 26 25 25 24 24 23 23 23 22 23 23 23 23 23 24 24 24 25 25 25 26 26 26 26 26
46 47 45 41 39 38 38 38 38 38 37 36 35 34 33 33 32 32 31 31 30 30 29 28 27 26 25 25 24 24 23 23 23 23 23 24 24 24 25 25 26 26 26 26 26 26 26 26 26
46 46 43 41 40 39 39 40 39 38 38 37 36 35 34 34 33 32 32 31 31 31 30 29 28 27 26 26 25 24 24 24 24 24 24 24 25 25 25 25 26 26 26 26 27 27 27 27 27
46 45 42 42 41 41 41 41 40 40 39 37 36 36 35 34 34 33 33 32 32 32 31 30 29 28 27 27 26 26 25 25 25 25 25 25 25 25 25 25 26 26 26 26 27 27 27 28 28
46 44 43 43 43 42 42 42 42 41 39 38 38 37 36 36 35 34 34 33 33 32 32 31 30 29 29 28 27 27 27 27 26 26 26 25 25 25 25 26 26 26 27 27 27 28 28 29 29
47 45 44 44 44 44 44 44 43 42 41 40 39 39 38 37 36 35 35 34 33 33 32 32 31 31 30 29 29 29 28 28 27 27 27 26 26 27 27 27 27 27 28 28 29 29 29 30 31
47 46 45 45 45 46 46 45 45 42 42 41 40 39 38 37 37 36 35 34 34 34 33 32 32 31 31 31 30 30 29 29 28 28 28 28 28 28 28 28 29 29 29 30 30 30 31 31 32
48 48 47 46 46 46 47 47 45 43 43 42 41 40 39 38 37 37 36 36 35 35 34 33 33 32 31 31 31 30 30 30 30 30 29 30 30 30 29 30 30 31 31 31 32 32 33 33 34
49 49 49 47 47 47 48 47 44 44 44 43 42 41 40 39 38 38 37 36 36 36 35 34 33 33 32 31 31 31 31 31 31 31 31 30 30 31 31 31 32 33 33 33 33 33 34 34 35
51 50 49 47 48 48 49 46 44 45 45 44 43 42 41 40 39 38 38 37 37 36 36 35 34 33 33 32 32 32 32 32 32 32 32 32 32 32 32 33 33 34 34 34 34 34 35 36 36
51 50 49 48 47 48 48 46 44 45 46 45 44 43 42 41 40 39 39 38 38 37 36 36 35 34 34 33 33 33 33 33 33 33 33 33 33 33 33 33 33 34 34 35 35 35 36 37 37
51 50 49 48 47 48 48 47 46 46 46 45 45 44 43 42 41 41 40 40 39 38 37 36 36 36 35 35 35 35 34 34 34 34 34 34 34 34 35 35 34 34 35 35 35 36 36 38 38
51 51 50 49 48 49 49 49 47 47 46 46 45 44 44 43 43 42 41 40 40 39 38 38 37 37 36 36 36 36 35 35 35 35 35 35 35 35 35 35 35 35 36 35 36 37 38 38 39
51 51 50 50 50 50 51 51 49 47 47 46 45 45 44 44 43 43 42 41 41 40 39 39 39 38 38 38 37 37 36 36 36 36 36 35 36 36 36 36 36 36 36 36 37 38 39 39 40
50 50 50 50 51 51 52 53 50 48 47 46 44 45 44 44 44 43 43 42 41 40 40 40 40 40 39 39 38 37 37 37 37 36 36 36 36 36 37 37 37 37 37 38 38 39 40 40 41
48 48 49 50 51 52 52 53 50 48 47 45 44 44 44 43 43 43 43 42 42 41 41 41 41 40 40 39 38 38 38 38 37 37 37 37 37 37 37 37 38 38 39 39 40 40 41 42 43
47 47 48 50 51 53 51 52 51 48 46 45 45 44 44 43 43 43 43 43 42 41 41 41 40 40 39 38 38 38 39 39 38 38 38 38 38 38 38 39 39 40 40 41 41 42 42 43 44
45 46 46 48 52 53 50 52 50 46 45 45 44 44 43 43 43 43 43 42 42 41 41 40 40 40 39 39 39 39 39 39 39 39 39 39 39 39 39 40 41 41 42 42 43 43 44 44 45
43 45 46 47 50 51 51 52 49 46 45 44 44 43 43 43 43 42 43 42 42 41 41 41 41 40 40 40 39 39 39 39 40 40 40 40 40 40 41 41 42 42 43 43 44 44 44 45 46
43 44 44 46 48 49 51 51 49 46 44 43 43 43 43 42 42 42 42 42 42 42 42 42 42 42 41 41 40 40 40 40 40 40 41 41 41 42 42 42 43 43 43 44 44 45 45 46 46
42 42 43 45 46 47 49 49 46 44 42 42 41 41 42 42 42 42 42 42 42 42 42 42 42 42 42 41 41 40 40 41 41 42 42 42 43 43 43 44 44 44 44 44 44 45 45 46 47
41 42 42 43 45 45 47 46 44 43 41 40 40 40 40 40 41 42 43 42 42 42 42 42 42 42 42 41 41 41 41 42 42 42 43 43 43 43 44 44 44 44 44 45 45 45 46 46 47
38 40 40 40 41 41 43 44 42 41 40 39 39 39 39 39 40 41 42 42 41 41 41 42 41 41 41 41 41 41 41 42 42 42 42 42 43 43 44 44 44 44 44 44 45 45 46 46 47

GEFSSGP_500_meanwind_234.txt.gz
Wind_Speed
37 37 37 37 37 37 33 29 27 26 27 26 25 24 23 22 21 20 19 18 18 17 17 17 16 16 16 15 15 14 14 13 13 13 13 13 13 13 13 12 12 12 12 12 12 12 12 12 13
39 39 39 40 40 38 34 30 28 28 28 28 27 26 25 24 23 22 21 20 19 19 18 18 18 17 17 17 17 16 16 15 15 15 15 15 15 15 14 14 13 13 13 13 13 13 13 14 14
40 41 41 42 41 38 34 31 30 30 30 30 29 28 27 25 24 23 23 22 21 21 20 19 19 19 18 18 18 18 17 17 17 16 16 16 16 16 16 15 15 15 15 15 15 15 15 16 16
42 42 43 44 42 38 35 33 33 32 32 31 31 30 28 27 26 25 24 23 23 22 21 21 21 20 20 20 19 19 19 18 18 18 18 18 18 17 17 18 17 17 17 17 17 17 17 18 18
44 44 45 44 41 38 36 35 35 34 34 33 32 31 29 28 28 27 26 25 24 24 23 23 22 22 21 21 21 20 20 20 19 19 19 19 19 19 19 19 19 19 19 19 19 19 19 20 20
46 46 46 43 40 38 37 37 36 36 36 35 34 33 31 30 29 28 28 27 26 25 25 24 24 23 23 22 22 22 22 21 20 20 20 20 20 20 20 20 20 20 20 20 20 20 21 21 22
47 47 46 43 40 39 38 38 37 37 37 37 36 35 33 31 31 30 29 29 28 27 26 25 25 24 24 23 23 23 23 22 22 21 21 20 20 20 21 21 21 21 21 21 22 22 22 22 23
47 48 47 45 42 40 39 39 38 38 38 38 38 36 35 33 32 31 31 30 29 28 28 27 26 25 25 25 25 24 24 23 23 22 21 21 21 21 21 21 22 22 22 22 23 23 23 24 24
49 49 48 45 43 42 40 40 40 40 39 39 38 37 36 35 34 33 32 31 30 30 29 28 28 27 26 26 26 25 25 24 24 23 22 22 22 22 22 22 23 23 23 23 24 24 24 25 25
51 51 47 46 44 43 42 42 41 41 41 40 39 38 37 37 36 35 34 32 31 31 30 30 29 29 28 27 27 26 25 25 24 24 23 23 23 23 23 23 23 23 24 24 24 25 25 25 25
50 49 47 46 45 44 44 43 43 42 42 41 40 39 39 38 37 36 35 34 33 33 32 31 31 30 29 29 28 27 27 26 26 25 25 25 25 25 25 24 24 24 25 25 25 26 26 26 26
49 48 47 46 46 45 45 44 44 43 42 42 41 41 40 39 38 38 37 36 36 34 34 33 32 31 31 30 29 28 28 27 27 26 26 26 26 25 25 25 25 25 26 26 26 27 27 27 27
49 47 47 47 47 47 46 45 45 44 43 43 42 42 41 40 40 39 39 38 37 36 35 34 33 33 32 31 30 30 29 29 28 28 27 27 27 26 26 27 26 27 27 27 27 28 28 28 29
49 49 48 48 48 48 48 47 46 44 44 44 43 42 41 41 41 41 40 39 38 37 36 35 34 34 33 32 31 31 30 30 29 29 29 28 28 28 28 28 28 28 28 28 29 29 29 30 30
50 50 50 49 49 48 48 48 46 45 46 45 44 43 42 41 41 41 41 40 39 38 37 36 35 34 34 33 33 32 32 31 31 30 30 29 29 29 29 29 30 30 30 30 30 30 31 31 32
51 51 51 50 49 49 49 48 46 47 47 46 45 45 44 43 42 42 42 41 40 39 38 37 36 35 35 34 34 33 33 33 32 32 31 31 31 30 30 30 31 31 32 31 32 32 32 32 33
52 51 50 50 50 50 50 49 47 47 47 47 46 45 44 43 43 42 42 42 42 41 39 38 37 37 36 35 35 34 34 33 33 33 32 32 32 31 32 31 32 32 32 32 33 33 33 34 34
51 50 50 50 50 50 50 49 48 48 48 47 47 46 45 44 44 43 43 43 43 42 41 39 38 37 37 36 35 35 34 34 34 33 33 33 32 32 32 32 32 33 33 33 34 34 35 35 35
50 51 51 51 51 52 51 50 49 49 48 47 47 46 46 45 45 45 44 44 43 43 41 40 39 38 37 36 36 35 35 34 34 34 33 33 33 34 33 33 34 35 35 35 35 36 36 36 36
50 51 51 52 52 53 52 52 50 50 48 47 47 46 46 46 46 45 45 44 44 43 42 41 40 39 38 37 37 36 36 35 35 35 35 35 35 35 35 35 36 36 36 37 37 37 38 38 38
48 50 50 50 51 53 53 53 52 51 50 49 48 47 47 47 47 46 46 45 44 43 42 42 41 40 39 38 38 37 37 36 36 35 36 36 36 36 36 37 37 37 37 38 38 38 38 38 38
46 48 49 50 51 52 53 54 52 51 51 50 49 48 48 48 47 47 46 45 44 44 43 43 42 41 41 40 39 38 38 37 37 36 36 36 36 37 38 37 37 37 38 38 38 39 39 39 39
42 44 46 48 50 52 53 54 53 51 51 51 50 49 48 48 48 47 47 46 46 45 44 43 43 42 41 40 40 39 39 38 38 38 37 37 37 38 38 38 38 38 38 39 39 39 40 40 41
41 41 42 45 47 51 51 53 54 52 50 50 50 49 48 48 48 47 47 47 46 46 44 44 43 43 42 41 41 40 40 39 39 38 38 38 38 38 38 38 39 39 39 39 40 40 40 41 41
40 41 40 42 45 48 48 50 51 50 49 49 49 49 48 47 47 47 47 46 46 46 45 44 44 43 42 42 41 41 40 40 39 39 39 39 39 39 39 39 39 39 39 40 40 40 40 41 42
38 39 40 41 43 44 45 48 48 47 47 48 49 49 49 48 47 47 46 46 46 46 45 45 44 43 43 42 42 41 41 41 40 40 39 39 39 40 40 40 40 39 40 40 40 40 41 42 43
34 36 37 38 40 41 43 45 45 46 46 46 47 47 48 47 47 46 46 46 46 46 45 45 44 43 43 43 42 42 41 41 40 40 40 40 40 40 40 40 40 40 40 40 40 41 42 43 43
34 33 34 34 36 38 40 42 43 42 42 44 45 45 46 47 47 47 46 46 46 46 45 45 44 44 43 43 42 42 42 41 41 40 40 41 40 40 40 40 40 40 40 40 41 42 43 44 44
34 33 34 33 34 35 37 39 39 40 40 41 42 43 44 45 46 46 46 45 45 45 45 44 44 44 44 43 42 42 42 41 41 41 41 41 40 41 40 40 40 40 41 41 42 42 43 44 44
33 32 33 34 33 33 33 35 35 36 37 39 40 40 41 42 43 44 45 45 45 44 44 44 44 44 43 43 43 43 42 41 41 41 41 41 41 40 40 40 40 40 41 41 42 43 43 44 44

GEFSSGP_500_meanwind_240.txt.gz
Wind_Speed
39 38 38 38 39 39 35 31 29 28 27 27 26 26 25 25 24 23 20 19 19 18 18 17 16 16 15 15 14 14 13 13 13 13 12 12 12 12 12 13 13 12 12 12 12 13 13 13 13
41 41 41 41 42 40 36 33 32 31 30 29 28 27 27 27 26 24 22 21 20 20 19 18 18 17 17 16 16 15 15 15 14 14 14 14 14 14 14 14 14 14 14 14 14 14 14 15 15
42 43 43 44 43 41 36 35 34 33 32 31 30 29 29 28 27 25 24 23 22 22 21 20 19 19 18 18 17 17 16 16 16 15 15 15 15 15 15 15 15 15 15 15 15 15 15 16 16
44 44 45 46 44 40 38 37 36 35 34 33 32 32 31 30 28 27 27 25 24 23 23 22 21 21 20 19 19 18 17 17 17 17 17 17 17 17 17 16 16 16 16 16 16 16 16 17 17
47 47 47 47 44 41 39 39 37 37 36 35 34 33 32 31 30 29 29 28 26 25 25 24 23 23 22 21 20 19 19 19 19 18 18 18 18 18 17 17 17 17 17 17 17 18 18 18 19
49 49 49 47 44 42 40 40 39 39 38 37 36 35 35 33 32 31 31 30 28 27 26 26 25 24 23 22 21 21 20 20 20 20 20 20 19 19 18 18 18 18 18 18 18 19 19 20 20
50 50 50 47 45 43 42 42 41 41 40 38 38 38 37 35 34 33 33 32 30 29 28 27 26 26 25 23 23 22 22 21 21 21 21 20 20 19 19 19 19 19 19 19 19 20 20 20 21
51 51 51 49 47 44 43 43 43 42 41 40 40 40 38 36 35 35 35 34 32 31 30 29 28 27 26 25 24 24 23 23 22 22 22 21 21 21 21 21 20 20 20 20 20 20 20 21 21
52 53 50 48 47 46 46 45 45 44 43 42 42 41 39 39 37 36 36 35 33 32 31 31 30 29 28 27 26 25 25 24 23 23 22 22 22 22 22 22 22 21 21 21 21 21 22 22 23
53 53 50 48 48 48 48 47 46 45 44 43 43 42 41 40 38 37 37 36 35 34 33 32 31 31 29 28 27 27 26 25 24 24 24 23 23 23 23 23 23 22 22 22 23 23 23 24 24
52 51 49 49 50 50 49 48 47 46 45 45 44 43 43 41 40 39 38 37 36 36 35 34 33 32 31 30 29 28 27 26 26 25 25 25 24 24 24 24 24 24 24 24 24 25 25 25 26
52 50 50 50 51 51 50 49 48 47 46 46 45 45 44 43 42 42 40 39 38 37 37 36 35 34 33 32 31 30 29 28 28 27 27 26 26 26 26 25 25 25 25 26 26 27 27 27 27
52 51 51 51 51 50 50 50 49 48 47 47 47 46 46 45 43 43 42 41 40 39 38 37 36 35 34 33 32 31 30 30 29 29 28 28 27 27 27 26 26 26 26 27 28 28 28 28 28
51 52 52 52 52 52 51 51 50 48 48 48 48 48 47 46 45 43 43 42 42 41 40 39 38 37 36 34 33 32 32 31 30 30 30 29 29 28 28 27 27 27 28 28 28 29 29 30 30
51 52 52 52 53 53 53 52 50 48 49 49 49 49 48 47 46 45 44 43 43 42 41 40 39 38 37 36 35 34 33 33 32 31 31 30 30 29 29 28 28 28 29 30 30 30 30 31 31
51 52 52 51 52 53 54 52 50 50 49 49 49 49 49 48 47 46 45 44 44 43 42 42 40 39 38 37 36 35 35 34 33 32 32 31 30 30 30 29 29 30 30 31 31 31 32 32 33
51 52 51 50 51 52 53 52 50 50 50 50 50 49 49 48 47 47 46 45 45 44 43 42 41 41 40 38 37 36 36 35 34 34 33 32 31 31 31 30 30 31 31 32 32 32 33 33 34
49 50 50 49 50 51 51 52 51 51 51 50 50 50 50 49 48 47 46 46 45 45 44 43 42 42 41 40 39 38 37 36 35 34 34 33 32 32 32 31 32 32 32 33 33 33 34 34 34
46 48 49 49 49 50 50 50 51 51 51 51 51 51 51 50 49 48 47 47 46 45 44 44 43 42 42 41 40 38 38 37 36 36 35 34 33 33 33 33 33 34 33 34 34 34 35 35 35
44 45 47 48 48 49 49 49 50 50 51 50 51 51 51 50 49 48 48 47 46 46 45 44 43 42 42 41 41 40 39 38 37 36 36 35 35 34 34 34 35 34 35 35 35 35 36 36 36
44 44 44 46 47 48 48 49 49 49 50 50 50 50 51 51 50 49 48 48 47 47 46 45 44 43 42 42 41 41 40 39 38 37 37 36 36 36 35 35 35 35 35 35 35 36 36 36 37
40 42 43 43 45 46 48 50 48 49 50 50 50 50 50 50 50 50 50 49 49 48 47 46 45 44 43 42 41 41 40 40 40 39 38 37 37 36 35 35 35 36 35 36 36 36 37 37 38
37 38 40 41 42 45 47 49 49 49 49 50 50 49 49 49 49 49 49 50 49 49 48 47 46 45 44 43 42 41 41 40 40 39 39 38 37 37 36 36 36 36 36 36 36 37 38 39 39
35 36 36 38 39 43 44 46 48 48 48 48 48 49 49 49 49 49 49 50 49 49 49 49 48 46 45 44 43 42 41 40 40 39 39 39 38 37 37 36 37 37 37 37 37 39 39 39 40
33 34 34 35 37 40 40 43 46 46 46 46 47 48 48 48 48 48 49 49 49 49 49 49 48 47 46 45 44 43 42 41 40 40 39 39 38 38 37 37 37 37 37 38 38 39 39 40 40
33 33 33 34 36 37 37 39 41 43 44 44 45 46 47 48 48 48 48 49 49 50 50 49 48 47 46 45 44 44 43 42 41 40 40 39 39 38 38 38 38 37 37 38 39 39 40 40 41
31 32 31 32 33 34 35 36 39 39 41 42 44 45 46 47 48 48 48 48 49 49 49 48 48 47 47 46 45 45 44 43 42 41 41 40 39 38 38 39 39 38 38 39 39 40 40 41 41
28 29 29 30 32 34 35 35 36 37 39 40 41 43 44 46 47 47 48 48 48 48 48 48 48 48 47 47 46 45 45 44 43 41 41 40 40 40 39 39 39 39 40 40 40 40 40 40 41
26 29 29 29 30 31 34 35 35 36 36 36 37 39 41 43 45 45 46 47 47 47 48 48 49 48 47 46 46 45 44 43 42 42 41 41 40 40 40 40 40 40 40 40 40 40 40 40 40
24 27 28 28 28 29 31 32 34 35 34 34 34 36 38 40 42 43 44 45 46 46 47 47 47 47 47 46 45 45 45 44 43 42 41 41 41 41 40 40 40 40 40 40 40 40 40 40 40

GEFSSGP_500_meanwind_246.txt.gz
Wind_Speed
41 41 41 42 42 42 39 34 31 30 29 29 28 27 26 24 23 21 19 19 18 18 17 17 16 15 14 13 13 12 12 12 12 11 11 11 11 11 12 12 12 12 12 12 12 12 12 12 12
44 43 43 44 45 44 40 36 33 31 31 30 30 29 28 26 25 23 21 21 20 19 19 19 18 17 16 16 15 14 14 14 13 13 13 13 13 13 13 13 14 14 13 13 13 13 13 13 13
45 46 46 47 46 44 40 37 35 33 33 33 32 31 30 28 26 25 24 23 22 21 21 20 19 19 18 17 17 16 16 15 15 15 14 14 14 14 14 14 14 14 15 14 14 14 14 14 14
47 48 49 49 47 43 41 38 37 36 35 35 34 34 32 31 29 27 26 25 24 24 23 22 21 20 20 19 18 18 17 17 16 16 16 16 15 15 15 15 15 15 15 16 15 15 15 16 16
49 50 51 51 47 44 42 40 40 39 38 37 36 36 34 33 31 29 28 27 26 25 25 24 23 22 22 21 20 19 19 18 18 17 17 17 16 16 16 16 16 16 16 16 17 17 17 17 17
51 52 52 51 47 44 43 42 42 42 41 40 39 37 36 34 33 31 30 29 28 27 27 26 25 24 24 23 22 21 20 19 19 18 18 18 18 17 17 17 17 17 17 17 17 17 17 17 18
52 53 53 50 47 46 44 44 44 43 43 42 41 40 38 37 35 33 32 32 31 30 29 28 27 26 26 25 24 23 22 21 21 20 19 19 19 19 19 19 19 19 19 19 18 18 18 19 19
53 54 53 51 49 47 46 46 45 45 44 44 43 42 40 38 37 35 34 33 32 32 31 31 30 29 27 27 25 25 24 23 22 22 21 20 20 20 20 20 20 20 20 20 20 20 20 20 20
53 54 54 51 49 47 47 48 47 46 46 46 45 44 42 40 39 38 36 35 34 33 33 32 32 30 29 28 27 27 26 25 24 23 23 22 22 22 21 21 21 21 21 21 21 21 21 21 21
54 55 53 51 50 49 49 49 48 47 47 47 46 45 44 42 41 39 38 36 36 35 34 34 33 32 31 30 29 28 28 27 26 25 24 24 23 23 23 23 23 23 22 22 22 22 22 22 22
53 53 52 52 50 50 50 50 49 48 48 47 47 46 45 44 42 41 40 38 37 37 36 36 35 34 33 32 31 30 29 28 27 27 26 26 25 25 24 24 24 24 24 24 23 23 23 23 24
52 52 52 52 51 51 51 51 50 49 48 48 47 47 46 45 44 43 42 40 40 39 38 37 36 35 34 34 33 32 31 30 29 28 28 27 26 26 25 25 25 25 25 25 24 24 24 25 25
51 51 52 52 51 50 51 51 50 50 50 49 48 48 47 46 45 44 43 42 42 41 40 39 38 37 36 35 34 34 33 32 31 30 29 29 28 27 27 27 26 26 26 25 25 25 26 26 27
49 50 51 51 50 50 51 51 51 50 50 50 50 49 48 46 46 45 44 43 42 42 41 40 39 38 37 37 36 35 34 33 32 31 30 30 30 29 29 28 27 27 27 26 26 26 27 28 28
48 49 50 50 50 50 50 51 51 50 50 51 50 49 48 47 47 46 44 43 43 43 42 41 40 39 38 38 37 36 35 34 33 32 31 31 31 31 30 30 29 28 28 28 28 28 29 29 29
46 47 48 48 48 50 51 51 49 50 50 51 51 50 49 48 47 46 45 44 44 43 43 43 42 41 40 39 38 38 37 36 35 34 33 33 32 32 32 31 30 30 30 30 29 29 30 30 31
45 46 45 45 46 48 50 50 49 50 50 50 50 50 49 48 48 47 46 46 45 44 44 43 43 42 41 40 39 39 38 38 36 35 34 34 33 33 33 32 31 31 30 31 31 31 31 31 32
42 43 44 43 45 47 49 49 49 49 49 49 50 49 49 49 48 47 47 46 46 45 45 45 44 43 43 42 41 40 39 38 37 36 35 35 34 34 34 33 32 32 31 31 31 32 32 33 33
37 42 43 42 42 44 47 48 48 49 49 49 49 49 48 48 48 48 47 47 47 46 46 45 45 44 44 44 43 42 40 39 38 37 37 36 35 35 34 34 34 33 33 33 33 33 34 34 34
35 39 41 41 42 44 44 46 47 48 49 49 49 48 48 48 48 47 47 47 47 47 46 46 46 45 45 44 44 43 41 40 40 39 38 37 37 36 35 35 35 34 34 34 34 34 34 35 35
33 35 37 37 39 43 44 46 46 47 48 48 48 47 47 47 47 48 47 47 47 47 47 46 46 46 45 44 44 43 42 41 40 39 39 38 38 37 36 36 35 35 35 35 35 35 35 35 36
30 31 33 34 36 39 42 45 45 46 47 48 47 46 46 46 47 47 47 47 47 47 46 46 46 46 46 45 44 42 42 41 41 40 40 40 39 39 38 37 36 36 36 35 35 36 36 36 37
27 28 29 31 33 37 39 41 43 44 45 46 46 45 45 45 46 46 47 47 47 47 47 47 47 46 46 45 44 43 42 42 42 42 41 40 40 40 39 38 38 37 36 36 36 37 37 37 37
25 27 27 29 31 34 36 39 41 42 42 42 43 44 44 44 44 45 46 46 46 46 46 47 47 47 46 46 45 44 43 43 43 42 41 42 41 41 40 40 39 38 37 37 37 37 37 38 38
22 25 25 26 30 32 33 36 39 39 40 41 42 42 43 43 44 45 45 45 45 45 45 46 46 47 47 47 46 45 45 44 43 43 42 42 42 41 41 41 39 38 38 38 38 37 37 38 38
20 23 25 25 28 30 32 32 35 36 37 38 39 40 41 42 44 45 45 45 45 45 44 45 45 45 46 46 46 46 46 45 44 43 43 42 41 41 41 40 39 38 38 38 38 38 38 38 38
19 21 23 24 26 28 29 29 31 33 35 36 37 38 41 42 43 44 45 45 45 45 44 44 44 45 45 46 46 46 46 45 45 45 44 43 42 41 41 40 39 38 38 38 38 38 38 39 39
19 20 21 23 24 26 27 28 30 30 32 34 36 37 39 41 42 43 44 45 46 45 45 44 44 44 44 45 46 46 46 45 45 45 44 42 42 42 41 40 39 39 38 38 38 38 38 39 39
18 20 21 22 23 25 26 26 28 28 29 31 33 35 37 38 41 42 43 44 45 46 45 45 45 45 45 44 45 45 46 46 45 45 44 43 43 43 42 41 40 39 39 39 39 39 40 40 40
19 20 21 22 22 24 24 25 25 26 27 28 30 33 35 36 38 40 42 43 44 45 45 45 45 45 45 45 44 44 45 45 45 44 44 44 43 42 42 41 40 40 39 40 40 39 39 39 40